     2              OBSERVATION DATA    G (GPS)             RINEX VERSION / TYPE
TRRINEXO V2.3.4 LH UCLA / SCEC 29-JUL-94 16:05              PGM / RUN BY / DATE
DONATED TO SCEC ARCHIVE BY: NATIONAL GEODETIC SURVEY        COMMENT
PROJECT NAME: NGS hpgn 1993-1994                            COMMENT
ARCHIVED BY: SOUTHERN CALIFORNIA EARTHQUAKE CENTER (SCEC)   COMMENT
ANTENNA DELTA H: DIRECT HEIGHT TO PRE-AMP BASE (DHPAB)      COMMENT
NOTE:                                                       COMMENT
PROBLEM: NONE                                               COMMENT
FOR FURTHER INFORMATION CONTACT: DAVE JACKSON               COMMENT
UCLA / GEOLOGY BLDG., 595 CIRCLE DR E. RM 3806              COMMENT
LOS ANGELES CA 90024 DJACKSON@CYCLOP.ESS.UCLA.EDU           COMMENT
ANTENNA ON FIXED HEIGHT REMOTE KINEMATIC POLE               COMMENT
BIT 2 OF LLI (+4) FLAGS DATA COLLECTED UNDER "AS" CONDITION COMMENT
HPGN CALIF STA 1115 1990                                    MARKER NAME
A.L. MATSON NGS                                             OBSERVER / AGENCY
1528 TRIMBLE 4000 SSE 5.66                                  REC # / TYPE / VERS
20 TRIMBLE 4000 SSE                                         ANT # / TYPE
 -2204341.0000 -4831571.0000  3520611.0000                  APPROX POSITION XYZ
        2.2200        0.0000        0.0000                  ANTENNA: DELTA H/E/N
     1     1                                                WAVELENGTH FACT L1/2
     4    C1    L1    L2    P2                              # / TYPES OF OBSERV
    30                                                      INTERVAL
  1994     3    24    18    23   29.993000                  TIME OF FIRST OBS
                                                            END OF HEADER
 94  3 24 18 23 29.9930000  0  7 18 19 22 27 28 29 31
  18163397.981    -1245165.05718   -891349.38219  18163399.798
  19276713.630    -1584377.80317  -1144891.41919  19276716.349
  22330296.396      790524.29015    564699.89619  22330301.048
  21103472.146    -2148715.41116  -1527410.79919  21103475.380
  21086879.997    -1364855.18516   -983679.37419  21086883.419
  18874163.474     -319748.84017   -227464.59119  18874165.642
  20724426.231    -2189550.44616  -1582208.28519  20724430.204
 94  3 24 18 23 59.9930000  0  6 18 19 27 28 29 31
  18150396.372    -1313488.837 8   -944588.688 9  18150398.247
  19259446.856    -1675114.686 7  -1215595.465 9  19259449.704
  21079707.247    -2273603.319 6  -1624726.004 9  21079710.271
  21072622.247    -1439780.289 6  -1042062.548 9  21072625.423
  18871516.653     -333659.060 7   -238303.750 9  18871518.892
  20700583.435    -2314844.573 6  -1679840.009 9  20700587.360
 94  3 24 18 24 29.9930000  0  6 18 19 27 28 29 31
  18137500.427    -1381256.837 8   -997394.922 9  18137502.302
  19242230.372    -1765588.478 7  -1286094.506 9  19242233.220
  21055978.817    -2398293.053 6  -1721886.789 9  21055982.216
  21058475.114    -1514124.671 6  -1099993.215 9  21058478.466
  18868965.388     -347065.600 7   -248750.433 9  18868967.696
  20676821.489    -2439714.523 6  -1777141.213 9  20676825.333
 94  3 24 18 24 59.9930000  0  6 18 19 27 28 29 31
  18124711.583    -1448463.203 8  -1049763.517 9  18124713.458
  19225066.247    -1855789.452 7  -1356380.962 9  19225068.966
  21032289.521    -2522781.522 6  -1818890.739 9  21032292.802
  21044442.435    -1587866.230 6  -1157454.136 9  21044446.173
  18866511.224     -359961.583 7   -258799.282 9  18866513.603
  20653142.872    -2564145.530 6  -1874100.388 9  20653146.915
 94  3 24 18 25 29.9930000  0  6 18 19 27 28 29 31
  18112029.958    -1515105.800 8  -1101692.813 9  18112031.915
  19207956.935    -1945697.124 7  -1426438.869 9  19207959.689
  21008642.536    -2647046.776 6  -1915720.768 9  21008645.958
  21030525.950    -1660996.879 6  -1214439.029 9  21030529.735
  18864161.185     -372312.135 7   -268423.117 9  18864163.528
  20629547.942    -2688137.061 6  -1970717.087 9  20629551.786
 94  3 24 18 25 59.9930000  0  6 18 19 27 28 29 31
  18099454.997    -1581185.482 8  -1153183.479 9  18099457.130
  19190905.255    -2035304.138 7  -1496262.493 9  19190908.114
  20985038.005    -2771086.618 6  -2012375.146 9  20985041.368
  21016726.638    -1733512.181 6  -1270944.434 9  21016730.165
  18861914.052     -384121.286 7   -277625.083 9  18861916.396
  20606037.106    -2811685.748 6  -2066988.738 9  20606041.079
 94  3 24 18 26 29.9930000  0  6 18 19 27 28 29 31
  18086992.411    -1646676.738 8  -1204215.624 9  18086994.439
  19173912.200    -2124603.350 7  -1565846.273 9  19173914.931
  20961480.138    -2894890.273 6  -2108845.482 9  20961483.466
  21003048.419    -1805392.291 6  -1326954.886 9  21003052.005
  18859770.661     -395385.321 7   -286402.297 9  18859772.911
  20582617.028    -2934761.762 6  -2162892.063 9  20582621.317
 94  3 24 18 26 59.9930000  0  6 18 19 27 28 29 31
  18074641.583    -1711581.983 8  -1254791.142 9  18074643.552
  19156977.864    -2213594.735 7  -1635190.199 9  19156980.560
  20937962.778    -3018470.903 6  -2205142.039 9  20937965.954
  20989489.599    -1876644.482 6  -1382476.041 9  20989493.290
  18857733.442     -406091.379 7   -294744.709 9  18857735.657
  20559286.638    -3057362.626 6  -2258425.143 9  20559291.044
 94  3 24 18 27 29.9930000  0  6 18 19 27 28 29 31
  18062405.794    -1775881.673 8  -1304894.797 9  18062407.892
  19140102.013    -2302276.278 7  -1704292.683 9  19140104.767
  20914488.411    -3141828.773 6  -2301265.009 9  20914491.610
  20976053.333    -1947252.916 6  -1437495.571 9  20976057.118
  18855804.341     -416230.116 7   -302645.063 9  18855806.731
  20536049.091    -3179477.272 6  -2353579.358 9  20536053.321
 94  3 24 18 27 59.9930000  0  6 18 19 27 28 29 31
  18050283.958    -1839582.545 8  -1354531.844 9  18050285.939
  19123281.427    -2390669.689 7  -1773170.647 9  19123284.075
  20891049.364    -3265002.542 6  -2397244.535 9  20891052.399
  20962738.560    -2017222.281 6  -1492017.127 9  20962742.403
  18853979.122     -425820.693 7   -310118.282 9  18853981.325
  20512904.333    -3301103.989 6  -2448353.364 9  20512908.821
 94  3 24 18 28 29.9930000  0  6 18 19 27 28 29 31
  18038275.950    -1902684.721 8  -1403702.377 9  18038277.966
  19106512.864    -2478789.589 7  -1841835.483 9  19106515.337
  20867644.153    -3388001.326 6  -2493087.700 9  20867647.435
  20949544.872    -2086554.202 6  -1546041.984 9  20949548.728
  18852257.169     -434870.003 7   -317169.741 9  18852259.349
  20489849.817    -3422254.883 6  -2542756.603 9  20489853.872
 94  3 24 18 28 59.9920000  0  6 18 19 27 28 29 31
  18026376.859    -1965215.620 8  -1452427.759 9  18026378.898
  19089795.039    -2566642.657 7  -1910292.405 9  19089797.723
  20844268.813    -3510838.497 6  -2588804.933 9  20844272.246
  20936470.828    -2155258.199 6  -1599577.548 9  20936474.309
  18850634.352     -443398.904 7   -323815.666 9  18850636.543
  20466881.313    -3542957.928 6  -2636810.867 9  20466885.508
 94  3 24 18 29 29.9920000  0  6 18 19 27 28 29 31
  18014584.461    -2027184.636 8  -1500715.306 9  18014586.500
  19073126.539    -2654234.545 7  -1978545.807 9  19073129.164
  20820925.039    -3633509.457 6  -2684392.653 9  20820928.531
  20923517.555    -2223327.510 6  -1652618.549 9  20923521.176
  18849108.773     -451415.270 7   -330062.225 9  18849110.930
  20443995.617    -3663222.910 6  -2730523.793 9  20443999.684
 94  3 24 18 29 59.9920000  0  6 18 19 27 28 29 31
  18002893.031    -2088623.126 8  -1548589.451 9  18002895.082
  19056505.609    -2741580.600 7  -2046607.654 9  19056508.023
  20797612.172    -3756019.940 6  -2779855.324 9  20797615.172
  20910681.344    -2290785.309 6  -1705183.050 9  20910684.789
  18847678.828     -458931.772 7   -335919.273 9  18847680.832
  20421190.430    -3783063.091 6  -2823905.705 9  20421194.637
 94  3 24 18 30 29.9920000  0  6 18 19 27 28 29 31
  17991300.828    -2149540.496 8  -1596057.535 9  17991303.020
  19039930.617    -2828682.543 7  -2114479.283 9  19039933.277
  20774330.297    -3878366.010 6  -2875189.890 9  20774333.356
  20897959.414    -2357638.727 6  -1757276.613 9  20897963.023
  18846340.578     -465962.918 7   -341398.120 9  18846342.734
  20398464.063    -3902490.367 6  -2916965.871 9  20398468.082
 94  3 24 18 30 59.9920000  0  6 18 19 27 28 29 31
  17979809.453    -2209929.119 8  -1643113.616 9  17979811.516
  19023404.430    -2915527.604 7  -2182150.740 9  19023406.938
  20751081.328    -4000540.878 6  -2970391.044 9  20751084.188
  20885353.438    -2423883.832 6  -1808896.163 9  20885357.047
  18845096.867     -472500.469 7   -346492.344 9  18845099.035
  20375818.289    -4021494.037 6  -3009695.950 9  20375822.285
 94  3 24 18 31 29.9920000  0  6 18 19 27 28 29 31
  17968420.547    -2269777.200 8  -1689748.491 9  17968422.586
  19006925.703    -3002124.118 7  -2249628.538 9  19006928.281
  20727864.406    -4122545.666 6  -3065459.668 9  20727867.477
  20872862.641    -2489523.537 6  -1860043.968 9  20872866.063
  18843947.617     -478538.374 7   -351197.246 9  18843949.691
  20353255.016    -4140063.950 6  -3102088.033 9  20353259.117
 94  3 24 18 31 59.9920000  0  6 18 19 27 28 29 31
  17957136.281    -2329077.349 8  -1735956.408 9  17957138.379
  18990492.547    -3088480.292 7  -2316919.049 9  18990495.184
  20704679.508    -4244386.289 6  -3160400.369 9  20704682.801
  20860484.094    -2554572.107 6  -1910731.149 9  20860488.055
  18842893.719     -484076.764 7   -355512.911 9  18842895.969
  20330776.414    -4258190.159 6  -3194134.377 9  20330780.527
 94  3 24 18 32 29.9920000  0  6 18 19 27 28 29 31
  17945955.039    -2387834.993 8  -1781741.593 9  17945957.172
  18974102.266    -3174610.509 7  -2384033.491 9  18974104.961
  20681523.469    -4366068.185 6  -3255217.395 9  20681526.961
  20848214.633    -2619047.442 6  -1960971.654 9  20848218.324
  18841933.695     -489121.966 7   -359444.283 9  18841936.227
  20308379.969    -4375884.129 6  -3285843.912 9  20308383.660
 94  3 24 18 32 59.9920000  0  6 18 19 27 28 29 31
  17934874.648    -2446063.051 8  -1827114.116 9  17934876.734
  18957754.594    -3260519.808 7  -2450975.782 9  18957757.324
  20658398.602    -4487590.007 6  -3349909.685 9  20658402.106
  20836054.883    -2682950.992 6  -2010766.607 9  20836058.445
  18841068.227     -493669.794 7   -362988.080 9  18841070.676
  20286066.391    -4493142.595 6  -3377214.092 9  20286070.469
 94  3 24 18 33 29.9920000  0  6 18 19 27 28 29 31
  17923888.391    -2503796.168 8  -1872100.965 9  17923890.629
  18941445.297    -3346225.272 7  -2517759.246 9  18941448.250
  20635299.813    -4608975.039 6  -3444495.384 9  20635303.188
  20823998.688    -2746304.850 6  -2060133.240 9  20824002.496
  18840291.711     -497750.534 7   -366167.913 9  18840294.395
  20263834.945    -4609970.137 6  -3468248.478 9  20263838.508
 94  3 24 18 33 59.9920000  0  6 18 19 27 28 29 31
  17912995.477    -2561038.695 8  -1916705.537 9  17912997.621
  18925176.742    -3431717.265 7  -2584376.372 9  18925179.543
  20612226.367    -4730224.705 6  -3538975.611 9  20612229.672
  20812047.563    -2809107.945 6  -2109070.698 9  20812051.441
  18839600.375     -501382.997 7   -368998.444 9  18839602.895
  20241686.047    -4726363.230 6  -3558944.340 9  20241689.621
 94  3 24 18 34 29.9920000  0  6 18 19 27 28 29 31
  17902195.195    -2617794.025 8  -1960930.480 9  17902197.363
  18908949.453    -3516992.345 7  -2650824.472 9  18908952.348
  20589177.484    -4851349.410 6  -3633358.466 9  20589180.531
  20800202.547    -2871355.470 6  -2157575.241 9  20800206.344
  18838988.914     -504596.592 7   -371502.588 9  18838991.621
  20219618.695    -4842329.223 6  -3649307.393 9  20219622.305
 94  3 24 18 34 59.9920000  0  6 18 19 27 28 29 31
  17891490.156    -2674049.872 8  -2004766.211 9  17891492.254
  18892764.367    -3602045.120 7  -2717099.346 9  18892767.297
  20566149.102    -4972365.079 6  -3727656.353 9  20566152.277
  20788464.078    -2933040.732 6  -2205641.648 9  20788467.875
  18838453.570     -507410.860 7   -373695.567 9  18838456.324
  20197633.906    -4957860.119 6  -3739331.418 9  20197637.504
 94  3 24 18 35 29.9920000  0  6 18 19 27 28 29 31
  17880885.438    -2729777.686 8  -2048190.489 9  17880887.711
  18876621.977    -3686874.060 7  -2783199.809 9  18876624.895
  20543141.063    -5093271.761 6  -3821869.318 9  20543144.391
  20776832.797    -2994164.628 6  -2253270.637 9  20776836.559
  18837994.656     -509821.049 7   -375573.682 9  18837997.387
  20175733.367    -5072944.935 6  -3829007.855 9  20175737.539
 94  3 24 18 35 59.9920000  0  6 18 19 27 28 29 31
  17870384.500    -2784959.725 8  -2091189.492 9  17870386.762
  18860520.695    -3771486.210 7  -2849131.338 9  18860523.402
  20520154.570    -5214066.940 6  -3915995.403 9  20520157.840
  20765308.313    -3054724.444 6  -2300460.084 9  20765312.098
  18837615.258     -511816.820 7   -377128.868 9  18837618.012
  20153918.375    -5187584.642 6  -3918337.448 9  20153922.113
 94  3 24 18 36 29.9920000  0  6 18 19 27 28 29 31
  17859986.039    -2839604.966 8  -2133770.208 9  17859988.359
  18844458.727    -3855891.379 7  -2914901.585 9  18844461.621
  20497187.719    -5334760.477 6  -4010042.278 9  20497190.684
  20753890.875    -3114722.621 6  -2347211.891 9  20753894.508
  18837319.031     -513371.943 7   -378340.694 9  18837321.902
  20132187.055    -5301783.676 6  -4007323.660 9  20132190.934
 94  3 24 18 36 59.9920000  0  6 18 19 27 28 29 31
  17849686.531    -2893729.254 8  -2175944.983 9  17849688.816
  18828433.422    -3940105.149 7  -2980522.685 9  18828436.281
  20474238.258    -5455357.232 6  -4104013.742 9  20474241.516
  20742580.867    -3174158.430 6  -2393525.481 9  20742584.231
  18837113.047     -514455.603 7   -379185.146 9  18837115.871
  20110539.297    -5415544.678 6  -4095968.564 9  20110543.270
 94  3 24 18 37 29.9920000  0  6 18 19 27 28 29 31
  17839481.625    -2947356.807 8  -2217732.697 9  17839483.922
  18812442.641    -4024138.591 7  -3046003.275 9  18812445.477
  20451310.649    -5575843.744 6  -4197899.299 9  20451314.024
  20731378.453    -3233028.666 6  -2439398.369 9  20731382.051
  18836997.672     -515062.708 7   -379658.262 9  18837000.531
  20088973.813    -5528869.938 6  -4184273.927 9  20088977.902
 94  3 24 18 37 59.9920000  0  6 18 19 27 28 29 31
  17829368.008    -3000503.530 8  -2259145.738 9  17829370.316
  18796485.859    -4107991.081 7  -3111342.864 9  18796488.777
  20428404.266    -5696217.868 6  -4291697.282 9  20428407.207
  20720283.945    -3291327.310 6  -2484825.868 9  20720287.356
  18836972.000     -515196.709 7   -379762.718 9  18836974.754
  20067490.703    -5641765.214 6  -4272244.230 9  20067494.559
 94  3 24 18 38 29.9920000  0  6 18 19 27 28 29 31
  17819347.773    -3053161.216 8  -2300177.711 9  17819350.070
  18780565.359    -4191653.727 7  -3176534.526 9  18780568.207
  20405521.961    -5816462.083 6  -4385394.040 9  20405525.219
  20709300.899    -3349043.857 6  -2529799.777 9  20709304.496
  18837037.984     -514850.901 7   -379493.311 9  18837040.750
  20046091.484    -5754220.125 6  -4359871.395 9  20046095.176
 94  3 24 18 38 59.9920000  0  6 18 19 27 28 29 31
  17809423.695    -3105311.245 8  -2340814.105 9  17809426.133
  18764681.781    -4275122.873 7  -3241575.409 9  18764684.699
  20382669.547    -5936554.305 6  -4478972.358 9  20382672.688
  20698428.289    -3406181.002 6  -2574322.225 9  20698431.676
  18837188.422     -514060.474 7   -378877.443 9  18837191.176
  20024776.461    -5866229.364 6  -4447151.288 9  20024780.234
 94  3 24 18 39 29.9920000  0  6 18 19 27 28 29 31
  17799596.781    -3156951.990 8  -2381053.660 9  17799599.102
  18748836.695    -4358390.217 7  -3306459.047 9  18748839.496
  20359846.258    -6056493.235 6  -4572431.228 9  20359849.469
  20687664.813    -3462744.197 6  -2618397.410 9  20687668.363
  18837418.070     -512852.858 7   -377936.488 9  18837420.707
  20003547.703    -5977788.399 6  -4534080.369 9  20003551.477
 94  3 24 18 39 59.9920000  0  6 18 19 27 28 29 31
  17789868.195    -3208077.057 8  -2420891.377 9  17789870.492
  18733031.352    -4441446.754 7  -3371178.416 9  18733034.141
  20337048.609    -6176295.140 6  -4665783.336 9  20337051.645
  20677008.195    -3518744.164 6  -2662033.739 9  20677011.887
  18837728.461     -511223.384 7   -376666.816 9  18837731.203
  19982403.570    -6088900.045 6  -4620660.820 9  19982407.543
 94  3 24 18 40 29.9920000  0  6 18 19 27 28 29 31
  17780238.594    -3258681.264 8  -2460323.234 9  17780240.949
  18717267.609    -4524287.074 7  -3435729.306 9  18717270.352
  20314277.555    -6295957.602 6  -4759026.773 9  20314280.813
  20666461.578    -3574169.173 6  -2705222.042 9  20666465.023
  18838119.500     -509169.020 7   -375066.063 9  18838122.078
  19961344.719    -6199564.943 6  -4706893.162 9  19961348.645
 94  3 24 18 40 59.9920000  0  6 18 19 27 28 29 31
  17770704.531    -3308781.828 8  -2499362.645 9  17770706.934
  18701545.453    -4606905.521 7  -3500107.311 9  18701548.336
  20291531.297    -6415489.256 6  -4852168.287 9  20291534.356
  20656024.414    -3629013.754 6  -2747958.061 9  20656027.731
  18838592.813     -506681.924 7   -373128.111 9  18838595.262
  19940370.227    -6309786.413 6  -4792779.983 9  19940374.094
 94  3 24 18 41 29.9920000  0  6 18 19 27 28 29 31
  17761264.258    -3358391.391 8  -2538019.465 9  17761266.625
  18685864.984    -4689308.248 7  -3564317.226 9  18685867.809
  20268806.898    -6534906.983 6  -4945221.023 9  20268810.203
  20645699.398    -3683273.340 6  -2790238.249 9  20645703.020
  18839153.086     -503737.579 7   -370833.861 9  18839155.723
  19919480.219    -6419565.271 6  -4878321.915 9  19919484.016
 94  3 24 18 41 59.9920000  0  6 18 19 27 28 29 31
  17751920.961    -3407491.601 8  -2576279.389 9  17751923.293
  18670223.664    -4771505.481 7  -3628367.016 9  18670226.371
  20246104.922    -6654205.282 6  -5038180.703 9  20246107.981
  20635485.328    -3736949.807 6  -2832064.060 9  20635488.668
  18839801.703     -500329.829 7   -368178.524 9  18839804.234
  19898672.969    -6528907.956 6  -4963523.965 9  19898677.070
 94  3 24 18 42 29.9920000  0  6 18 19 27 28 29 31
  17742676.555    -3456071.008 8  -2614133.488 9  17742678.910
  18654618.938    -4853507.791 7  -3692264.916 9  18654621.820
  20223426.281    -6773381.880 6  -5131045.544 9  20223429.059
  20625381.406    -3790045.222 6  -2873437.100 9  20625384.664
  18840535.500     -496474.186 7   -365174.176 9  18840537.973
  19877949.328    -6637811.051 6  -5048383.484 9  19877953.301
 94  3 24 18 42 59.9920000  0  6 18 19 27 28 29 31
  17733534.141    -3504115.929 8  -2651571.109 9  17733536.402
  18639050.617    -4935320.237 7  -3756014.869 9  18639053.336
  20200769.977    -6892442.400 6  -5223819.942 9  20200773.211
  20615384.703    -3842578.017 6  -2914371.745 9  20615388.090
  18841353.125     -492177.430 7   -361826.108 9  18841355.680
  19857312.297    -6746258.237 6  -5132887.741 9  19857316.234
 94  3 24 18 43 29.9910000  0  6 18 19 27 28 29 31
  17724501.284    -3551583.677 8  -2688558.977 9  17724503.616
  18623519.190    -5016937.543 7  -3819612.763 9  18623522.015
  20178137.878    -7011375.246 6  -5316494.851 9  20178140.784
  20605495.573    -3894545.362 6  -2954865.771 9  20605498.878
  18842252.581     -487450.132 7   -358142.553 9  18842255.042
  19836767.581    -6854224.666 6  -5217017.390 9  19836771.401
 94  3 24 18 43 59.9910000  0  6 18 19 27 28 29 31
  17715578.472    -3598473.179 8  -2725096.267 9  17715580.733
  18608023.542    -5098368.196 7  -3883065.222 9  18608026.097
  20155526.011    -7130200.927 6  -5409086.260 9  20155528.894
  20595711.183    -3945962.761 6  -2994931.273 9  20595714.569
  18843231.769     -482304.477 7   -354132.999 9  18843234.347
  19816312.269    -6961715.598 6  -5300776.511 9  19816316.030
 94  3 24 18 44 29.9910000  0  6 18 19 27 28 29 31
  17706763.948    -3644794.077 8  -2761190.489 9  17706766.163
  18592565.878    -5179600.088 8  -3946362.801 9  18592568.679
  20132935.300    -7248914.596 6  -5501590.389 9  20132938.194
  20586033.339    -3996820.995 6  -3034561.073 9  20586036.620
  18844291.245     -476737.652 7   -349795.264 9  18844293.940
  19795951.362    -7068713.456 6  -5384151.418 9  19795955.089
 94  3 24 18 44 59.9910000  0  6 18 19 27 28 29 31
  17698055.542    -3690557.445 8  -2796850.271 9  17698057.898
  18577145.800    -5260632.470 8  -4009504.912 9  18577148.319
  20110367.276    -7367510.042 6  -5594002.389 9  20110370.194
  20576464.440    -4047107.496 6  -3073745.364 9  20576467.815
  18845431.784     -470743.713 7   -345124.707 9  18845434.409
  19775686.995    -7175204.049 7  -5467131.048 9  19775690.417
 94  3 24 18 45 29.9910000  0  6 18 19 27 28 29 31
  17689448.870    -3735785.549 8  -2832092.967 9  17689451.273
  18561764.862    -5341460.449 8  -4072487.747 9  18561767.265
  20087822.190    -7485984.628 6  -5686320.209 9  20087825.319
  20567007.089    -4096804.506 6  -3112470.298 9  20567010.511
  18846655.761     -464311.214 7   -340112.419 9  18846658.573
  19755517.081    -7281195.242 6  -5549721.540 9  19755520.831
 94  3 24 18 45 59.9910000  0  6 18 19 27 28 29 31
  17680935.839    -3780521.884 8  -2866952.462 9  17680938.159
  18546423.573    -5422078.987 8  -4135307.380 9  18546426.163
  20065299.159    -7604344.921 6  -5778548.979 9  20065302.101
  20557661.690    -4145914.332 6  -3150737.705 9  20557665.054
  18847964.386     -457436.296 7   -334755.401 9  18847967.257
  19735439.401    -7386705.151 7  -5631937.002 9  19735442.870
 94  3 24 18 46 29.9910000  0  6 18 19 27 28 29 31
  17672513.276    -3824783.177 8  -2901441.798 9  17672515.585
  18531121.847    -5502490.625 8  -4197965.793 9  18531124.284
  20042798.112    -7722589.875 6  -5870687.871 9  20042801.112
  20548427.878    -4194437.354 6  -3188547.864 9  20548431.569
  18849354.644     -450129.623 7   -329061.944 9  18849357.632
  19715452.198    -7491737.097 6  -5713780.030 9  19715455.644
 94  3 24 18 46 59.9910000  0  6 18 19 27 28 29 31
  17664183.081    -3868558.491 8  -2935552.452 9  17664185.378
  18515859.714    -5582693.391 8  -4260461.449 9  18515862.163
  20020316.065    -7840732.541 6  -5962747.057 9  20020319.312
  20539306.331    -4242371.848 6  -3225899.430 9  20539309.976
  18850829.034     -442382.333 7   -323025.155 9  18850832.058
  19695556.753    -7596288.520 6  -5795248.626 9  19695560.163
 94  3 24 18 47 29.9910000  0  6 18 19 27 28 29 31
  17655947.831    -3911836.532 8  -2969275.617 9  17655950.058
  18500639.190    -5662677.994 8  -4322787.111 9  18500641.687
  19997852.261    -7958780.264 6  -6054732.260 9  19997855.050
  20530294.401    -4289729.539 6  -3262801.529 9  20530297.741
  18852388.222     -434189.497 7   -316641.174 9  18852391.339
  19675749.097    -7700377.997 6  -5876357.260 9  19675752.261
 94  3 24 18 47 59.9910000  0  6 18 19 27 28 29 31
  17647810.573    -3954597.752 8  -3002596.069 9  17647812.812
  18485459.769    -5742445.721 8  -4384943.779 9  18485462.323
  19975408.081    -8076725.379 6  -6146637.517 9  19975411.046
  20521391.659    -4336515.927 6  -3299258.464 9  20521395.421
  18854030.230     -425560.740 7   -309917.514 9  18854033.230
  19656032.683    -7803990.153 7  -5957093.954 9  19656036.081
 94  3 24 18 48 29.9910000  0  6 18 19 27 28 29 31
  17639776.128    -3996819.498 8  -3035496.152 9  17639778.214
  18470319.081    -5822010.944 8  -4446942.655 9  18470321.565
  19952986.339    -8194551.763 6  -6238450.251 9  19952989.339
  20512598.276    -4382725.015 6  -3335265.553 9  20512601.663
  18855755.706     -416492.900 7   -302851.711 9  18855758.495
  19636411.714    -7907097.577 7  -6037437.357 9  19636415.464
 94  3 24 18 48 59.9910000  0  6 18 19 27 28 29 31
  17631845.120    -4038496.034 8  -3067971.397 9  17631847.171
  18455217.948    -5901367.799 8  -4508779.160 9  18455220.386
  19930589.675    -8312247.902 6  -6330161.500 9  19930592.898
  20503915.886    -4428350.456 6  -3370817.857 9  20503919.741
  18857566.761     -406978.162 7   -295437.686 9  18857569.632
  19616887.386    -8009698.944 7  -6117386.439 9  19616890.866
 94  3 24 18 49 29.9910000  0  6 18 19 27 28 29 31
  17624018.011    -4079628.691 8  -3100022.844 9  17624020.202
  18440160.081    -5980496.344 8  -4570437.765 9  18440162.577
  19908225.620    -8429771.668 6  -6421738.421 9  19908228.690
  20495349.073    -4473371.530 6  -3405899.226 9  20495352.554
  18859464.136     -397007.249 7   -287668.188 9  18859466.960
  19597464.151    -8111768.062 7  -6196920.775 9  19597467.714
 94  3 24 18 49 59.9910000  0  6 18 19 27 28 29 31
  17616291.300    -4120232.471 8  -3131662.170 9  17616293.550
  18425143.823    -6059409.323 8  -4631928.396 9  18425146.355
  19885896.940    -8547111.493 6  -6513172.022 9  19885899.730
  20486899.042    -4517776.023 6  -3440500.137 9  20486902.722
  18861446.675     -386588.271 7   -279549.551 9  18861449.335
  19578147.175    -8213280.258 7  -6276021.147 9  19578150.995
 94  3 24 18 50 29.9910000  0  6 18 19 27 28 29 31
  17608665.839    -4160304.714 8  -3162887.309 9  17608668.148
  18410168.651    -6138103.116 7  -4693248.225 9  18410171.265
  19863600.683    -8664274.453 6  -6604467.805 9  19863603.882
  20478566.034    -4561566.337 6  -3474622.470 9  20478569.573
  18863514.542     -375721.387 7   -271081.889 9  18863517.448
  19558933.300    -8314249.165 7  -6354698.185 9  19558936.956
 94  3 24 18 50 59.9910000  0  6 18 19 27 28 29 31
  17601141.292    -4199847.183 8  -3193699.636 9  17601143.542
  18395237.089    -6216568.002 7  -4754389.692 9  18395239.655
  19841337.183    -8781271.846 6  -6695634.570 9  19841340.148
  20470348.151    -4604751.813 6  -3508273.496 9  20470351.667
  18865665.784     -364415.359 7   -262272.044 9  18865668.644
  19539818.409    -8414697.716 6  -6432969.742 9  19539822.218
 94  3 24 18 51 29.9910000  0  6 18 19 27 28 29 31
  17593717.409    -4238859.775 8  -3224099.080 9  17593719.730
  18380346.636    -6294818.740 7  -4815364.291 9  18380349.261
  19819104.339    -8898106.492 6  -6786674.524 9  19819107.386
  20462242.237    -4647347.627 6  -3541465.051 9  20462245.671
  18867898.151     -352685.562 7   -253131.993 9  18867901.116
  19520802.144    -8514629.517 6  -6510838.634 9  19520805.765
 94  3 24 18 51 59.9910000  0  6 18 19 27 28 29 31
  17586396.745    -4277330.324 8  -3254076.154 9  17586399.089
  18365492.425    -6372878.012 7  -4876189.694 9  18365495.085
  19796897.769    -9014801.240 6  -6877605.466 9  19796900.733
  20454243.839    -4689380.155 6  -3574217.674 9  20454247.460
  18870208.675     -340544.847 7   -243671.733 9  18870211.558
  19501879.917    -8614065.795 6  -6588321.414 9  19501883.726
 94  3 24 18 52 29.9910000  0  6 18 19 27 28 29 31
  17579180.019    -4315254.450 8  -3283627.441 9  17579182.233
  18350675.409    -6450741.102 7  -4936862.224 9  18350678.034
  19774715.456    -9131374.489 6  -6968441.732 9  19774718.163
  20446348.847    -4730870.032 6  -3606547.448 9  20446352.175
  18872597.503     -327991.459 7   -233889.914 9  18872600.351
  19483049.675    -8713018.925 6  -6665427.714 9  19483053.331
 94  3 24 18 52 59.9910000  0  6 18 19 27 28 29 31
  17572066.550    -4352636.339 8  -3312756.212 9  17572068.659
  18335895.753    -6528409.555 7  -4997383.094 9  18335898.378
  19752556.722    -9247817.204 6  -7059176.288 9  19752559.745
  20438557.386    -4771812.232 6  -3638450.467 9  20438560.444
  18875067.167     -315011.915 7   -223776.021 9  18875070.120
  19464315.112    -8811469.135 6  -6742142.122 9  19464318.792
 94  3 24 18 53 29.9910000  0  6 18 19 27 28 29 31
  17565057.909    -4389467.330 8  -3341455.710 9  17565059.995
  18321152.698    -6605884.261 7  -5057752.985 9  18321155.347
  19730422.370    -9364133.204 6  -7149812.106 9  19730425.405
  20430874.339    -4812187.780 6  -3669911.930 9  20430877.585
  18877622.128     -301587.257 7   -213315.285 9  18877625.151
  19445681.167    -8909392.698 7  -6818446.164 9  19445684.648
 94  3 24 18 53 59.9910000  0  6 18 19 27 28 29 31
  17558155.956    -4425738.057 8  -3369718.641 9  17558158.077
  18306449.464    -6683151.289 7  -5117961.055 9  18306451.983
  19708310.112    -9480333.234 6  -7240357.564 9  19708312.983
  20423302.894    -4851975.749 6  -3700915.540 9  20423305.929
  18880264.964     -287699.300 7   -202493.550 9  18880268.023
  19427148.042    -9006785.273 7  -6894336.442 9  19427151.523
 94  3 24 18 54 29.9910000  0  6 18 19 27 28 29 31
  17551361.159    -4461443.849 8  -3397541.366 9  17551363.315
  18291790.276    -6760184.866 7  -5177987.217 9  18291792.866
  19686222.495    -9596407.758 6  -7330805.211 9  19686225.331
  20415849.940    -4891140.577 6  -3731433.576 9  20415853.444
  18882997.448     -273338.781 7   -191303.591 9  18883000.601
  19408718.745    -9103630.958 7  -6969800.584 9  19408721.991
 94  3 24 18 54 59.9910000  0  6 18 19 27 28 29 31
  17544673.198    -4496590.092 8  -3424928.071 9  17544675.308
  18277174.573    -6836991.676 7  -5237836.677 9  18277177.198
  19664157.331    -9712357.216 6  -7421155.414 9  19664160.448
  20408518.230    -4929669.176 6  -3761455.865 9  20408521.886
  18885817.097     -258521.605 7   -179757.795 9  18885820.214
  19390393.019    -9199933.688 7  -7044841.645 9  19390396.323
 94  3 24 18 55 29.9910000  0  6 18 19 27 28 29 31
  17538091.894    -4531174.146 8  -3451876.705 9  17538093.933
  18262602.269    -6913571.483 8  -5297509.247 9  18262604.835
  19642116.011    -9828186.456 7  -7511411.939 9  19642119.069
  20401306.628    -4967568.678 6  -3790987.942 9  20401309.698
  18888719.394     -243270.771 7   -167874.089 9  18888722.382
  19372169.534    -9295698.091 7  -7119463.229 9  19372172.980
 94  3 24 18 55 59.9910000  0  6 18 19 27 28 29 31
  17531616.394    -4565204.488 8  -3478393.870 9  17531618.409
  18248072.909    -6989921.802 7  -5357003.001 9  18248075.452
  19620098.519    -9943889.784 7  -7601570.350 9  19620101.671
  20394209.815    -5004861.251 6  -3820047.090 9  20394213.237
  18891698.105     -227618.461 7   -155677.541 9  18891701.187
  19354048.050    -9390930.038 7  -7193669.916 9  19354051.343
 94  3 24 18 56 29.9910000  0  6 18 19 27 28 29 31
  17525243.605    -4598693.690 8  -3504489.371 9  17525245.702
  18233586.417    -7066049.669 7  -5416323.412 9  18233588.960
  19598106.261   -10059458.714 7  -7691624.040 9  19598109.483
  20387224.675    -5041569.590 6  -3848650.995 9  20387228.214
  18894751.112     -211574.780 7   -143176.033 9  18894754.101
  19336028.112    -9485622.699 7  -7267456.375 9  19336031.792
 94  3 24 18 56 59.9910000  0  7  2 18 19 27 28 29 31
  21653068.815     -109117.03415
  17518973.644    -4631642.466 8  -3530163.763 9  17518975.671
  18219139.683    -7141966.947 7  -5475479.730 9  18219142.308
  19576139.534   -10174892.322 7  -7781572.285 9  19576142.464
  20380346.073    -5077715.327 6  -3876816.499 9  20380349.343
  18897879.503     -195135.512 7   -130366.272 9  18897882.538
  19318113.440    -9579764.686 7  -7340813.746 9  19318117.108
 94  3 24 18 57 29.9910000  0  7  2 18 19 27 28 29 31
  21626015.769     -251279.271 5    -14757.75919  21626022.554
  17512807.308    -4664046.331 8  -3555413.541 9  17512809.382
  18204730.206    -7217688.324 7  -5534483.400 9  18204732.749
  19554198.730   -10290194.065 7  -7871417.773 9  19554201.835
  20373574.339    -5113303.232 6  -3904547.331 9  20373577.444
  18901084.331     -178294.108 7   -117243.162 9  18901087.284
  19300304.612    -9673348.856 7  -7413736.455 9  19300308.315
 94  3 24 18 57 59.9910000  0  7  2 18 19 27 28 29 31
  21599003.987     -393228.627 5   -125367.540 9  21599010.917
  17506744.128    -4695908.641 8  -3580241.330 9  17506746.237
  18190358.128    -7293215.104 7  -5593335.437 9  18190360.765
  19532282.331   -10405367.870 7  -7961163.564 9  19532285.472
  20366909.690    -5148322.819 6  -3931835.312 9  20366912.878
  18904369.464     -161031.720 7   -103792.012 9  18904372.300
  19282604.440    -9766364.515 7  -7486216.171 9  19282608.120
 94  3 24 18 58 29.9900000  0  7  2 18 19 27 28 29 31
  21572033.607     -534959.113 5   -235806.774 9  21572040.053
  17500785.264    -4727223.120 8  -3604642.235 9  17500787.326
  18176022.631    -7368548.883 7  -5652037.082 9  18176025.408
  19510389.287   -10520414.660 7  -8050810.390 9  19510392.299
  20360356.764    -5182759.621 6  -3958669.183 9  20360360.420
  18907737.850     -143331.872 7    -89999.982 9  18907740.756
  19265013.428    -9858807.212 7  -7558249.416 9  19265016.990
 94  3 24 18 58 59.9900000  0  7  2 18 19 27 28 29 31
  21545103.318     -676474.724 5   -346078.579 9  21545110.150
  17494933.115    -4757976.158 8  -3628605.667 9  17494935.154
  18161724.756    -7443685.255 7  -5710584.899 9  18161727.416
  19488521.740   -10635328.814 7  -8140353.863 9  19488524.822
  20353919.717    -5216586.021 6  -3985027.423 9  20353922.869
  18911191.732     -125182.009 7    -75857.293 9  18911194.568
  19247531.537    -9950675.008 7  -7629834.689 9  19247534.900
 94  3 24 18 59 29.9900000  0  7  2 18 19 27 28 29 31
  21518217.014     -817763.776 5   -456173.841 9  21518223.236
  17489187.092    -4788173.024 8  -3652135.710 9  17489189.213
  18147467.451    -7518605.993 7  -5768964.690 9  18147469.936
  19466682.287   -10750094.745 7  -8229781.842 9  19466685.428
  20347599.787    -5249795.961 6  -4010905.301 9  20347603.232
  18914730.623     -106585.323 7    -61366.428 9  18914733.412
  19230157.568   -10041974.746 7  -7700977.305 9  19230161.014
 94  3 24 18 59 59.9900000  0  7  2 18 19 27 28 29 31
  21491370.811     -958841.196 5   -566104.199 9  21491377.244
  17483541.334    -4817839.594 8  -3675252.536 9  17483543.607
  18133253.701    -7593300.331 7  -5827168.064 9  18133256.397
  19444872.748   -10864705.584 7  -8319088.965 9  19444875.830
  20341394.725    -5282406.539 6  -4036316.138 9  20341398.076
  18918350.209      -87562.617 7    -46543.607 9  18918353.174
  19212887.975   -10132726.729 7  -7771693.103 9  19212891.373
 94  3 24 19  0 29.9900000  0  7  2 18 19 27 28 29 31
  21464563.334    -1099715.328 5   -675876.118 9  21464569.463
  17477997.123    -4846975.576 8  -3697955.920 9  17477999.291
  18119084.264    -7667762.221 7  -5885190.308 9  18119086.830
  19423095.318   -10979145.637 6  -8408263.006 9  19423098.623
  20335303.029    -5314419.101 6  -4061260.995 9  20335306.076
  18922049.631      -68124.292 7    -31396.917 9  18922052.619
  19195720.397   -10222943.876 7  -7841992.141 9  19195723.678
 94  3 24 19  0 59.9900000  0  7  2 18 19 27 28 29 31
  21437797.318    -1240375.105 5   -785481.023 9  21437803.576
  17472552.358    -4875588.643 8  -3720251.838 9  17472554.631
  18104959.951    -7741986.377 7  -5943027.312 9  18104962.518
  19401351.420   -11093410.342 7  -8497300.416 9  19401354.643
  20329324.287    -5345838.469 6  -4085743.619 9  20329327.404
  18925826.975      -48273.416 7    -15928.763 9  18925830.092
  19178654.100   -10312626.394 7  -7911874.598 9  19178657.826
 94  3 24 19  1 29.9900000  0  7  2 18 19 27 28 29 31
  21411071.381    -1380816.016 5   -894915.380 9  21411077.393
  17467208.709    -4903669.636 8  -3742133.140 9  17467211.018
  18090881.029    -7815971.210 7  -6000677.827 9  18090883.678
  19379637.889   -11207516.725 6  -8586214.461 9  19379641.029
  20323454.647    -5376681.265 6  -4109776.975 9  20323457.858
  18929680.256      -28025.651 7      -151.353 9  18929683.209
  19161690.443   -10401772.241 7  -7981338.857 9  19161693.842
 94  3 24 19  1 59.9900000  0  7  2 18 19 27 28 29 31
  21384385.647    -1521052.374 5  -1004190.342 9  21384392.115
  17461968.522    -4931208.097 8  -3763591.695 9  17461970.725
  18076843.717    -7889739.616 8  -6058159.697 9  18076846.178
  19357949.217   -11321491.357 6  -8675025.837 9  19357952.182
  20317695.397    -5406946.358 6  -4133360.163 9  20317698.608
  18933606.990       -7389.471 7     15928.730 9  18933609.990
  19144829.131   -10490377.570 7  -8050381.938 9  19144832.729
 94  3 24 19  2 29.9900000  0  7  2 18 19 27 28 29 31
  21357740.514    -1661074.802 5  -1113298.593 9  21357746.736
  17456834.912    -4958184.817 8  -3784612.539 9  17456837.127
  18062844.029    -7963306.523 7  -6115484.555 9  18062846.596
  19336282.881   -11435347.587 6  -8763744.949 9  19336286.139
  20312045.818    -5436636.542 6  -4156495.386 9  20312048.971
  18937609.256       13642.820 7     32317.460 9  18937612.373
  19128072.904   -10578431.769 7  -8118995.572 9  19128076.408
 94  3 24 19  2 59.9900000  0  7  2 18 19 27 28 29 31
  21331135.201    -1800881.608 5  -1222238.862 9  21331141.248
  17451809.998    -4984590.654 8  -3805188.543 9  17451812.330
  18048883.014    -8036673.166 8  -6172653.364 9  18048885.568
  19314638.045   -11549092.246 6  -8852377.126 9  19314641.068
  20306505.412    -5465748.237 6  -4179179.827 9  20306508.811
  18941688.084       35076.413 7     49018.904 9  18941691.131
  19111426.256   -10665911.897 7  -8187161.876 9  19111429.783
 94  3 24 19  3 29.9900000  0  7  2 18 19 27 28 29 31
  21304571.342    -1940480.255 5  -1331016.913 9  21304576.897
  17446893.529    -5010425.920 8  -3825319.945 9  17446895.932
  18034957.233    -8109852.981 8  -6229676.585 9  18034959.869
  19293014.568   -11662723.488 7  -8940920.927 9  19293017.604
  20301076.537    -5494278.826 6  -4201411.470 9  20301079.525
  18945840.990       56900.860 7     66024.907 9  18945844.260
  19094890.772   -10752806.576 7  -8254871.978 9  19094894.428
 94  3 24 19  3 59.9900000  0  7  2 18 19 27 28 29 31
  21278045.693    -2079870.408 5  -1439632.479 9  21278051.869
  17442082.420    -5035709.602 8  -3845021.544 9  17442085.022
  18021067.631    -8182844.014 8  -6286552.715 9  18021070.197
  19271416.904   -11776219.419 7  -9029359.288 9  19271419.893
  20295758.748    -5522225.811 6  -4223188.334 9  20295762.123
  18950071.592       79131.199 7     83347.182 9  18950074.768
  19078467.842   -10839109.561 7  -8322121.013 9  19078471.580
 94  3 24 19  4 29.9900000  0  7  2 18 19 27 28 29 31
  21251561.381    -2219047.208 5  -1548081.859 9  21251568.131
  17437371.803    -5060462.912 8  -3864309.858 9  17437374.451
  18007216.193    -8255634.682 8  -6343272.711 9  18007218.690
  19249848.623   -11889564.217 7  -9117679.879 9  19249851.541
  20290549.459    -5549599.470 6  -4244518.462 9  20290552.916
  18954380.475      101775.142 7    100991.752 9  18954383.592
  19062156.967   -10924824.094 7  -8388911.516 9  19062160.588
 94  3 24 19  4 59.9900000  0  7  2 18 19 27 28 29 31
  21225116.553    -2358016.768 5  -1656369.704 9  21225123.092
  17432759.201    -5084701.954 8  -3883197.447 9  17432761.850
  17993403.162    -8328221.595 8  -6399833.942 9  17993405.670
  19228304.920   -12002775.609 7  -9205896.524 9  19228307.885
  20285448.162    -5576406.267 6  -4265406.890 9  20285451.490
  18958764.170      124811.685 7    118942.231 9  18958767.381
  19045956.342   -11009957.628 7  -8455249.295 9  19045959.705
 94  3 24 19  5 29.9900000  0  7  2 18 19 27 28 29 31
  21198714.295    -2496761.204 5  -1764482.169 9  21198720.857
  17428244.647    -5108426.067 8  -3901683.788 9  17428247.318
  17979629.451    -8400602.668 8  -6456234.769 9  17979632.158
  19206788.865   -12115843.665 7  -9294001.475 9  19206791.877
  20280453.795    -5602654.558 6  -4285860.109 9  20280456.947
  18963224.233      148248.846 7    137204.883 9  18963227.537
  19029864.115   -11094523.551 7  -8521144.776 9  19029867.397
 94  3 24 19  5 59.9900000  0  7  2 18 19 27 28 29 31
  21172353.897    -2635283.591 5  -1872421.587 9  21172359.932
  17423828.389    -5131634.645 8  -3919768.423 9  17423831.131
  17965897.576    -8472764.593 8  -6512464.837 9  17965900.084
  19185297.357   -12228782.597 7  -9382005.810 9  19185300.135
  20275563.553    -5628349.787 6  -4305882.369 9  20275566.940
  18967763.318      172101.298 7    155791.139 9  18967766.658
  19013877.748   -11178532.279 7  -8586606.089 9  19013881.311
 94  3 24 19  6 29.9900000  0  7  2 18 19 27 28 29 31
  21146037.029    -2773578.043 5  -1980183.428 9  21146042.877
  17419512.936    -5154313.136 8  -3937440.001 9  17419515.607
  17952207.881    -8544704.213 8  -6568521.682 9  17952210.506
  19163827.803   -12341606.746 7  -9469920.702 9  19163830.557
  20270782.326    -5653474.336 6  -4325459.940 9  20270785.947
  18972379.147      196356.902 7    174691.535 9  18972382.123
  18997998.037   -11261980.191 7  -8651630.404 9  18998001.565
 94  3 24 19  6 59.9900000  0  7  2 18 19 27 28 29 31
  21119765.256    -2911636.367 5  -2087761.225 9  21119772.256
  17415301.537    -5176443.281 8  -3954684.291 9  17415304.268
  17938561.467    -8616416.461 8  -6624401.351 9  17938564.104
  19142381.748   -12454304.828 7  -9557737.370 9  19142384.607
  20266115.178    -5678005.369 6  -4344575.033 9  20266118.565
  18977072.084      221018.000 7    193907.901 9  18977075.483
  18982227.647   -11344853.182 7  -8716206.730 9  18982231.244
 94  3 24 19  7 29.9900000  0  7  2 18 19 27 28 29 31
  21093537.592    -3049466.316 5  -2195161.150 9  21093543.311
  17411192.842    -5198034.605 8  -3971508.721 9  17411195.549
  17924956.412    -8687911.860 8  -6680112.048 9  17924958.955
  19120964.897   -12566853.430 7  -9645437.558 9  19120967.861
  20261559.631    -5701942.165 6  -4363227.091 9  20261563.217
  18981845.131      246100.672 7    213452.772 9  18981848.494
  18966567.248   -11427148.433 7  -8780332.852 9  18966570.986
 94  3 24 19  7 59.9900000  0  7  2 18 19 27 28 29 31
  21067351.178    -3187074.132 5  -2302387.894 9  21067358.377
  17407187.154    -5219085.701 8  -3987912.199 9  17407189.709
  17911394.201    -8759181.301 8  -6735646.679 9  17911396.709
  19099575.826   -12679251.067 7  -9733020.104 9  19099578.686
  20257120.311    -5725269.937 6  -4381404.580 9  20257123.979
  18986696.334      271593.376 7    233317.152 9  18986699.568
  18951020.693   -11508849.196 7  -8843995.753 9  18951024.256
 94  3 24 19  8 29.9900000  0  7  2 18 19 27 28 29 31
  21041208.647    -3324454.442 5  -2409437.434 9  21041215.904
  17403282.943    -5239604.099 8  -4003900.583 9  17403285.627
  17897871.998    -8830241.512 8  -6791018.273 9  17897874.506
  19078217.350   -12791491.607 7  -9820480.248 9  19078220.127
  20252797.537    -5747989.505 6  -4399108.142 9  20252800.818
  18991622.365      297480.211 7    253488.646 9  18991625.764
  18935586.717   -11589954.327 7  -8907194.515 9  18935590.397
 94  3 24 19  8 59.9900000  0  7  2 18 19 27 28 29 31
  21015110.061    -3461607.034 5  -2516309.477 9  21015117.529
  17399478.537    -5259595.426 8  -4019478.268 9  17399481.150
  17884389.107    -8901095.866 8  -6846229.455 9  17884391.639
  19056889.467   -12903570.011 7  -9907814.037 9  19056892.174
  20248585.162    -5770126.374 6  -4416357.647 9  20248588.502
  18996623.873      323764.319 7    273969.701 9  18996627.354
  18920265.365   -11670467.731 7  -8969932.194 9  18920268.975
 94  3 24 19  9 29.9900000  0  7  2 18 19 27 28 29 31
  20989053.170    -3598532.511 5  -2623004.565 9  20989060.779
  17395775.061    -5279056.203 8  -4034642.528 9  17395777.803
  17870944.545    -8971746.197 8  -6901281.667 9  17870947.065
  19035587.014   -13015515.590 7  -9995044.340 9  19035589.779
  20244480.584    -5791695.550 6  -4433164.802 9  20244483.701
  19001698.170      350428.160 7    294746.659 9  19001701.498
  18905055.904   -11750393.138 7  -9032211.690 9  18905059.467
 94  3 24 19  9 59.9900000  0  7  2 18 19 27 28 29 31
  20963039.318    -3735237.103 5  -2729527.560 9  20963046.354
  17392174.045    -5297979.808 8  -4049388.218 9  17392176.799
  17857539.451    -9042190.358 8  -6956173.222 9  17857542.041
  19014304.443   -13127355.797 7 -10082192.534 9  19014307.127
  20240485.365    -5812690.416 6  -4449524.442 9  20240488.330
  19006838.467      377441.143 6    315795.670 9  19006842.264
  18889958.420   -11829733.264 7  -9094035.123 9  18889961.900
 94  3 24 19 10 29.9900000  0  7  2 18 19 27 28 29 31
  20937066.811    -3871723.725 5  -2835880.688 9  20937073.869
  17388676.561    -5316359.797 8  -4063710.306 9  17388679.408
  17844173.147    -9112431.780 8  -7010906.802 9  17844175.619
  18993042.686   -13239086.671 7 -10169255.530 9  18993045.264
  20236596.889    -5833124.352 6  -4465447.003 9  20236600.592
  19012044.850      404801.795 6    337115.571 9  19012048.553
  18874971.686   -11908487.799 7  -9155402.258 9  18874974.932
 94  3 24 19 10 59.9900000  0  7  2 18 19 27 28 29 31
  20911134.857    -4007996.852 5  -2942067.469 9  20911141.010
  17385285.357    -5334181.058 8  -4077597.022 9  17385288.170
  17830847.803    -9182456.717 8  -7065471.686 9  17830850.229
  18971801.967   -13350708.640 7 -10256233.667 9  18971804.850
  20232813.373    -5853004.856 6  -4480938.308 9  20232816.994
  19017316.787      432504.953 6    358702.367 9  19017320.607
  18860097.404   -11986651.710 7  -9216309.157 9  18860100.697
 94  3 24 19 11 29.9900000  0  7  2 18 19 27 28 29 31
  20885243.248    -4144059.618 5  -3048090.298 9  20885249.998
  17382001.217    -5351439.291 8  -4091045.023 9  17382003.936
  17817564.865    -9252258.924 8  -7119863.013 9  17817567.385
  18950583.381   -13462212.160 7 -10343119.506 9  18950586.170
  20229138.264    -5872320.202 6  -4495989.246 9  20229142.119
  19022654.795      460556.059 6    380560.298 9  19022658.498
  18845337.662   -12064214.413 7  -9276747.591 9  18845340.803
 94  3 24 19 11 59.9900000  0  7  2 18 19 27 28 29 31
  20859389.506    -4279919.211 5  -3153954.858 9  20859395.811
  17378822.928    -5368143.050 8  -4104060.951 9  17378825.647
  17804323.787    -9321840.946 8  -7174082.764 9  17804326.330
  18929392.436   -13573571.448 7 -10429892.960 9  18929395.166
  20225569.108    -5891075.395 6  -4510603.704 9  20225572.846
  19028062.654      488973.965 6    402704.049 9  19028066.393
  18830691.717   -12141180.724 7  -9336721.299 9  18830694.916
 94  3 24 19 12 29.9900000  0  7  2 18 19 27 28 29 31
  20833578.186    -4415556.625 5  -3259646.258 9  20833585.174
  17375749.264    -5384295.043 8  -4116646.951 9  17375751.912
  17791125.006    -9391202.980 8  -7228131.098 9  17791127.443
  18908231.842   -13684771.010 7 -10516541.951 9  18908234.760
  20222103.686    -5909284.841 6  -4524792.892 9  20222107.389
  19033547.295      517794.645 6    425161.640 9  19033551.022
  18816157.600   -12217558.567 7  -9396236.468 9  18816160.764
 94  3 24 19 12 59.9900000  0  7  2 18 19 27 28 29 31
  20807810.764    -4550962.004 5  -3365156.878 9  20807816.764
  17372778.686    -5399906.691 8  -4128811.901 9  17372781.346
  17777967.834    -9460343.381 8  -7282006.733 9  17777970.424
  18887101.420   -13795810.783 7 -10603066.426 9  18887104.092
  20218744.748    -5926938.794 6  -4538549.231 9  20218748.440
  19039111.787      547036.412 6    447947.357 9  19039115.607
  18801734.592   -12293350.627 7  -9455295.178 9  18801737.486
 94  3 24 19 13 29.9890000  0  7  2 18 19 27 28 29 31
  20782090.204    -4686128.175 5  -3470481.070 9  20782096.708
  17369905.689    -5415004.464 8  -4140576.414 9  17369908.372
  17764850.181    -9529276.671 8  -7335720.980 9  17764852.630
  18866002.017   -13906688.230 7 -10689464.418 9  18866004.735
  20215490.618    -5944038.078 6  -4551873.359 9  20215494.556
  19044755.712      576695.579 6    471058.322 9  19044759.450
  18787421.345   -12368566.764 7  -9513905.115 9  18787424.474
 94  3 24 19 13 59.9890000  0  7  2 18 19 27 28 29 31
  20756414.282    -4821054.213 5  -3575618.179 9  20756420.927
  17367130.196    -5429588.731 8  -4151940.803 9  17367132.857
  17751766.946    -9598029.513 8  -7389294.622 9  17751769.372
  18844929.712   -14017425.938 7 -10775753.525 9  18844932.478
  20212341.696    -5960586.671 6  -4564768.388 9  20212345.142
  19050476.673      606757.437 6    494483.060 9  19050480.575
  18773216.876   -12443214.137 7  -9572071.856 9  18773220.040
 94  3 24 19 14 29.9890000  0  7  2 18 19 27 28 29 31
  20730787.220    -4955723.773 5  -3680555.418 9  20730792.716
  17364451.782    -5443663.339 8  -4162908.053 9  17364454.489
  17738718.720    -9666598.585 8  -7442725.065 9  17738721.275
  18823883.118   -14128026.964 7 -10861936.124 9  18823885.860
  20209297.618    -5976583.514 6  -4577233.477 9  20209301.544
  19056269.845      637201.417 6    518205.563 9  19056273.677
  18759123.118   -12517275.490 7  -9629781.963 9  18759126.224
 94  3 24 19 14 59.9890000  0  7  2 18 19 27 28 29 31
  20705208.329    -5090144.175 5  -3785298.498 9  20705213.321
  17361869.868    -5457231.440 8  -4173480.621 9  17361872.622
  17725706.564    -9734977.543 8  -7496007.364 9  17725708.978
  18802862.837   -14238489.541 7 -10948010.843 9  18802865.626
  20206359.360    -5992023.810 6  -4589264.896 9  20206362.817
  19062130.696      667999.689 6    542204.134 9  19062134.692
  18745144.368   -12590734.066 7  -9687022.383 9  18745147.567
 94  3 24 19 15 29.9890000  0  7  2 18 19 27 28 29 31
  20679676.423    -5224313.922 5  -3889846.284 9  20679681.685
  17359386.845    -5470279.994 8  -4183648.348 9  17359389.540
  17712732.204    -9803159.205 8  -7549135.932 9  17712734.653
  18781867.626   -14348818.661 7 -11033981.564 9  18781870.321
  20203528.189    -6006903.813 6  -4600859.727 9  20203531.775
  19068055.915      699137.116 6    566466.975 9  19068059.841
  18731281.939   -12663581.390 7  -9743786.505 9  18731285.009
 94  3 24 19 15 59.9890000  0  7  2 18 19 27 28 29 31
  20654191.525    -5358241.250 5  -3994205.144 9  20654197.771
  17357004.626    -5482798.773 8  -4193403.260 9  17357007.298
  17699797.181    -9871132.321 8  -7602101.996 9  17699799.583
  18760896.829   -14459021.214 7 -11119853.669 9  18760899.384
  20200802.400    -6021225.871 6  -4612019.797 9  20200806.150
  19074046.610      730616.327 6    590996.156 9  19074050.478
  18717536.798   -12735811.404 7  -9800069.597 9  18717540.079
 94  3 24 19 16 29.9890000  0  7  2 18 19 27 28 29 31
  20628749.462    -5491938.285 5  -4098384.596 9  20628755.626
  17354720.329    -5494803.669 8  -4202757.759 9  17354722.989
  17686905.743    -9938877.022 8  -7654890.064 9  17686908.228
  18739951.900   -14569088.336 7 -11205620.236 9  18739954.653
  20198182.571    -6034993.304 6  -4622747.689 9  20198186.310
  19080103.329      762446.605 6    615798.887 9  19080107.196
  18703907.462   -12807435.320 7  -9855880.417 9  18703910.474
 94  3 24 19 16 59.9890000  0  7  2 18 19 27 28 29 31
  20603350.579    -5625409.826 5  -4202388.293 9  20603356.286
  17352536.821    -5506278.090 8  -4211698.889 9  17352539.353
  17674058.095   -10006393.123 8  -7707500.011 9  17674060.544
  18719032.017   -14679020.820 7 -11291281.897 9  18719034.677
  20195669.790    -6048197.561 6  -4633036.747 9  20195673.669
  19086228.751      794632.647 6    640878.832 9  19086232.642
  18690390.829   -12878464.677 7  -9911227.947 9  18690394.345
 94  3 24 19 17 29.9890000  0  7  2 18 19 27 28 29 31
  20577995.165    -5758654.319 5  -4306215.104 9  20578000.942
  17350456.439    -5517211.312 8  -4220218.310 9  17350458.982
  17661252.556   -10073684.740 7  -7759935.035 9  17661255.005
  18698136.610   -14788829.401 7 -11376847.008 9  18698139.247
  20193264.954    -6060836.173 6  -4642885.049 9  20193268.634
  19092420.985      827173.585 6    666235.321 9  19092424.724
  18676985.876   -12948908.489 7  -9966119.195 9  18676989.064
 94  3 24 19 17 59.9890000  0  7  2 18 19 27 28 29 31
  20552680.353    -5891682.827 5  -4409873.612 9  20552685.521
  17348477.673    -5527609.554 8  -4228320.859 9  17348480.275
  17648488.345   -10140762.469 8  -7812203.401 9  17648490.794
  18677264.415   -14898511.706 7 -11462313.731 9  18677266.946
  20190967.673    -6072908.181 6  -4652291.827 9  20190971.528
  19098681.400      860070.665 6    691869.329 9  19098685.302
  18663693.540   -13018758.999 7 -10020548.140 9  18663696.763
 94  3 24 19 18 29.9890000  0  7  2 18 19 27 28 29 31
  20527406.939    -6024494.335 5  -4513363.014 9  20527412.388
  17346599.353    -5537478.789 8  -4236011.189 9  17346601.942
  17635763.134   -10207633.278 7  -7864310.528 9  17635765.665
  18656420.017   -15008050.879 7 -11547668.916 9  18656422.806
  20188778.853    -6084410.981 6  -4661255.063 9  20188782.732
  19105008.517      893320.317 6    717778.068 9  19105012.384
  18650516.829   -13088004.554 7 -10074505.686 9  18650520.146
 94  3 24 19 18 59.9890000  0  7  2 18 19 27 28 29 31
  20502174.923    -6157090.438 5  -4616684.569 9  20502181.380
  17344821.321    -5546821.725 7  -4243291.415 9  17344823.923
  17623076.407   -10274301.854 7  -7916260.065 9  17623079.079
  18635602.353   -15117447.565 7 -11632913.075 9  18635605.165
  20186697.923    -6095346.476 6  -4669776.247 9  20186701.696
  19111402.712      926922.318 6    743961.360 9  19111406.427
  18637456.462   -13156636.515 7 -10127985.115 9  18637459.661
 94  3 24 19 19 29.9890000  0  7  2 18 19 27 28 29 31
  20476983.079    -6289473.441 5  -4719840.076 9  20476988.774
  17343138.540    -5555665.602 7  -4250182.775 9  17343141.189
  17610428.853   -10340766.422 7  -7968050.644 9  17610431.478
  18614812.540   -15226699.534 7 -11718044.463 9  18614815.142
  20184723.439    -6105721.846 6  -4677860.975 9  20184727.153
  19117864.517      960877.687 6    770420.002 9  19117868.185
  18624517.392   -13224632.797 7 -10180969.200 9  18624520.696
 94  3 24 19 19 59.9890000  0  7  2 18 19 27 28 29 31
  20451832.837    -6421638.820 5  -4822825.999 9  20451839.130
  17341548.899    -5564019.717 7  -4256692.492 9  17341551.607
  17597820.923   -10407021.376 7  -8019677.880 9  17597823.524
  18594053.900   -15335786.333 7 -11803047.145 9  18594056.384
  20182855.610    -6115536.990 6  -4685509.164 9  20182859.571
  19124396.446      995204.248 6    797167.889 9  19124400.220
  18611700.962   -13291983.808 7 -10233450.492 9  18611704.185
 94  3 24 19 20 29.9890000  0  7  2 18 19 27 28 29 31
  20426728.774    -6553562.844 6  -4925623.863 9  20426734.095
  17340054.282    -5571873.324 7  -4262812.197 9  17340057.177
  17585254.056   -10473061.935 7  -8071138.058 9  17585256.681
  18573326.228   -15444711.049 7 -11887923.528 9  18573328.806
  20181091.962    -6124807.328 6  -4692732.821 9  20181095.232
  19130999.751     1029903.251 6    824205.992 9  19131003.360
  18599003.509   -13358707.754 7 -10285443.152 9  18599006.696
 94  3 24 19 20 59.9890000  0  7  2 18 19 27 28 29 31
  20401672.415    -6685234.792 6  -5028225.286 9  20401677.255
  17338658.298    -5579211.093 8  -4268529.965 9  17338661.064
  17572727.954   -10538885.726 7  -8122429.326 9  17572730.532
  18552625.509   -15553494.621 7 -11972689.933 9  18552628.028
  20179429.587    -6133541.059 6  -4699538.343 9  20179433.501
  19137672.392     1064969.489 6    851530.238 9  19137676.177
  18586421.149   -13424827.500 7 -10336964.999 9  18586424.595
 94  3 24 19 21 29.9890000  0  7  2 18 19 27 28 29 31
  20376665.321    -6816647.630 6  -5130624.820 9  20376670.349
  17337363.048    -5586017.575 8  -4273833.744 9  17337365.837
  17560240.939   -10604505.108 7  -8173561.307 9  17560243.540
  18531950.040   -15662144.553 7 -12057352.190 9  18531952.630
  20177868.728    -6141746.124 6  -4705931.930 9  20177872.220
  19144411.626     1100382.722 6    879124.874 9  19144415.200
  18573954.009   -13490344.639 7 -10388017.293 9  18573957.267
 94  3 24 19 21 59.9890000  0  7  2 18 19 27 28 29 31
  20351708.798    -6947793.990 5  -5232816.704 9  20351713.872
  17336173.759    -5592267.972 8  -4278704.220 9  17336176.419
  17547791.462   -10669928.102 7  -8224540.262 9  17547794.064
  18511301.134   -15770654.334 7 -12141905.250 9  18511303.712
  20176406.235    -6149431.560 6  -4711920.601 9  20176409.950
  19151216.845     1136145.374 6    906991.790 9  19151220.595
  18561596.345   -13555284.309 7 -10438619.608 9  18561599.732
 94  3 24 19 22 29.9890000  0  7  2 18 19 27 28 29 31
  20326803.525    -7078671.586 6  -5334799.130 9  20326809.056
  17335091.712    -5597953.988 8  -4283134.918 9  17335094.407
  17535378.814   -10735157.181 7  -8275368.108 9  17535381.345
  18490680.298   -15879018.369 7 -12226344.737 9  18490682.888
  20175039.829    -6156608.024 6  -4717512.654 9  20175043.720
  19158087.228     1172248.314 6    935123.852 9  19158091.200
  18549348.314   -13619647.967 7 -10488773.081 9  18549351.524
 94  3 24 19 22 59.9890000  0  7  2 18 19 27 28 29 31
  20301946.400    -7209295.774 5  -5436584.135 9  20301951.321
  17334112.790    -5603097.753 8  -4287143.065 9  17334115.286
  17523003.806   -10800186.204 7  -8326040.072 9  17523006.524
  18470090.657   -15987218.008 7 -12310656.125 9  18470093.446
  20173772.493    -6163273.789 6  -4722706.785 9  20173776.173
  19165020.978     1208685.265 6    963516.195 9  19165024.751
  18537214.806   -13683409.736 7 -10538457.555 9  18537218.216
 94  3 24 19 23 29.9890000  0  7  2 18 19 27 28 29 31
  20277135.712    -7339676.054 6  -5538179.058 9  20277140.892
  17333232.376    -5607723.744 8  -4290747.757 9  17333234.978
  17510668.610   -10865009.893 7  -8376552.033 9  17510671.189
  18449532.993   -16095248.821 7 -12394835.960 9  18449535.454
  20172600.845    -6169428.903 6  -4727502.990 9  20172604.771
  19172016.962     1245448.911 6    992163.090 9  19172020.829
  18525198.837   -13746553.998 7 -10587660.840 9  18525202.001
 94  3 24 19 23 59.9890000  0  7  2 18 19 27 28 29 31
  20252372.032    -7469812.810 6  -5639584.224 9  20252377.306
  17332447.079    -5611853.250 8  -4293965.586 9  17332449.692
  17498375.814   -10929607.361 7  -8426887.721 9  17498378.497
  18429007.993   -16203107.673 7 -12478881.802 9  18429010.478
  20171526.485    -6175070.661 6  -4731899.184 9  20171530.024
  19179077.337     1282552.107 6   1021074.573 9  19179081.521
  18513299.782   -13809083.684 7 -10636385.249 9  18513303.028
 94  3 24 19 24 29.9890000  0  7  2 18 19 27 28 29 31
  20227653.814    -7599706.177 6  -5740799.750 9  20227659.064
  17331752.009    -5615505.005 8  -4296811.142 9  17331754.634
  17486129.884   -10993961.771 7  -8477034.013 9  17486132.509
  18408511.165   -16310819.515 7 -12562813.089 9  18408513.720
  20170554.689    -6180180.280 6  -4735880.730 9  20170558.415
  19186199.985     1319980.871 6   1050239.744 9  19186203.817
  18501519.899   -13870987.431 7 -10684621.909 9  18501523.028
 94  3 24 19 24 59.9890000  0  7  2 18 19 27 28 29 31
  20202981.189    -7729361.305 6  -5841829.641 9  20202986.567
  17331146.642    -5618685.577 8  -4299289.545 9  17331149.407
  17473931.876   -11058061.948 7  -8526982.206 9  17473934.618
  18388037.774   -16418408.148 7 -12646648.364 9  18388040.552
  20169688.821    -6184731.564 6  -4739427.197 9  20169692.466
  19193381.907     1357722.861 6   1079648.980 9  19193386.150
  18489858.189   -13932269.959 7 -10732374.499 9  18489861.177
 94  3 24 19 25 29.9890000  0  7  2 18 19 27 28 29 31
  20178353.040    -7858780.151 6  -5942675.405 9  20178358.571
  17330634.243    -5621377.865 7  -4301387.474 9  17330636.997
  17461779.642   -11121922.625 7  -8576743.774 9  17461782.243
  18367582.501   -16525901.726 7 -12730409.573 9  18367585.173
  20168930.642    -6188715.340 6  -4742531.454 9  20168934.392
  19200624.446     1395779.833 6   1109303.659 9  19200628.513
  18478310.110   -13992955.647 7 -10779662.014 9  18478313.146
 94  3 24 19 25 59.9890000  0  7  2 18 19 27 28 29 31
  20153770.962    -7987962.679 6  -6043337.027 9  20153776.517
  17330219.290    -5623559.350 7  -4303087.367 9  17330222.173
  17449669.970   -11185559.300 7  -8626330.793 9  17449672.583
  18347145.774   -16633296.965 7 -12814094.162 9  18347148.388
  20168280.157    -6192136.460 6  -4745197.275 9  20168283.415
  19207926.618     1434153.305 6   1139204.965 9  19207930.603
  18466874.134   -14053051.983 7 -10826490.302 9  18466877.228
 94  3 24 19 26 29.9890000  0  7  2 18 19 27 28 29 31
  20129232.431    -8116911.484 6  -6143816.536 9  20129237.692
  17329904.282    -5625213.794 7  -4304376.569 9  17329907.294
  17437598.525   -11248996.415 7  -8675762.312 9  17437601.056
  18326729.376   -16740586.116 7 -12897696.075 9  18326731.907
  20167735.626    -6194997.109 6  -4747426.367 9  20167739.095
  19215288.462     1472841.428 6   1169351.452 9  19215292.669
  18455552.181   -14112549.451 7 -10872851.940 9  18455555.321
 94  3 24 19 26 59.9890000  0  7  2 18 19 27 28 29 31
  20104739.423    -8245621.775 6  -6244110.190 9  20104744.966
  17329692.892    -5626325.549 7  -4305242.891 9  17329695.810
  17425560.571   -11312255.632 7  -8725055.204 9  17425563.208
  18306338.954   -16847736.943 7 -12981190.207 9  18306341.661
  20167293.759    -6197318.642 6  -4749235.374 9  20167297.392
  19222712.032     1511849.945 6   1199747.601 9  19222716.345
  18444346.759   -14171434.987 7 -10918736.746 9  18444350.005
 94  3 24 19 27 29.9890000  0  7  2 18 19 27 28 29 31
  20080295.400    -8374076.277 6  -6344204.547 9  20080300.427
  17329586.228    -5626886.506 7  -4305680.026 9  17329589.228
  17413555.962   -11375340.694 7  -8774212.392 9  17413558.540
  18285979.321   -16954729.417 7 -13064560.958 9  18285981.759
  20166950.446    -6199123.309 6  -4750641.623 9  20166954.185
  19230198.704     1551192.240 6   1230403.829 9  19230202.454
  18433259.712   -14229695.816 7 -10964134.772 9  18433262.958
 94  3 24 19 27 59.9890000  0  7  2 18 19 27 28 29 31
  20055900.009    -8502274.881 6  -6444099.480 9  20055905.224
  17329580.243    -5626918.541 7  -4305705.028 9  17329583.173
  17401584.626   -11438250.711 7  -8823233.176 9  17401587.251
  18265651.251   -17061552.553 7 -13147799.747 9  18265653.864
  20166701.282    -6200429.294 6  -4751659.280 9  20166704.939
  19237747.618     1590862.024 6   1261315.262 9  19237751.825
  18422295.446   -14287313.798 7 -11009031.878 9  18422298.763
 94  3 24 19 28 29.9890000  0  7  2 18 19 27 28 29 31
  20031551.704    -8630224.425 6  -6543800.363 9  20031557.294
  17329668.712    -5626453.867 7  -4305342.981 9  17329671.759
  17389647.743   -11500978.842 7  -8872112.235 9  17389650.274
  18245353.728   -17168219.284 7 -13230916.657 9  18245356.411
  20166546.360    -6201246.430 6  -4752296.034 9  20166550.298
  19245355.564     1630842.038 6   1292468.418 9  19245359.853
  18411455.931   -14344276.166 7 -11053418.122 9  18411459.060
 94  3 24 19 28 59.9880000  0  7  2 18 19 27 28 29 31
  20007253.496    -8757913.794 6  -6643298.503 9  20007259.016
  17329851.098    -5625495.987 7  -4304596.618 9  17329854.156
  17377752.285   -11563489.507 7  -8920821.843 9  17377754.969
  18225085.551   -17274726.351 7 -13313909.163 9  18225087.977
  20166484.707    -6201569.921 6  -4752548.120 9  20166488.422
  19253022.567     1671131.668 6   1323862.840 9  19253026.867
  18400740.317   -14400586.808 7 -11097296.519 9  18400743.598
 94  3 24 19 29 29.9880000  0  7  2 18 19 27 28 29 31
  19982999.738    -8885367.736 6  -6742613.186 9  19983005.352
  17330122.551    -5624068.160 7  -4303484.061 9  17330125.527
  17365901.184   -11625767.435 7  -8969350.095 9  17365903.820
  18204844.660   -17381094.484 7 -13396793.399 9  18204847.051
  20166518.949    -6201389.738 6  -4752407.754 9  20166522.969
  19260750.356     1711740.746 6   1355506.189 9  19260754.469
  18390144.387   -14456268.446 7 -11140684.786 9  18390147.633
 94  3 24 19 29 59.9880000  0  7  2 18 19 27 28 29 31
  19958788.551    -9012599.739 6  -6841754.950 9  19958793.754
  17330481.067    -5622184.042 7  -4302015.950 9  17330483.961
  17354094.988   -11687810.037 7  -9017694.976 9  17354097.578
  18184631.121   -17487317.755 7 -13479564.760 9  18184633.594
  20166649.270    -6200707.962 6  -4751876.532 9  20166652.492
  19268537.934     1752665.686 6   1387395.655 9  19268542.469
  18379667.441   -14511326.342 7 -11183587.022 9  18379670.770
 94  3 24 19 30 29.9880000  0  7  2 18 19 27 28 29 31
  19934619.051    -9139609.297 6  -6940723.362 9  19934624.395
  17330929.277    -5619830.284 7  -4300181.889 9  17330932.149
  17342334.613   -11749611.805 7  -9065852.201 9  17342337.320
  18164446.301   -17593389.033 7 -13562217.686 9  18164448.879
  20166874.801    -6199520.653 6  -4750951.375 9  20166878.586
  19276384.074     1793895.709 6   1419522.852 9  19276388.727
  18369304.059   -14565785.150 7 -11226022.433 9  18369307.223
 94  3 24 19 30 59.9880000  0  7  2 18 19 27 28 29 31
  19910480.957    -9266457.200 6  -7039565.819 9  19910486.289
  17331456.715    -5617058.313 7  -4298021.954 9  17331459.527
  17330605.801   -11811246.178 7  -9113878.985 9  17330608.356
  18144280.770   -17699359.853 7 -13644792.336 9  18144283.301
  20167186.457    -6197882.725 6  -4749675.088 9  20167190.512
  19284277.832     1835379.445 6   1451847.744 9  19284282.859
  18359039.043   -14619727.864 7 -11268055.690 9  18359042.453
 94  3 24 19 31 29.9880000  0  7  2 18 19 27 28 29 31
  19886387.574    -9393065.982 6  -7138221.943 9  19886392.754
  17332077.574    -5613796.296 7  -4295480.167 9  17332080.434
  17318919.121   -11872661.391 7  -9161734.994 9  17318921.641
  18124147.684   -17805158.277 7 -13727232.647 9  18124150.004
  20167597.066    -6195725.234 6  -4747993.958 9  20167600.723
  19292232.481     1877178.365 6   1484418.214 9  19292236.969
  18348890.066   -14673061.336 7 -11309614.226 9  18348893.324
 94  3 24 19 31 59.9880000  0  7  2 18 19 27 28 29 31
  19862343.137    -9519419.854 6  -7236679.448 9  19862348.656
  17332792.566    -5610038.016 7  -4292551.677 9  17332795.438
  17307271.082   -11933872.669 7  -9209432.093 9  17307273.707
  18104045.981   -17910794.097 7 -13809546.258 9  18104048.383
  20168102.551    -6193066.991 6  -4745922.623 9  20168106.195
  19300240.824     1919263.450 6   1517211.695 9  19300245.570
  18338859.152   -14725774.315 7 -11350689.267 9  18338862.457
 94  3 24 19 32 29.9880000  0  7  2 18 19 27 28 29 31
  19838351.051    -9645498.710 6  -7334922.648 9  19838356.664
  17333604.449    -5605771.541 7  -4289227.178 9  17333607.262
  17295661.231   -11994881.171 7  -9256971.184 9  17295663.891
  18083971.895   -18016285.070 7 -13891746.998 9  18083974.344
  20168706.637    -6189895.100 6  -4743451.047 9  20168710.387
  19308302.027     1961624.828 6   1550220.452 9  19308306.645
  18328948.246   -14777857.367 7 -11391273.445 9  18328951.598
 94  3 24 19 32 59.9880000  0  7  2 18 19 27 28 29 31
  19814409.129    -9771313.487 6  -7432960.059 9  19814413.840
  17334507.707    -5601026.109 7  -4285529.471 9  17334510.520
  17284087.277   -12055703.420 7  -9304365.141 9  17284089.867
  18063920.410   -18121656.419 7 -13973854.530 9  18063922.719
  20169405.965    -6186219.727 6  -4740587.152 9  20169409.703
  19316416.551     2004265.905 6   1583447.152 9  19316420.852
  18319158.270   -14829303.403 7 -11431361.252 9  18319161.586
 94  3 24 19 33 29.9880000  0  7  2 18 19 27 28 29 31
  19790515.699    -9896875.736 6  -7530800.701 9  19790521.090
  17335499.981    -5595812.923 7  -4281467.297 9  17335502.664
  17272549.481   -12116335.227 7  -9351610.706 9  17272552.152
  18043889.442   -18226918.868 7 -14055877.204 9  18043891.738
  20170196.082    -6182067.152 6  -4737351.410 9  20170200.242
  19324582.801     2047178.257 6   1616885.242 9  19324587.453
  18309490.699   -14880106.068 7 -11470947.732 9  18309494.016
 94  3 24 19 33 59.9880000  0  7  2 18 19 27 28 29 31
  19766668.918   -10022190.793 6  -7628448.722 9  19766674.719
  17336585.176    -5590109.795 8  -4277023.326 9  17336587.813
  17261051.449   -12176757.919 7  -9398693.325 9  17261054.133
  18023881.598   -18332060.488 7 -14137805.722 9  18023884.070
  20171079.926    -6177419.859 6  -4733730.169 9  20171083.875
  19332806.996     2090396.689 6   1650561.838 9  19332811.262
  18299944.238   -14930273.511 7 -11510039.230 9  18299947.531
 94  3 24 19 34 29.9880000  0  7  2 18 19 27 28 29 31
  19742866.160   -10147275.013 6  -7725916.878 9  19742871.445
  17337764.293    -5583912.668 8  -4272194.415 9  17337766.848
  17249593.035   -12236971.324 7  -9445612.863 9  17249595.695
  18003898.199   -18437074.287 7 -14219634.642 9  18003900.613
  20172061.254    -6172267.375 6  -4729715.273 9  20172064.840
  19341092.363     2133935.048 6   1684487.711 9  19341096.945
  18290515.832   -14979819.536 7 -11548646.507 9  18290519.125
 94  3 24 19 34 59.9880000  0  7  2 18 19 27 28 29 31
  19719104.168   -10272146.080 6  -7823218.933 9  19719109.184
  17339036.965    -5577226.793 8  -4266984.672 9  17339039.567
  17238174.496   -12296975.855 7  -9492369.639 9  17238177.156
  17983941.785   -18541945.941 7 -14301352.803 9  17983944.270
  20173133.738    -6166627.415 6  -4725320.525 9  20173137.512
  19349437.957     2177790.091 6   1718660.362 9  19349442.317
  18281204.402   -15028751.692 7 -11586775.455 9  18281207.578
 94  3 24 19 35 29.9880000  0  7  2 18 19 27 28 29 31
  19695385.879   -10396784.878 6  -7920339.996 9  19695391.059
  17340407.848    -5570023.408 8  -4261371.684 9  17340410.426
  17226797.887   -12356761.865 7  -9538956.141 9  17226800.512
  17964016.004   -18646656.853 7 -14382945.702 9  17964018.418
  20174301.817    -6160496.968 6  -4720543.576 9  20174305.145
  19357841.238     2221950.665 6   1753071.087 9  19357845.305
  18272009.660   -15077070.924 7 -11624426.792 9  18272012.848
 94  3 24 19 35 59.9880000  0  7  2 18 19 27 28 29 31
  19671716.902   -10521166.657 6  -8017260.791 9  19671722.000
  17341876.817    -5562303.329 8  -4255356.085 9  17341879.359
  17215461.707   -12416333.921 7  -9585375.928 9  17215464.356
  17944122.004   -18751199.282 7 -14464407.321 9  17944124.477
  20175565.441    -6153852.273 6  -4715365.933 9  20175569.156
  19366300.770     2266405.792 6   1787711.337 9  19366305.035
  18262930.512   -15124781.780 7 -11661604.076 9  18262933.793
 94  3 24 19 36 29.9880000  0  7  2 18 19 27 28 29 31
  19648100.270   -10645272.742 6  -8113966.758 9  19648105.426
  17343440.957    -5554083.086 8  -4248950.737 9  17343443.488
  17204165.692   -12475694.342 7  -9631630.801 9  17204168.328
  17924261.395   -18855566.634 7 -14545732.515 9  17924264.055
  20176925.707    -6146704.334 6  -4709796.138 9  20176928.918
  19374811.777     2311129.710 6   1822561.011 9  19374815.996
  18253968.004   -15171879.945 7 -11698303.933 9  18253971.320
 94  3 24 19 36 59.9880000  0  7  2 18 19 27 28 29 31
  19624536.199   -10769100.899 6  -8210456.161 9  19624541.449
  17345096.379    -5545383.766 8  -4242172.084 9  17345098.945
  17192910.059   -12534843.396 7  -9677720.977 9  17192912.695
  17904434.098   -18959761.714 7 -14626923.470 9  17904436.629
  20178377.559    -6139072.413 5  -4703849.209 9  20178381.543
  19383372.496     2356117.200 6   1857616.081 9  19383376.996
  18245123.481   -15218358.228 7 -11734520.776 9  18245126.703
 94  3 24 19 37 29.9880000  0  7  2 18 19 27 28 29 31
  19601025.145   -10892652.969 6  -8306730.421 9  19601030.137
  17346841.129    -5536215.203 7  -4235027.776 9  17346843.754
  17181692.535   -12593791.212 7  -9723654.342 9  17181695.066
  17884638.824   -19063784.886 7 -14707980.472 9  17884641.414
  20179921.434    -6130958.978 5  -4697527.092 9  20179925.031
  19391983.481     2401365.587 6   1892874.445 9  19391987.817
  18236395.481   -15264223.608 7 -11770260.024 9  18236398.809
 94  3 24 19 37 59.9880000  0  7  2 18 19 27 28 29 31
  19577562.770   -11015951.112 6  -8402806.824 9  19577567.902
  17348673.192    -5526588.380 8  -4227526.390 9  17348675.758
  17170515.363   -12652528.650 7  -9769423.776 9  17170517.883
  17864875.559   -19167640.191 7 -14788906.668 9  17864878.160
  20181556.871    -6122367.041 6  -4690832.104 9  20181560.387
  19400644.262     2446878.770 6   1928339.130 9  19400648.891
  18227785.410   -15309470.553 7 -11805517.376 9  18227788.703
 94  3 24 19 38 29.9880000  0  7  2 18 19 27 28 29 31
  19554144.879   -11139012.688 6  -8498698.892 9  19554149.543
  17350594.356    -5516491.839 7  -4219658.998 9  17350597.074
  17159379.723   -12711045.205 7  -9815021.096 9  17159382.395
  17845144.973   -19271327.718 7 -14869702.129 9  17845147.574
  20183280.551    -6113308.018 6  -4683773.169 9  20183284.324
  19409356.442     2492662.403 6   1964014.563 9  19409360.883
  18219293.004   -15354098.326 7 -11840292.269 9  18219296.356
 94  3 24 19 38 59.9880000  0  7  2 18 19 27 28 29 31
  19530771.207   -11261841.226 6  -8594409.376 9  19530775.766
  17352606.957    -5505915.936 7  -4211418.081 9  17352609.676
  17148288.074   -12769333.097 7  -9860440.238 9  17148290.676
  17825445.137   -19374849.400 7 -14950368.364 9  17825447.902
  20185094.684    -6103778.429 5  -4676347.550 9  20185098.106
  19418119.762     2538713.755 6   1999898.579 9  19418124.649
  18210918.879   -15398104.326 7 -11874582.654 9  18210922.231
 94  3 24 19 39 29.9880000  0  7  2 18 19 27 28 29 31
  19507443.090   -11384429.024 6  -8689932.267 9  19507447.965
  17354712.395    -5494852.611 7  -4202797.353 9  17354715.301
  17137241.340   -12827384.482 7  -9905675.082 9  17137243.953
  17805775.981   -19478211.599 7 -15030910.323 9  17805778.617
  20186998.817    -6093769.966 6  -4668548.791 9  20187002.625
  19426932.520     2585026.471 6   2035986.286 9  19426937.711
  18202662.262   -15441494.554 7 -11908393.220 9  18202665.649
 94  3 24 19 39 59.9880000  0  7  2 18 19 27 28 29 31
  19484162.121   -11506769.310 6  -8785262.292 9  19484166.973
  17356910.824    -5483298.915 7  -4193794.521 9  17356913.719
  17126241.051   -12885192.192 7  -9950720.050 9  17126243.734
  17786135.520   -19581424.201 7 -15111335.713 9  17786138.121
  20188993.895    -6083286.506 6  -4660379.896 9  20188997.340
  19435794.449     2631594.253 6   2072272.719 9  19435799.359
  18194522.488   -15484268.974 7 -11941723.935 9  18194525.817
 94  3 24 19 40 29.9880000  0  7  2 18 19 27 28 29 31
  19460930.527   -11628853.917 6  -8880393.087 9  19460935.133
  17359200.402    -5471266.975 7  -4184419.034 9  17359203.320
  17115283.715   -12942772.550 7  -9995587.857 9  17115286.305
  17766521.387   -19684496.990 7 -15191652.159 9  17766524.164
  20191078.106    -6072334.163 6  -4651845.652 9  20191081.961
  19444703.738     2678411.690 6   2108753.699 9  19444708.707
  18186498.832   -15526432.000 7 -11974578.240 9  18186502.090
 94  3 24 19 40 59.9880000  0  7  2 18 19 27 28 29 31
  19437747.957   -11750680.501 6  -8975322.816 9  19437752.586
  17361578.207    -5458772.768 7  -4174683.333 9  17361581.172
  17104368.293   -13000131.642 7 -10040283.267 9  17104371.070
  17746933.270   -19787431.198 7 -15271860.623 9  17746935.859
  20193250.512    -6060916.029 6  -4642948.446 9  20193254.016
  19453659.184     2725473.681 6   2145425.235 9  19453664.551
  18178594.301   -15567970.500 7 -12006945.898 9  18178597.629
 94  3 24 19 41 29.9880000  0  7  2 18 19 27 28 29 31
  19414614.074   -11872250.119 6  -9070052.334 9  19414618.891
  17364043.137    -5445817.875 7  -4164588.661 9  17364046.137
  17093495.481   -13057270.835 7 -10084807.318 9  17093498.176
  17727373.387   -19890220.222 7 -15351955.954 9  17727376.234
  20195512.926    -6049028.000 6  -4633685.083 9  20195516.582
  19462664.785     2772797.825 6   2182301.028 9  19462670.281
  18170809.793   -15608878.265 7 -12038822.082 9  18170813.262
 94  3 24 19 41 59.9880000  0  7  2 18 19 27 28 29 31
  19391529.434   -11993558.912 6  -9164578.604 9  19391534.180
  17366598.027    -5432392.220 7  -4154127.156 9  17366601.004
  17082664.121   -13114189.696 7 -10129159.674 9  17082666.723
  17707842.535   -19992855.916 7 -15431931.805 9  17707845.266
  20197866.363    -6036660.161 6  -4624047.844 9  20197870.149
  19471721.418     2820390.891 6   2219386.387 9  19471726.246
  18163148.481   -15649139.058 7 -12070194.122 9  18163151.715
 94  3 24 19 42 29.9880000  0  7  2 18 19 27 28 29 31
  19368494.504   -12114607.435 6  -9258902.076 9  19368498.992
  17369239.856    -5418510.629 7  -4143310.369 9  17369242.961
  17071874.395   -13170889.542 7 -10173341.378 9  17071877.125
  17688342.012   -20095330.630 7 -15511782.221 9  17688344.766
  20200311.277    -6023816.145 6  -4614039.574 9  20200314.887
  19480831.465     2868262.382 6   2256688.711 9  19480836.551
  18155611.067   -15688748.575 7 -12101058.683 9  18155614.266
 94  3 24 19 42 59.9880000  0  7  2 18 19 27 28 29 31
  19345510.637   -12235391.066 6  -9353019.121 9  19345515.055
  17371968.684    -5404170.791 7  -4132136.505 9  17371971.695
  17061127.246   -13227366.673 7 -10217349.527 9  17061129.895
  17668873.746   -20197637.009 7 -15591501.466 9  17668876.371
  20202844.621    -6010499.520 6  -4603663.034 9  20202848.465
  19489994.918     2916416.362 6   2294211.152 9  19490000.461
  18148197.801   -15727705.991 7 -12131415.103 9  18148200.930
 94  3 24 19 43 29.9880000  0  7  2 18 19 27 28 29 31
  19322576.910   -12355905.905 6  -9446926.728 9  19322581.164
  17374783.840    -5389377.931 7  -4120609.648 9  17374786.875
  17050421.965   -13283622.992 7 -10261185.620 9  17050424.531
  17649436.074   -20299784.301 7 -15671096.739 9  17649438.828
  20205466.442    -5996723.122 6  -4592928.223 9  20205470.051
  19499212.410     2964854.030 6   2331954.633 9  19499217.602
  18140905.754   -15766026.393 7 -12161275.162 9  18140908.918
 94  3 24 19 43 59.9880000  0  7  2 18 19 27 28 29 31
  19299695.816   -12476147.155 6  -9540621.159 9  19299700.352
  17377683.020    -5374141.219 7  -4108736.941 9  17377685.996
  17039758.762   -13339660.137 7 -10304850.931 9  17039761.445
  17630028.410   -20401772.161 7 -15750567.796 9  17630031.012
  20208174.535    -5982490.446 5  -4581837.877 9  20208178.402
  19508481.973     3013566.876 6   2369912.544 9  19508486.871
  18133732.129   -15803724.714 7 -12190650.476 9  18133735.270
 94  3 24 19 44 29.9870000  0  8  2 16 18 19 27 28 29 31
  19276866.124   -12596117.687 6  -9634104.642 9  19276870.542
  20620160.819      -12460.02615
  17380666.741    -5358462.949 7  -4096520.164 9  17380669.730
  17029137.827   -13395472.309 7 -10348340.939 9  17029140.593
  17610654.218   -20503583.157 7 -15829901.023 9  17610656.855
  20210968.734    -5967807.519 5  -4570396.685 9  20210972.366
  19517804.335     3062552.924 6   2408083.332 9  19517809.526
  18126673.687   -15840818.013 7 -12219554.342 9  18126676.991
 94  3 24 19 44 59.9870000  0  8  2 16 18 19 27 28 29 31
  19254085.944   -12715829.209 6  -9727386.296 9  19254090.526
  20605986.499      -86937.969 5
  17383738.398    -5342321.037 7  -4083942.096 9  17383741.386
  17018560.648   -13451055.405 7 -10391652.447 9  17018563.331
  17591312.538   -20605224.364 7 -15909101.958 9  17591315.105
  20213848.468    -5952675.954 5  -4558605.888 9  20213851.679
  19527175.679     3111798.926 6   2446456.667 9  19527180.847
  18119725.648   -15877328.831 7 -12248004.333 9  18119728.765
 94  3 24 19 45 29.9870000  0  8  2 16 18 19 27 28 29 31
  19231355.718   -12835278.884 6  -9820463.910 9  19231360.007
  20591912.905     -160906.085 5    -34534.05819  20591917.030
  17386900.804    -5325703.402 7  -4070993.330 9  17386903.745
  17008028.976   -13506400.283 7 -10434778.328 9  17008031.659
  17572005.319   -20706683.647 7 -15988161.128 9  17572007.780
  20216814.265    -5937088.587 5  -4546459.935 9  20216817.851
  19536593.858     3161291.357 6   2485022.028 9  19536598.698
  18112887.773   -15913262.450 7 -12276004.552 9  18112890.878
 94  3 24 19 45 59.9870000  0  8  2 16 18 19 27 28 29 31
  19208672.569   -12954476.084 6  -9913344.800 9  19208677.198
  20577933.132     -234365.411 5    -91775.102 9  20577938.546
  17390154.757    -5308603.343 7  -4057668.660 9  17390157.886
  16997541.023   -13561515.579 7 -10477725.318 9  16997543.659
  17552734.069   -20807955.599 7 -16067074.325 9  17552736.636
  20219869.765    -5921034.318 6  -4533950.144 9  20219873.562
  19546057.812     3211021.948 6   2523772.977 9  19546062.710
  18106158.663   -15948622.968 7 -12303558.201 9  18106161.827
 94  3 24 19 46 29.9870000  0  8  2 16 18 19 27 28 29 31
  19186038.843   -13073417.350 6 -10006026.252 9  19186043.226
  20564052.796     -307303.996 5   -148610.394 9  20564057.788
  17393502.718    -5291010.388 7  -4043959.903 9  17393505.812
  16987098.062   -13616393.093 7 -10520487.023 9  16987100.757
  17533498.585   -20909039.305 7 -16145840.839 9  17533500.941
  20223012.640    -5904518.492 5  -4521080.721 9  20223016.542
  19555565.991     3260987.311 6   2562706.857 9  19555570.515
  18099544.030   -15983383.547 7 -12330644.364 9  18099547.218
 94  3 24 19 46 59.9870000  0  8  2 16 18 19 27 28 29 31
  19163453.655   -13192103.280 6 -10098508.746 9  19163457.991
  20550274.749     -379715.397 5   -205034.901 9  20550279.636
  17396941.444    -5272938.821 7  -4029878.210 9  17396944.702
  16976698.585   -13671043.941 7 -10563072.107 9  16976701.198
  17514295.702   -21009951.357 7 -16224473.592 9  17514298.198
  20226242.562    -5887548.100 5  -4507857.087 9  20226246.710
  19565114.788     3311167.838 6   2601808.410 9  19565120.097
  18093047.577   -16017523.621 7 -12357247.025 9  18093050.694
 94  3 24 19 47 29.9870000  0  8  2 16 18 19 27 28 29 31
  19140916.944   -13310533.803 6 -10190792.228 9  19140921.526
  20536597.851     -451584.210 5   -261036.586 9  20536603.335
  17400466.054    -5254416.314 7  -4015445.137 9  17400469.370
  16966339.413   -13725481.067 7 -10605490.650 9  16966342.073
  17495125.304   -21110692.715 7 -16302973.341 9  17495127.718
  20229559.304    -5870115.270 5  -4494273.109 9  20229563.780
  19574706.812     3361574.614 6   2641086.241 9  19574711.944
  18086672.124   -16051025.061 7 -12383352.046 9  18086675.405
 94  3 24 19 47 59.9870000  0  8  2 16 18 19 27 28 29 31
  19118429.202   -13428707.196 6 -10282875.338 9  19118433.620
  20523025.984     -522909.961 5   -316615.129 9  20523029.089
  17404071.202    -5235472.372 7  -4000683.666 9  17404074.730
  16956022.194   -13779697.468 7 -10647737.201 9  16956025.030
  17475984.343   -21211277.577 7 -16381351.142 9  17475986.851
  20232961.312    -5852239.385 5  -4480343.883 9  20232965.683
  19584341.577     3412204.443 6   2680537.894 9  19584346.499
  18080418.655   -16083887.347 7 -12408959.016 9  18080421.831
 94  3 24 19 48 29.9870000  0  8  2 16 18 19 27 28 29 31
  19095993.116   -13546609.607 6 -10374747.304 9  19095997.991
  20509557.366     -593684.653 5   -371764.272 9  20509561.292
  17407756.296    -5216105.126 7  -3985592.347 9  17407759.823
  16945750.265   -13833677.249 8 -10689799.371 9  16945753.054
  17456874.476   -21311701.194 7 -16459603.301 9  17456876.890
  20236444.632    -5833930.499 5  -4466077.277 9  20236449.144
  19594018.007     3463053.249 5   2720160.166 9  19594023.198
  18074289.109   -16116098.086 7 -12434058.297 9  18074292.202
 94  3 24 19 48 59.9870000  0  8  2 16 18 19 27 28 29 31
  19073609.640   -13664235.044 6 -10466403.439 9  19073614.257
  20496194.265     -663910.123 5   -426485.423 9  20496198.109
  17411519.874    -5196327.491 7  -3970181.248 9  17411523.788
  16935523.374   -13887420.635 8 -10731677.344 9  16935526.046
  17437796.257   -21411958.243 7 -16537725.667 9  17437798.601
  20240011.913    -5815186.335 5  -4451471.481 9  20240015.640
  19603735.944     3514121.047 5   2759953.059 9  19603741.101
  18068279.046   -16147682.631 7 -12458669.632 9  18068282.187
 94  3 24 19 49 29.9870000  0  8  2 16 18 19 27 28 29 31
  19051283.694   -13781559.161 6 -10557824.782 9  19051288.089
  20482934.960     -733584.842 4   -480777.417 8  20482940.151
  17415363.874    -5176127.755 7  -3954441.249 9  17415367.659
  16925344.351   -13940912.031 8 -10773358.958 9  16925347.081
  17418752.382   -21512034.775 7 -16615707.366 9  17418754.667
  20243662.491    -5796005.129 5  -4436525.122 9  20243666.312
  19613499.773     3565430.683 6   2799934.444 9  19613504.366
  18062387.390   -16178642.684 7 -12482794.349 9  18062390.401
 94  3 24 19 49 59.9870000  0  8  2 16 18 19 27 28 29 31
  19029016.796   -13898573.896 6 -10649005.045 9  19029021.425
  20469777.819     -802721.226 3   -534649.933 9  20469783.585
  17419293.757    -5155476.184 7  -3938349.182 9  17419297.507
  16915213.991   -13994147.420 7 -10814841.088 9  16915216.710
  17399743.069   -21611929.341 7 -16693547.280 9  17399745.448
  20247394.741    -5776389.037 5  -4421239.898 9  20247398.163
  19623310.312     3616982.797 5   2840104.727 9  19623315.257
  18056616.038   -16208971.797 7 -12506427.425 9  18056619.191
 94  3 24 19 50 29.9870000  0  8  2 16 18 19 27 28 29 31
  19006805.023   -14015295.095 6 -10739956.581 9  19006809.898
  20456723.101     -871328.500 4   -588110.176 9  20456727.952
  17423311.491    -5134362.818 7  -3921897.256 9  17423315.312
  16905127.054   -14047154.996 8 -10856145.694 9  16905129.808
  17380770.859   -21711628.360 7 -16771234.816 9  17380773.155
  20251213.030    -5756325.416 5  -4405605.952 9  20251217.062
  19633165.202     3668773.382 5   2880460.856 9  19633170.898
  18050964.796   -16238669.584 7 -12529568.561 9  18050968.077
 94  3 24 19 50 59.9870000  0  8  2 16 18 19 27 28 29 31
  18984646.288   -14131741.531 6 -10830694.018 9  18984650.718
  20443766.062     -939421.466 4   -641169.569 9  20443771.851
  17427415.069    -5112799.016 7  -3905094.340 9  17427418.784
  16895082.554   -14099938.374 8 -10897275.604 9  16895085.319
  17361835.851   -21811134.841 7 -16848772.325 9  17361838.276
  20255116.484    -5735814.327 5  -4389623.345 9  20255120.702
  19643066.421     3720802.088 5   2921002.529 9  19643073.374
  18045432.648   -16267740.871 7 -12552221.518 9  18045435.776
 94  3 24 19 51 29.9870000  0  8  2 16 18 19 27 28 29 31
  18962535.249   -14247935.688 6 -10921234.877 9  18962539.831
  20430906.046    -1006997.624 5   -693826.322 9  20430911.097
  17431606.030    -5090776.599 7  -3887934.061 9  17431609.569
  16885080.851   -14152498.382 7 -10938231.458 9  16885083.581
  17342934.796   -21910460.119 7 -16926168.640 9  17342937.093
  20259104.093    -5714860.199 5  -4373295.510 9  20259108.499
  19653013.273     3773074.147 5   2961733.827 9  19653019.167
  18040022.710   -16296169.342 7 -12574373.577 9  18040025.780
 94  3 24 19 51 59.9870000  0  8  2 16 18 19 27 28 29 31
  18940465.687   -14363912.118 6 -11011606.071 9  18940470.105
  20418144.921    -1074056.557 5   -746080.055 9  20418151.214
  17435881.429    -5068308.861 7  -3870426.781 9  17435884.804
  16875120.218   -14204841.876 8 -10979018.601 9  16875123.007
  17324066.788   -22009611.646 7 -17003429.562 9  17324069.050
  20263173.069    -5693477.108 5  -4356633.415 9  20263177.370
  19663002.546     3825565.826 5   3002636.251 9  19663008.276
  18034733.038   -16323968.857 7 -12596035.533 9  18034735.874
 94  3 24 19 52 29.9870000  0  8  2 16 18 19 27 28 29 31
  18918436.132   -14479677.440 6 -11101812.774 9  18918440.351
  20405486.562    -1140583.995 5   -797919.629 9  20405491.648
  17440238.616    -5045413.645 7  -3852586.402 9  17440241.956
  16865203.741   -14256953.784 8 -11019625.287 9  16865206.507
  17305234.194   -22108576.809 7 -17080545.269 9  17305236.444
  20267322.007    -5671673.562 5  -4339643.678 9  20267325.827
  19673031.929     3878269.875 5   3043704.177 9  19673038.999
  18029561.249   -16351146.688 7 -12617213.063 9  18029564.144
 94  3 24 19 52 59.9870000  0  8  2 16 18 19 27 28 29 31
  18896449.765   -14595216.675 6 -11191843.298 9  18896453.972
  20392931.155    -1206568.423 5   -849336.080 9  20392935.151
  17444677.718    -5022086.025 7  -3834409.083 9  17444681.069
  16855334.819   -14308814.727 7 -11060036.419 9  16855337.632
  17286435.866   -22207363.876 8 -17157522.201 9  17286438.046
  20271549.694    -5649456.204 5  -4322331.494 9  20271553.644
  19683102.077     3931192.690 5   3084942.528 9  19683108.816
  18024508.679   -16377697.370 7 -12637901.901 9  18024511.503
 94  3 24 19 53 29.9870000  0  8  2 16 18 19 27 28 29 31
  18874510.819   -14710507.406 6 -11281680.186 9  18874515.167
  20380480.366    -1271992.382 5   -900315.794 9  20380484.819
  17449201.515    -4998311.554 7  -3815883.568 9  17449204.972
  16845514.413   -14360421.669 8 -11100249.625 9  16845517.132
  17267672.960   -22305963.590 7 -17234353.143 9  17267675.222
  20275857.327    -5626821.553 5  -4304694.151 9  20275861.546
  19693215.640     3984337.236 5   3126353.640 9  19693221.944
  18019575.288   -16403622.142 7 -12658103.022 9  18019578.230
 94  3 24 19 53 59.9870000  0  8  2 16 18 19 27 28 29 31
  18852622.702   -14825529.622 6 -11371307.850 9  18852626.909
  20368136.569    -1336858.052 5   -950860.521 9  20368141.128
  17453811.085    -4974090.525 7  -3797010.091 9  17453814.612
  16835742.023   -14411777.138 8 -11140266.876 9  16835744.859
  17248949.155   -22404358.609 8 -17311024.582 9  17248951.499
  20280244.038    -5603764.690 5  -4286727.835 9  20280248.468
  19703368.312     4037687.746 5   3167925.287 9  19703375.452
  18014759.124   -16428932.210 7 -12677825.150 9  18014762.042
 94  3 24 19 54 29.9870000  0  8  2 16 18 19 27 28 29 31
  18830789.812   -14940263.734 6 -11460711.014 9  18830794.206
  20355899.733    -1401168.193 5  -1000972.329 9  20355903.542
  17458507.507    -4949410.204 7  -3777778.724 9  17458511.058
  16826018.132   -14462874.983 7 -11180083.385 9  16826020.980
  17230265.046   -22502543.820 7 -17387532.536 9  17230267.273
  20284716.538    -5580268.419 5  -4268419.113 9  20284720.581
  19713559.585     4091245.874 5   3209658.713 9  19713566.761
  18010060.694   -16453622.706 7 -12697064.498 9  18010063.659
 94  3 24 19 54 59.9870000  0  8  2 16 18 19 27 28 29 31
  18809013.155   -15054697.911 6 -11549880.462 9  18809017.667
  20343765.054    -1464928.877 5  -1050656.003 9  20343769.401
  17463292.968    -4924262.688 7  -3758183.297 9  17463296.566
  16816342.835   -14513718.538 7 -11219701.745 9  16816345.659
  17211619.218   -22600527.407 8 -17463883.375 9  17211621.609
  20289271.405    -5556332.652 5  -4249767.909 9  20289274.898
  19723794.437     4145026.156 5   3251565.242 9  19723800.882
  18005481.226   -16477687.704 7 -12715816.449 9  18005483.921
 94  3 24 19 55 29.9870000  0  8  2 16 18 19 27 28 29 31
  18787292.257   -15168844.632 6 -11638825.917 9  18787296.733
  20331735.233    -1528148.076 5  -1099917.744 9  20331739.675
  17468164.898    -4898663.266 7  -3738235.734 9  17468168.472
  16806716.460   -14564306.887 7 -11259121.246 9  16806719.472
  17193013.030   -22698303.965 7 -17540072.893 9  17193015.339
  20293906.015    -5531974.435 5  -4230787.548 9  20293909.859
  19734070.679     4199029.026 5   3293645.218 9  19734077.089
  18001018.335   -16501141.115 7 -12734091.830 9  18001021.101
 94  3 24 19 55 59.9870000  0  8  2 16 18 19 27 28 29 31
  18765621.757   -15282722.339 6 -11727561.751 9  18765626.456
  20319806.210    -1590835.839 5  -1148765.378 9  20319810.874
  17473118.718    -4872629.221 7  -3717949.510 9  17473122.210
  16797137.280   -14614645.311 7 -11298346.001 9  16797140.163
  17174445.085   -22795879.191 7 -17616105.529 9  17174447.546
  20298620.780    -5507202.345 5  -4211484.659 9  20298624.062
  19744387.577     4253243.269 5   3335889.884 9  19744394.859
  17996672.749   -16523976.909 7 -12751885.955 9  17996675.796
 94  3 24 19 56 29.9870000  0  8  2 16 18 19 27 28 29 31
  18744001.296   -15396336.725 6 -11816092.407 9  18744005.925
  20307977.843    -1652999.571 5  -1197204.688 9  20307981.874
  17478152.155    -4846177.350 7  -3697337.705 9  17478155.671
  16787607.234   -14664725.270 7 -11337369.354 9  16787610.245
  17155911.960   -22893269.839 7 -17691994.338 9  17155914.374
  20303409.741    -5482032.884 5  -4191872.150 9  20303413.116
  19754745.952     4307673.136 5   3378302.564 9  19754753.515
  17992445.101   -16546194.606 7 -12769198.442 9  17992447.984
 94  3 24 19 56 59.9870000  0  7  2 16 18 19 27 29 31
  18722431.655   -15509684.486 6 -11904415.301 9  18722436.155
  20296247.679    -1714638.325 5  -1245234.901 9  20296252.882
  17483263.757    -4819316.847 7  -3676407.501 9  17483267.167
  16778124.843   -14714555.548 7 -11376198.147 9  16778127.878
  17137415.538   -22990469.317 7 -17767734.180 9  17137418.163
  19765145.913     4362326.001 5   3420888.962 9  19765152.593
  17988335.632   -16567788.857 7 -12786025.125 9  17988338.433
 94  3 24 19 57 29.9870000  0  7  2 16 18 19 27 29 31
  18700915.319   -15622758.411 6 -11992524.819 9  18700919.362
  20284618.968    -1775747.900 5  -1292852.737 9  20284623.151
  17488451.523    -4792055.043 7  -3655164.595 9  17488455.026
  16768689.983   -14764135.684 7 -11414832.034 9  16768692.983
  17118957.890   -23087465.872 7 -17843315.905 9  17118960.362
  19775584.273     4417176.538 5   3463629.422 9  19775591.448
  17984343.741   -16588766.711 7 -12802371.502 9  17984346.437
 94  3 24 19 57 59.9870000  0  7  2 16 18 19 27 29 31
  18679453.874   -15735535.660 6 -12080403.162 9  18679458.538
  20273091.484    -1836328.792 5  -1340058.677 9  20273095.632
  17493717.382    -4764382.593 7  -3633601.704 9  17493721.085
  16759301.702   -14813472.578 7 -11453276.371 9  16759304.726
  17100537.952   -23184262.675 7 -17918741.973 9  17100540.577
  19786058.538     4472216.891 5   3506517.811 9  19786065.761
  17980469.554   -16609125.174 7 -12818235.244 9  17980472.296
 94  3 24 19 58 29.9870000  0  7  2 16 18 19 27 29 31
  18658054.718   -15847989.872 6 -12168029.784 9  18658059.276
  20261664.023    -1896376.331 5  -1386848.995 9  20261669.085
  17499062.382    -4736294.875 7  -3611715.232 9  17499065.886
  16749959.085   -14862566.781 7 -11491531.607 9  16749962.214
  17082157.359   -23280853.843 7 -17994007.812 9  17082159.925
  19796571.116     4527461.060 5   3549565.011 9  19796578.023
  17976713.741   -16628861.889 7 -12833614.507 9  17976716.495
 94  3 24 19 58 59.9870000  0  7  2 16 18 19 27 29 31
  18636719.499   -15960106.753 6 -12255393.555 9  18636723.964
  20250341.608    -1955875.372 5  -1433211.902 9  20250345.886
  17504489.109    -4707778.103 7  -3589494.429 9  17504492.624
  16740663.085   -14911419.126 7 -11529598.377 9  16740666.108
  17063820.780   -23377213.139 7 -18069092.960 9  17063823.288
  19807125.718     4582922.925 5   3592781.814 9  19807132.859
  17973077.898   -16647968.917 7 -12848503.099 9  17973080.710
 94  3 24 19 59 29.9870000  0  7  2 16 18 19 27 29 31
  18615447.616   -16071890.923 6 -12342498.073 9  18615451.929
  20239126.116    -2014813.358 5  -1479137.615 9  20239130.640
  17509996.983    -4678833.886 7  -3566940.549 9  17510000.675
  16731416.179   -14960011.411 7 -11567462.500 9  16731419.273
  17045528.358   -23473340.599 7 -18143997.457 9  17045531.019
  19817720.882     4638600.748 5   3636166.910 9  19817726.812
  17969561.179   -16666450.210 7 -12862904.113 9  17969564.073
 94  3 24 19 59 59.9860000  0  7  2 16 18 19 27 29 31
  18594236.557   -16183354.782 6 -12429353.005 9  18594241.221
  20228017.752    -2073188.297 5  -1524624.592 9  20228021.045
  17515587.104    -4649457.578 7  -3544049.980 9  17515590.713
  16722219.947   -15008338.364 7 -11605119.870 9  16722222.842
  17027279.416   -23569236.559 7 -18218721.573 9  17027282.018
  19828358.658     4694503.577 5   3679727.330 9  19828365.576
  17966165.854   -16684292.827 7 -12876807.452 9  17966168.713
 94  3 24 20  0 29.9860000  0  7  2 16 18 19 27 29 31
  18573081.924   -16294522.661 6 -12515977.297 9  18573086.377
  20217018.455    -2130989.567 5  -1569664.558 9  20217023.904
  17521261.275    -4619639.969 7  -3520815.531 9  17521264.826
  16713076.565   -15056386.748 7 -11642560.179 9  16713079.623
  17009075.744   -23664899.317 7 -18293263.973 9  17009078.381
  19839040.361     4750635.810 5   3723466.490 9  19839046.830
  17962893.549   -16701487.770 7 -12890206.110 9  17962896.397
 94  3 24 20  0 59.9860000  0  7  2 16 18 19 27 29 31
  18551978.822   -16405419.715 6 -12602390.556 9  18551983.486
  20206128.713    -2188215.918 5  -1614256.542 9  20206133.963
  17527020.822    -4589374.549 7  -3497232.144 9  17527024.338
  16703988.604   -15104144.760 7 -11679774.215 9  16703991.662
  16990916.213   -23760326.796 7 -18367623.036 9  16990918.873
  19849765.041     4806991.082 5   3767379.490 9  19849771.994
  17959741.955   -16718049.426 7 -12903111.306 9  17959744.779
 94  3 24 20  1 29.9860000  0  7  2 16 18 19 27 29 31
  18530925.760   -16516054.888 6 -12688599.752 9  18530930.318
  20195347.619    -2244870.890 5  -1658403.290 9  20195352.412
  17532865.729    -4558658.817 7  -3473297.869 9  17532869.338
  16694956.213   -15151610.568 7 -11716760.565 9  16694959.166
  16972798.291   -23855537.792 7 -18441813.414 9  16972800.928
  19860530.260     4863559.741 5   3811458.715 9  19860537.342
  17956709.541   -16733985.794 7 -12915529.257 9  17956712.576
 94  3 24 20  1 59.9860000  0  7  2 16 18 19 27 29 31
  18509923.385   -16626422.534 6 -12774600.484 9  18509928.037
  20184671.010    -2300969.601 5  -1702116.610 9  20184676.154
  17538797.072    -4527490.246 7  -3449010.737 9  17538800.705
  16685977.096   -15198796.259 7 -11753528.643 9  16685980.096
  16954720.299   -23950539.249 7 -18515840.516 9  16954722.959
  19871335.479     4920343.385 5   3855705.464 9  19871342.877
  17953794.369   -16749303.769 7 -12927465.344 9  17953797.451
 94  3 24 20  2 29.9860000  0  7  2 16 18 19 27 29 31
  18488974.143   -16736512.486 6 -12860384.836 9  18488978.654
  20174104.291    -2356510.720 5  -1745395.414 9  20174110.080
  17544811.971    -4495881.412 7  -3424380.560 9  17544815.662
  16677051.408   -15245701.246 7 -11790077.993 9  16677054.455
  16936681.674   -24045332.657 7 -18589705.497 9  16936684.322
  19882182.463     4977343.429 5   3900120.797 9  19882190.108
  17950993.604   -16764024.070 7 -12938935.723 9  17950996.744
 94  3 24 20  2 59.9860000  0  7  2 16 18 19 27 29 31
  18468081.400   -16846305.505 7 -12945937.801 9  18468085.830
  20163640.690    -2411494.605 5  -1788240.026 9  20163646.537
  17550908.768    -4463841.306 7  -3399414.315 9  17550912.529
  16668177.783   -15292332.200 7 -11826413.807 9  16668180.842
  16918686.432   -24139897.868 7 -18663392.666 9  16918689.080
  19893070.736     5034561.542 5   3944706.095 9  19893078.369
  17948305.080   -16778150.728 7 -12949943.518 9  17948308.233
 94  3 24 20  3 29.9860000  0  7  2 16 18 19 27 29 31
  18447247.979   -16955785.858 6 -13031247.140 9  18447252.420
  20153282.502    -2465923.628 5  -1830652.278 9  20153287.143
  17557084.518    -4431389.426 7  -3374127.176 9  17557088.256
  16659355.854   -15338692.308 7 -11862538.578 9  16659358.971
  16900734.666   -24234234.248 7 -18736901.522 9  16900737.326
  19903996.260     5091976.887 5   3989445.075 9  19904003.119
  17945731.674   -16791674.608 7 -12960481.615 9  17945734.615
 94  3 24 20  3 59.9860000  0  7  2 16 18 19 27 29 31
  18426474.736   -17064950.524 7 -13116310.484 9  18426479.272
  20143029.197    -2519808.424 5  -1872640.472 9  20143034.483
  17563336.236    -4398535.808 7  -3348527.008 9  17563339.963
  16650586.346   -15384776.431 7 -11898448.292 9  16650589.393
  16882829.346   -24328329.124 7 -18810222.199 9  16882831.912
  19914957.275     5149573.956 5   4034325.643 9  19914964.369
  17943274.096   -16804588.410 7 -12970544.330 9  17943277.201
 94  3 24 20  4 29.9860000  0  7  2 16 18 19 27 29 31
  18405760.854   -17173802.686 7 -13201130.319 9  18405765.365
  20132880.065    -2573142.993 5  -1914199.878 9  20132884.858
  17569665.229    -4365276.543 7  -3322610.757 9  17569668.967
  16641869.963   -15430580.707 7 -11934139.942 9  16641873.104
  16864973.088   -24422164.352 7 -18883340.546 9  16864975.701
  19925949.736     5207340.000 5   4079337.888 9  19925956.701
  17940934.440   -16816882.630 7 -12980124.253 9  17940937.686
 94  3 24 20  4 59.9860000  0  7  2 16 18 19 27 29 31
  18385104.369   -17282352.391 7 -13285714.472 9  18385108.822
  20122834.408    -2625936.418 5  -1955337.661 9  20122838.440
  17576072.541    -4331606.156 7  -3296374.141 9  17576076.326
  16633206.963   -15476106.096 7 -11969614.278 9  16633209.998
  16847166.799   -24515737.258 7 -18956254.487 9  16847169.236
  19936973.510     5265267.438 5   4124475.867 9  19936980.815
  17938717.322   -16828535.909 7 -12989204.739 9  17938720.358
 94  3 24 20  5 29.9860000  0  7  2 16 18 19 27 29 31
  18364505.869   -17390598.691 7 -13370062.210 9  18364510.486
  20112889.033    -2678188.884 5  -1996053.878 9  20112893.920
  17582559.432    -4297516.924 7  -3269811.158 9  17582563.205
  16624598.940   -15521340.654 7 -12004861.993 9  16624602.057
  16829405.924   -24609072.172 7 -19028982.978 9  16829408.397
  19948027.127     5323354.739 5   4169738.452 9  19948035.193
  17936623.158   -16839539.829 7 -12997779.237 9  17936626.428
 94  3 24 20  5 59.9860000  0  7  2 16 18 19 27 29 31
  18343962.088   -17498556.520 7 -13454185.171 9  18343966.342
  20103051.002    -2729893.603 5  -2036343.290 9  20103053.861
  17589127.385    -4263001.685 7  -3242916.209 9  17589131.299
  16616043.588   -15566298.085 7 -12039893.766 9  16616046.729
  16811689.518   -24702171.225 7 -19101527.684 9  16811691.979
  19959112.697     5381608.597 5   4215130.806 9  19959121.022
  17934649.971   -16849907.971 7 -13005858.325 9  17934653.182
 94  3 24 20  6 29.9860000  0  7  2 16 18 19 27 29 31
  18323473.002   -17606226.593 7 -13538083.891 9  18323477.373
  20093319.721    -2781032.572 5  -2076191.885 9  20093323.225
  17595776.197    -4228063.271 7  -3215691.519 9  17595780.217
  16607541.158   -15610979.207 7 -12074710.234 9  16607544.334
  16794017.025   -24795040.211 7 -19173893.115 9  16794019.486
  19970233.229     5440046.537 5   4260666.577 9  19970240.721
  17932797.377   -16859643.953 7 -13013444.825 9  17932800.670
 94  3 24 20  6 59.9860000  0  7  2 16 18 19 27 29 31
  18303041.119   -17713596.983 7 -13621749.091 9  18303045.561
  20083696.486    -2831605.948 5  -2115599.727 8  20083702.170
  17602503.502    -4192711.023 7  -3188144.365 9  17602507.533
  16599092.854   -15655375.963 7 -12109305.116 9  16599096.029
  16776385.072   -24887697.182 7 -19246093.341 9  16776387.463
  19981390.361     5498677.574 4   4306352.814 8  19981398.850
  17931063.150   -16868758.115 7 -13020546.786 9  17931066.654
 94  3 24 20  7 29.9860000  0  7  2 16 18 19 27 29 31
  18282666.697   -17820664.103 7 -13705177.975 9  18282671.080
  20074178.033    -2881620.552 5  -2154572.184 9  20074182.440
  17609308.135    -4156952.209 7  -3160280.388 9  17609312.154
  16590698.658   -15699488.068 7 -12143678.187 9  16590701.858
  16758791.924   -24980150.502 7 -19318134.877 9  16758794.197
  19992583.885     5557500.317 4   4352188.410 9  19992590.354
  17929441.158   -16877281.468 7 -13027188.377 9  17929444.557
 94  3 24 20  7 59.9860000  0  7  2 16 18 19 27 29 31
  18262350.143   -17927428.780 7 -13788371.188 9  18262354.584
  20064767.565    -2931083.237 5  -2193114.569 9  20064771.924
  17616189.682    -4120789.410 7  -3132101.627 9  17616193.736
  16582358.283   -15743316.939 7 -12177830.559 9  16582361.389
  16741242.104   -25072375.054 7 -19389998.151 9  16741244.424
  20003818.736     5616532.605 5   4398187.340 9  20003826.557
  17927930.682   -16885219.144 7 -13033373.598 9  17927934.080
 94  3 24 20  8 29.9860000  0  6  2 16 18 19 27 31
  18242091.471   -18033888.279 7 -13871326.591 9  18242096.018
  20055455.244    -2980015.879 5  -2231243.914 9  20055460.178
  17623145.275    -4084238.360 7  -3103620.333 9  17623149.459
  16574074.260   -15786849.997 7 -12211752.429 9  16574077.377
  16723735.604   -25164372.926 7 -19461684.793 9  16723737.924
  17926531.861   -16892569.036 7 -13039100.802 9  17926535.365
 94  3 24 20  8 59.9860000  0  6  2 16 18 19 27 31
  18221890.408   -18140044.324 7 -13954045.540 9  18221895.002
  20046241.690    -3028433.763 5  -2268972.174 9  20046246.436
  17630174.963    -4047297.343 7  -3074835.176 9  17630178.842
  16565846.057   -15830088.305 7 -12245444.618 9  16565849.209
  16706275.432   -25256126.468 7 -19533181.049 9  16706277.705
  17925245.604   -16899330.313 7 -13044369.351 9  17925248.815
 94  3 24 20  9 29.9860000  0  6  2 16 18 19 27 31
  18201744.588   -18245912.612 7 -14036540.270 9  18201748.959
  20037123.377    -3076345.635 5  -2306306.129 9  20037129.529
  17637278.807    -4009967.359 7  -3045746.924 9  17637282.744
  16557672.150   -15873043.219 7 -12278915.983 9  16557675.350
  16688866.799   -25347609.310 7 -19604466.369 9  16688869.037
  17924071.127   -16905501.967 7 -13049178.451 9  17924074.502
 94  3 24 20  9 59.9860000  0  6  2 16 18 19 27 31
  18181652.947   -18351494.000 7 -14118811.429 9  18181657.635
  20028104.893    -3123742.274 5  -2343238.610 9  20028107.951
  17644456.143    -3972249.848 7  -3016356.715 9  17644459.986
  16549551.479   -15915717.217 7 -12312168.458 9  16549554.654
  16671512.580   -25438805.629 7 -19675528.430 9  16671514.842
  17923014.838   -16911052.399 7 -13053503.481 9  17923018.365
 94  3 24 20 10 29.9860000  0  6  2 16 18 19 27 31
  18161616.588   -18456784.902 7 -14200856.246 9  18161621.299
  20019185.416    -3170615.445 5  -2379763.166 9  20019190.139
  17651706.783    -3934149.445 7  -2986668.138 9  17651710.674
  16541486.049   -15958101.006 7 -12345194.796 9  16541489.272
  16654212.697   -25529716.463 7 -19746368.030 9  16654214.971
  17922077.096   -16915981.963 7 -13057344.717 9  17922080.272
 94  3 24 20 10 59.9860000  0  6  2 16 18 19 27 31
  18141636.854   -18561779.084 7 -14282669.846 9  18141641.260
  20010368.205    -3216949.645 5  -2415867.808 9  20010372.600
  17659032.244    -3895653.480 7  -2956671.351 9  17659036.100
  16533473.760   -16000206.516 7 -12378004.296 9  16533476.912
  16636967.158   -25620343.240 7 -19816986.292 9  16636969.432
  17921255.533   -16920298.089 7 -13060707.951 9  17921258.756
 94  3 24 20 11 29.9860000  0  6  2 16 18 19 27 31
  18121714.096   -18666474.099 7 -14364250.332 9  18121718.455
  20001656.158    -3262730.883 5  -2451541.508 9  20001659.744
  17666433.002    -3856762.236 7  -2926366.545 9  17666436.846
  16525514.916   -16042030.616 7 -12410594.510 9  16525518.080
  16619771.861   -25710705.091 7 -19887398.116 9  16619774.182
  17920551.143   -16924001.060 7 -13063593.399 9  17920554.272
 94  3 24 20 11 59.9860000  0  6  2 16 18 19 27 31
  18101849.065   -18770866.994 7 -14445595.405 9  18101853.178
  19993051.072    -3307944.964 5  -2486773.263 8  19993057.307
  17673908.080    -3817481.478 7  -2895758.232 9  17673911.865
  16517611.791   -16083561.496 7 -12442956.247 9  16517615.037
  16602623.268   -25800821.588 7 -19957618.755 9  16602625.588
  17919962.354   -16927094.657 7 -13066004.009 9  17919965.494
 94  3 24 20 12 29.9860000  0  6  2 16 18 19 27 31
  18082042.900   -18874948.393 7 -14526697.741 9  18082046.897
  19984556.604    -3352586.329 5  -2521558.794 9  19984563.709
  17681457.557    -3777809.135 7  -2864844.780 9  17681461.553
  16509765.822   -16124792.843 7 -12475084.578 9  16509769.104
  16585521.596   -25890691.605 7 -20027647.330 9  16585523.963
  17919487.502   -16929589.774 7 -13067948.269 9  17919490.912
 94  3 24 20 12 59.9860000  0  6  2 16 18 19 27 31
  18062294.213   -18978727.857 7 -14607564.823 9  18062298.350
  19976169.518    -3396661.613 5  -2555903.196 9  19976175.283
  17689081.322    -3737746.625 7  -2833627.308 9  17689085.330
  16501974.221   -16165738.202 7 -12506990.064 9  16501977.408
  16568464.986   -25980324.643 7 -20097491.249 9  16568467.377
  17919127.057   -16931484.446 7 -13069424.653 9  17919130.162
 94  3 24 20 13 29.9860000  0  6  2 16 18 19 27 31
  18042601.744   -19082212.099 7 -14688201.855 9  18042605.729
  19967886.065    -3440192.418 5  -2589823.334 9  19967891.221
  17696775.596    -3697312.170 7  -2802120.004 9  17696779.498
  16494239.549   -16206384.556 7 -12538662.558 9  16494242.736
  16551454.111   -26069717.116 7 -20167147.713 9  16551456.420
  17918881.385   -16932774.785 7 -13070430.129 9  17918884.736
 94  3 24 20 13 59.9860000  0  6  2 16 18 19 27 31
  18022966.400   -19185397.338 7 -14768605.902 9  18022970.397
  19959702.611    -3483198.187 5  -2623334.347 9  19959707.791
  17704538.760    -3656517.593 7  -2770332.087 9  17704542.873
  16486561.010   -16246735.909 7 -12570105.181 9  16486564.350
  16534490.947   -26158859.278 7 -20236609.128 9  16534493.385
  17918749.330   -16933467.515 7 -13070969.929 9  17918752.600
 94  3 24 20 14 29.9860000  0  6  2 16 18 19 27 31
  18003389.111   -19288277.027 7 -14848771.858 9  18003393.119
  19951616.877    -3525687.327 5  -2656442.811 9  19951622.221
  17712371.557    -3615354.635 7  -2738257.122 9  17712375.506
  16478936.213   -16286803.466 7 -12601326.655 9  16478939.541
  16517575.815   -26247748.794 7 -20305873.677 9  16517578.205
  17918730.705   -16933567.598 7 -13071047.931 9  17918734.150
 94  3 24 20 14 59.9860000  0  6  2 16 18 19 27 31
  17983869.705   -19390850.879 7 -14928699.509 9  17983873.818
  19943628.768    -3567661.104 5  -2689149.683 9  19943632.834
  17720275.143    -3573823.033 7  -2705894.904 9  17720279.174
  16471367.049   -16326580.766 7 -12632321.962 9  16471370.295
  16500708.588   -26336387.958 7 -20374943.146 9  16500710.920
  17918823.799   -16933077.609 7 -13070666.134 9  17918827.057
 94  3 24 20 15 29.9860000  0  6  2 16 18 19 27 31
  17964407.549   -19493123.687 7 -15008392.573 9  17964411.908
  19935740.518    -3609121.430 5  -2721456.408 9  19935747.104
  17728248.315    -3531923.269 7  -2673245.807 9  17728252.240
  16463853.963   -16366061.550 7 -12663086.216 9  16463857.209
  16483886.744   -26424786.145 7 -20443824.837 9  16483889.065
  17919026.791   -16932009.757 7 -13069834.045 9  17919030.049
 94  3 24 20 15 59.9860000  0  6  2 16 18 19 27 31
  17945001.877   -19595101.055 7 -15087855.422 9  17945006.330
  19927951.924    -3650049.814 5  -2753348.693 9  19927958.912
  17736293.565    -3489644.975 7  -2640301.752 9  17736297.315
  16456396.080   -16405253.145 7 -12693625.130 9  16456399.361
  16467111.885   -26512939.562 7 -20512515.805 9  16467114.264
  17919339.002   -16930367.953 7 -13068554.734 9  17919342.260
 94  3 24 20 16 29.9850000  0  6  2 16 18 19 27 31
  17925649.364   -19696800.113 7 -15167101.410 9  17925653.630
  19920264.560    -3690441.372 5  -2784822.684 7  19920270.946
  17744410.388    -3446991.591 7  -2607065.431 9  17744414.185
  16448993.778   -16444152.414 7 -12723936.254 9  16448997.095
  16450382.341   -26600853.566 7 -20581020.210 9  16450384.802
  17919759.669   -16928158.108 7 -13066832.786 9  17919763.079
 94  3 24 20 16 59.9850000  0  6  2 16 18 19 27 31
  17906345.435   -19798242.198 7 -15246147.156 9  17906349.630
  19912680.575    -3730301.532 5  -2815882.569 9  19912686.587
  17752596.310    -3403973.752 7  -2573545.106 9  17752600.177
  16441648.380   -16482751.806 7 -12754013.712 9  16441651.720
  16433698.638   -26688527.202 7 -20649337.316 9  16433701.169
  17920290.192   -16925371.094 7 -13064661.099 9  17920293.650
 94  3 24 20 17 29.9850000  0  6  2 16 18 19 27 31
  17887091.864   -19899420.749 7 -15324987.557 9  17887095.860
  19905197.247    -3769620.320 4  -2846520.596 9  19905204.118
  17760851.341    -3360594.320 7  -2539743.031 9  17760855.290
  16434359.044   -16521058.314 7 -12783862.945 9  16434362.255
  16417062.700   -26775949.531 7 -20717458.603 9  16417064.950
  17920930.466   -16922007.912 7 -13062040.444 9  17920933.607
 94  3 24 20 17 59.9850000  0  6  2 16 18 19 27 31
  17867890.677   -20000322.595 7 -15403612.330 9  17867894.896
  19897818.739    -3808398.429 5  -2876737.371 9  19897825.657
  17769171.075    -3316874.234 7  -2505675.504 9  17769174.802
  16427122.591   -16559086.477 7 -12813495.288 9  16427125.860
  16400479.739   -26863093.391 7 -20785362.898 9  16400482.142
  17921679.974   -16918068.399 7 -13058970.700 9  17921683.173
 94  3 24 20 18 29.9850000  0  6  2 16 18 19 27 31
  17848744.622   -20100937.188 7 -15482013.277 9  17848748.653
  19890542.005    -3846637.503 5  -2906534.090 9  19890547.009
  17777553.357    -3272824.447 7  -2471351.065 9  17777557.083
  16419939.435   -16596833.956 7 -12842908.917 9  16419942.634
  16383951.669   -26949948.792 7 -20853042.422 9  16383953.954
  17922539.864   -16913550.331 7 -13055450.139 9  17922542.911
 94  3 24 20 18 59.9850000  0  6  2 16 18 19 27 31
  17829656.614   -20201245.270 7 -15560175.376 9  17829660.646
  19883366.607    -3884342.697 5  -2935914.630 2  19883372.126
  17785999.099    -3228441.224 7  -2436766.809 9  17786002.942
  16412807.919   -16634310.365 7 -12872111.321 9  16412811.153
  16367480.396   -27036506.383 8 -20920489.894 9  16367482.575
  17923508.513   -16908459.074 7 -13051482.936 9  17923511.478
 94  3 24 20 19 29.9850000  0  6  2 16 18 19 27 31
  17810628.763   -20301235.557 7 -15638089.854 9  17810633.122
  19876292.857    -3921520.115 5
  17794509.622    -3183719.538 7  -2401918.817 9  17794513.583
  16405727.974   -16671516.977 7 -12901103.492 9  16405731.325
  16351066.982   -27122759.922 8 -20987700.445 9  16351069.150
  17924583.325   -16902812.276 7 -13047082.841 9  17924586.243
 94  3 24 20 19 59.9850000  0  6  2 16 18 19 27 31
  17791658.263   -20400926.462 7 -15715771.037 9  17791662.470
  19869314.763    -3958189.911 5
  17803085.021    -3138655.144 7  -2366803.781 9  17803089.216
  16398700.161   -16708447.677 7 -12929880.667 9  16398703.396
  16334710.692   -27208712.974 8 -21054676.834 9  16334712.814
  17925763.646   -16896610.362 7 -13042250.196 9  17925766.669
 94  3 24 20 20 29.9850000  0  6  2 16 18 19 27 31
  17772742.122   -20500332.498 7 -15793230.253 9  17772746.376
  19862431.497    -3994363.763 5    -14045.55319  19862435.692
  17811729.692    -3093228.107 7  -2331406.165 9  17811733.782
  16391728.442   -16745084.014 7 -12958428.471 9  16391731.536
  16318405.677   -27294396.506 8 -21121443.218 9  16318407.892
  17927047.630   -16889861.811 7 -13036991.594 9  17927050.747
 94  3 24 20 20 59.9850000  0  6  2 16 18 19 27 31
  17753881.458   -20599445.217 7 -15870460.901 9  17753885.653
  19855641.380    -4030041.195 5    -41846.190 7  19855645.692
  17820445.450    -3047426.885 7  -2295716.977 9  17820449.681
  16384816.224   -16781408.917 7 -12986733.596 9  16384819.388
  16302150.630   -27379817.015 8 -21188004.651 9  16302152.775
  17928436.067   -16882566.673 7 -13031307.088 9  17928439.220
 94  3 24 20 21 29.9850000  0  6  2 16 18 19 27 31
  17735073.989   -20698277.482 7 -15947473.014 9  17735078.349
  19848946.036    -4065227.495 5    -69264.138 9  19848949.892
  17829227.552    -3001274.467 7  -2259754.132 9  17829231.958
  16377962.880   -16817423.328 7 -13014796.781 9  16377966.091
  16285943.325   -27464987.150 8 -21254370.981 9  16285945.610
  17929930.232   -16874715.518 7 -13025189.315 9  17929933.196
 94  3 24 20 21 59.9850000  0  6  2 16 18 19 27 31
  17716318.247   -20796840.798 7 -16024275.558 9  17716322.442
  19842342.169    -4099929.276 5    -96304.520 8  19842348.146
  17838074.692    -2954785.153 7  -2223528.766 9  17838079.239
  16371167.677   -16853132.135 7 -13042621.828 9  16371170.841
  16269780.286   -27549924.040 8 -21320555.563 9  16269782.501
  17931531.021   -16866303.278 7 -13018634.338 9  17931534.067
 94  3 24 20 22 29.9850000  0  6  2 16 18 19 27 31
  17697616.739   -20895117.677 7 -16100854.907 9  17697620.982
  19835831.153    -4134147.850 5   -122968.392 9  19835836.439
  17846981.544    -2907979.128 7  -2187056.621 9  17846985.892
  16364431.021   -16888534.272 7 -13070207.915 9  16364434.278
  16253660.739   -27634634.302 8 -21386563.554 9  16253662.767
  17933236.192   -16857341.482 7 -13011651.137 9  17933239.275
 94  3 24 20 22 59.9850000  0  6  2 16 18 19 27 31
  17678969.466   -20993108.344 7 -16177211.230 9  17678973.825
  19829412.927    -4167874.661 5   -149249.058 9  19829418.306
  17855943.544    -2860883.654 7  -2150358.931 9  17855947.751
  16357749.583   -16923645.193 7 -13097567.075 9  16357752.665
  16237587.646   -27719097.745 8 -21452379.216 9  16237589.732
  17935046.583   -16847829.629 7 -13004239.322 9  17935049.618
 94  3 24 20 23 29.9850000  0  6  2 16 18 19 27 31
  17660374.872   -21090824.785 7 -16253353.865 9  17660379.067
  19823088.380    -4201111.623 5   -175148.035 9  19823093.337
  17864958.872    -2813508.195 7  -2113443.078 9  17864963.079
  16351122.333   -16958470.474 7 -13124703.668 9  16351125.673
  16221562.271   -27803311.059 8 -21517999.975 9  16221564.450
  17936960.552   -16837770.699 7 -12996401.209 9  17936963.540
 94  3 24 20 23 59.9850000  0  6  2 16 18 19 27 31
  17641832.903   -21188264.120 7 -16329280.578 9  17641837.005
  19816857.083    -4233857.289 5   -200664.172 9  19816861.747
  17874030.833    -2765835.026 7  -2076295.232 9  17874034.900
  16344552.036   -16992998.587 7 -13151608.701 9  16344555.177
  16205587.060   -27887261.798 8 -21583416.130 9  16205589.181
  17938975.724   -16827180.663 7 -12988149.245 9  17938978.747
 94  3 24 20 24 29.9850000  0  6  2 16 18 19 27 31
  17623343.396   -21285426.432 7 -16404991.430 9  17623347.509
  19810722.122    -4266099.405 5   -225787.906 9  19810726.376
  17883158.911    -2717867.263 7  -2038917.834 9  17883163.060
  16338038.349   -17027227.384 7 -13178280.500 9  16338041.525
  16189663.700   -27970938.745 7 -21648618.938 9  16189665.939
  17941092.122   -16816058.956 7 -12979482.995 9  17941095.017
 94  3 24 20 24 59.9850000  0  6  2 16 18 19 27 31
  17604903.638   -21382326.571 7 -16480497.996 9  17604907.857
  19804681.732    -4297836.964 5   -250518.528 9  19804687.485
  17892342.614    -2669606.606 7  -2001312.214 9  17892346.857
  16331578.169   -17061176.540 7 -13204734.398 9  16331581.345
  16173792.560   -28054342.092 7 -21713608.553 9  16173794.728
  17943311.091   -16804397.157 7 -12970395.893 9  17943313.892
 94  3 24 20 25 29.9850000  0  6  2 16 18 19 27 31
  17586515.778   -21478956.201 7 -16555793.776 9  17586519.786
  19798736.567    -4329083.103 5   -274866.180 9  19798742.017
  17901585.044    -2621037.999 7  -1963466.623 9  17901589.333
  16325171.903   -17094841.475 7 -13230966.826 9  16325175.114
  16157973.208   -28137474.740 7 -21778387.236 9  16157975.400
  17945634.903   -16792186.569 7 -12960881.163 9  17945637.880
 94  3 24 20 25 59.9850000  0  6  2 16 18 19 27 31
  17568180.810   -21575306.445 7 -16630871.855 9  17568184.864
  19792882.966    -4359845.312 5   -298836.811 9  19792886.857
  17910885.638    -2572163.092 7  -1925382.367 9  17910889.739
  16318818.200   -17128231.041 7 -13256984.677 9  16318821.353
  16142205.786   -28220332.417 7 -21842951.654 9  16142207.989
  17948062.630   -16779428.635 7 -12950939.937 9  17948065.735
 94  3 24 20 26 29.9850000  0  7  2 16 18 19  7 27 31
  17549899.786   -21671373.589 7 -16705729.337 9  17549903.782
  19787122.567    -4390117.320 5   -322425.419 9  19787128.228
  17920242.927    -2522991.669 7  -1887067.046 9  17920247.474
  16312516.817   -17161344.031 7 -13282787.015 9  16312519.946
  19768076.255      -88209.47315
  16126490.700   -28302914.682 7 -21907301.466 9  16126492.880
  17950594.833   -16766120.645 7 -12940570.088 9  17950597.868
 94  3 24 20 26 59.9850000  0  7  2 16 18 19  7 27 31
  17531673.653   -21767153.652 7 -16780363.121 9  17531677.767
  19781449.841    -4419926.417 4   -345653.307 9  19781456.146
  17929656.958    -2473518.660 6  -1848516.738 9  17929661.435
  16306264.817   -17194198.505 7 -13308387.910 9  16306267.911
  19738459.880     -243841.676 5
  16110827.536   -28385226.195 7 -21971440.300 9  16110829.634
  17953226.349   -16752293.486 7 -12929795.697 9  17953229.431
 94  3 24 20 27 29.9850000  0  7  2 16 18 19  7 27 31
  17513501.864   -21862646.018 7 -16854772.726 9  17513505.802
  19775865.325    -4449267.886 4   -368516.862 9  19775871.372
  17939129.833    -2423738.733 6  -1809727.268 9  17939134.310
  16300066.489   -17226771.181 7 -13333769.224 9  16300069.665
  19708856.880     -399407.815 5    -48477.58119  19708865.743
  16095219.060   -28467248.376 7 -22035353.684 9  16095221.368
  17955952.341   -16737967.668 7 -12918632.735 9  17955955.493
 94  3 24 20 27 59.9850000  0  7  2 16 18 19  7 27 31
  17495384.380   -21957854.575 7 -16928961.175 9  17495388.282
  19770374.122    -4478127.458 4   -391004.828 9  19770380.732
  17948660.950    -2373654.594 6  -1770700.758 9  17948665.497
  16293924.075   -17259051.000 7 -13358922.341 9  16293927.263
  19679268.591     -554897.970 5   -169638.513 9  19679277.700
  16079666.122   -28548979.519 7 -22099040.279 9  16079668.489
  17958771.067   -16723155.929 7 -12907091.140 9  17958774.372
 94  3 24 20 28 29.9850000  0  7  2 16 18 19  7 27 31
  17477316.427   -22052803.405 7 -17002947.245 9  17477320.282
  19764971.364    -4506518.036 4   -413127.419 9  19764977.810
  17958246.216    -2323282.233 6  -1731449.664 9  17958250.786
  16287835.497   -17291045.572 7 -13383853.183 9  16287838.708
  19649695.708     -710300.194 5   -290730.888 9  19649704.724
  16064165.841   -28630435.205 7 -22162512.232 9  16064168.208
  17961677.435   -16707880.050 6 -12895187.873 9  17961680.857
 94  3 24 20 28 59.9850000  0  7  2 16 18 19  7 27 31
  17459295.505   -22147500.642 7 -17076737.270 9  17459299.396
  19759655.435    -4534453.667 3   -434895.464 9  19759661.962
  17967885.903    -2272627.268 6  -1691978.360 9  17967890.509
  16281801.935   -17322752.774 7 -13408560.104 9  16281805.239
  19620139.896     -865612.672 5   -411753.333 9  19620147.669
  16048715.005   -28711629.049 7 -22225780.152 9  16048717.407
  17964673.903   -16692134.881 6 -12882918.934 9  17964677.232
 94  3 24 20 29 29.9850000  0  7  2 16 18 19  7 27 31
  17441318.880   -22241969.456 7 -17150349.300 9  17441322.665
  19754426.857    -4561929.427 3   -456305.196 9  19754434.056
  17977576.107    -2221704.271 6  -1652298.197 9  17977580.630
  16275826.192   -17354155.530 7 -13433029.794 9  16275829.462
  19590602.669    -1020832.643 5   -532703.725 9  19590610.243
  16033311.771   -28792573.843 7 -22288854.006 9  16033314.138
  17967761.614   -16675908.942 6 -12870275.365 9  17967765.189
 94  3 24 20 29 59.9850000  0  7  2 16 18 19  7 27 31
  17423385.646   -22336210.533 7 -17223783.869 9  17423389.560
  19749282.372    -4588969.009 4   -477375.037 9  19749289.064
  17987315.271    -2170525.613 6  -1612418.817 9  17987319.829
  16269903.599   -17385278.599 7 -13457281.547 9  16269906.868
  19561083.903    -1175956.909 5   -653579.467 9  19561091.935
  16017952.685   -28873286.180 7 -22351746.728 9  16017955.099
  17970942.021   -16659195.902 6 -12857252.235 9  17970945.618
 94  3 24 20 30 29.9850000  0  7  2 16 18 19  7 27 31
  17405494.083   -22430231.406 7 -17297046.854 9  17405497.798
  19744220.099    -4615569.655 4   -498102.848 9  19744227.462
  17997103.505    -2119088.056 6  -1572337.686 9  17997107.958
  16264033.310   -17416127.177 7 -13481319.418 9  16264036.509
  19531583.692    -1330983.018 5   -774378.765 9  19531591.267
  16002637.021   -28953770.145 7 -22414461.500 9  16002639.458
  17974216.294   -16641989.531 6 -12843844.697 9  17974219.704
 94  3 24 20 30 59.9850000  0  7  2 16 18 19  7 27 31
  17387646.810   -22524017.198 7 -17370126.657 9  17387650.431
  19739245.599    -4641704.931 4   -518468.041 9  19739252.103
  18006945.005    -2067370.611 6  -1532038.471 9  18006949.458
  16258215.927   -17446697.586 7 -13505140.526 9  16258219.126
  19502102.833    -1485904.332 5   -895096.381 9  19502109.763
  15987368.247   -29034008.450 7 -22476984.851 9  15987370.638
  17977588.083   -16624270.106 6 -12830037.368 9  17977591.634
 94  3 24 20 31 29.9850000  0  7  2 16 18 19  7 27 31
  17369846.091   -22617562.052 7 -17443018.719 9  17369849.841
  19734360.575    -4667374.205 4   -538470.146 9  19734366.728
  18016839.357    -2015377.189 6  -1491524.209 9  18016843.798
  16252448.982   -17477003.849 7 -13528755.802 9  16252452.204
  19472642.302    -1640719.611 5  -1015731.391 9  19472649.478
  15972149.989   -29113980.864 7 -22539301.014 9  15972152.474
  17981054.997   -16606050.098 6 -12815839.983 9  17981058.525
 94  3 24 20 31 59.9850000  0  7  2 16 18 19  7 27 31
  17352096.357   -22710836.234 7 -17515699.868 9  17352099.989
  19729569.575    -4692557.916 4   -558093.828 8  19729576.470
  18026786.677    -1963102.758 6  -1450790.975 9  18026791.446
  16246732.497   -17507043.718 7 -13552163.499 9  16246735.837
  19443203.177    -1795418.298 5  -1136275.563 9  19443210.107
  15956985.997   -29193668.357 7 -22601395.161 9  15956988.423
  17984618.919   -16587322.043 6 -12801246.718 9  17984622.388
 94  3 24 20 32 29.9850000  0  7  2 16 18 19  7 27 31
  17334397.091   -22803846.510 7 -17588175.373 9  17334400.876
  19724870.864    -4717250.784 5   -577335.088 9  19724876.970
  18036784.310    -1910565.980 6  -1409853.322 9  18036788.985
  16241068.411   -17536809.073 7 -13575357.288 9  16241071.681
  19413783.786    -1950017.737 5  -1256742.384 9  19413790.489
  15941875.411   -29273075.663 7 -22663270.982 9  15941877.767
  17988274.903   -16568111.096 6 -12786277.171 9  17988278.653
 94  3 24 20 32 59.9840000  0  6  2 18 19  7 27 31
  17316751.289   -22896575.344 7 -17660431.572 9  17316755.145
  18046826.883    -1857794.594 6  -1368732.868 9  18046831.395
  16235457.219   -17566295.501 7 -13598333.738 9  16235460.418
  19384381.188    -2104527.751 5  -1377139.500 9  19384388.328
  15926820.805   -29352187.869 7 -22724916.853 9  15926823.266
  17992019.727   -16548433.635 6 -12770944.106 9  17992023.207
 94  3 24 20 33 29.9840000  0  6  2 18 19  7 27 31
  17299158.820   -22989024.982 7 -17732470.215 9  17299162.547
  18056911.680    -1804796.580 6  -1327435.813 9  18056916.508
  16229902.180   -17595489.026 8 -13621081.955 9  16229905.391
  19354992.563    -2258966.795 5  -1497481.351 9  19354999.301
  15911821.703   -29431008.386 7 -22786335.427 9  15911824.070
  17995853.180   -16528288.253 6 -12755246.432 9  17995856.672
 94  3 24 20 33 59.9840000  0  6  2 18 19  7 27 31
  17281618.938   -23081197.599 7 -17804292.995 9  17281622.711
  18067038.531    -1751579.569 6  -1285968.110 9  18067043.043
  16224404.859   -17624377.199 8 -13643592.236 9  16224407.942
  19325614.977    -2413344.701 5  -1617775.595 9  19325621.692
  15896875.906   -29509549.980 7 -22847536.660 9  15896878.168
  17999777.391   -16507667.074 6 -12739177.997 9  17999780.684
 94  3 24 20 34 29.9840000  0  6  2 18 19  7 27 31
  17264128.094   -23173113.247 7 -17875915.536 9  17264131.926
  18077207.305    -1698144.762 6  -1244330.699 9  18077211.934
  16218965.477   -17652961.691 7 -13665865.878 9  16218968.606
  19296249.539    -2567659.892 5  -1738020.911 9  19296257.090
  15881982.391   -29587815.953 7 -22908523.123 9  15881984.746
  18003790.953   -16486575.312 6 -12722742.873 9  18003794.305
 94  3 24 20 34 59.9840000  0  6  2 18 19  7 27 31
  17246685.672   -23264774.156 7 -17947339.581 9  17246689.317
  18087420.867    -1644471.246 6  -1202507.281 9  18087425.660
  16213582.625   -17681247.843 8 -13687907.046 9  16213585.707
  19266898.813    -2721901.350 5  -1858208.836 9  19266906.047
  15867141.695   -29665803.318 7 -22969292.486 9  15867144.063
  18007899.211   -16464986.971 7 -12705920.814 9  18007902.516
 94  3 24 20 35 29.9840000  0  6  2 18 19  7 27 31
  17229289.461   -23356192.109 7 -18018574.303 9  17229293.094
  18097682.742    -1590544.168 6  -1160486.283 9  18097687.617
  16208254.399   -17709248.280 8 -13709725.579 9  16208257.434
  19237563.750    -2876054.115 5  -1978327.630 9  19237571.313
  15852353.133   -29743517.741 7 -23029849.173 9  15852355.500
  18012102.125   -16442900.965 7 -12688710.962 9  18012105.359
 94  3 24 20 35 59.9840000  0  6  2 18 19  7 27 31
  17211938.008   -23447374.319 7 -18089625.338 9  17211941.817
  18107991.711    -1536372.917 6  -1118275.025 9  18107996.504
  16202977.430   -17736979.058 8 -13731333.984 9  16202980.488
  19208247.477    -3030109.367 5  -2098370.482 9  19208254.617
  15837616.352   -29820961.340 7 -23090194.825 9  15837618.766
  18016395.617   -16420338.775 7 -12671130.055 9  18016398.840
 94  3 24 20 36 29.9840000  0  6  2 18 19  7 27 31
  17194632.430   -23538315.615 7 -18160488.641 9  17194636.250
  18118347.656    -1481952.168 6  -1075869.355 9  18118352.871
  16197749.828   -17764450.292 7 -13752740.150 9  16197752.852
  19178954.266    -3184046.982 5  -2218321.640 9  19178961.676
  15822933.492   -29898121.021 7 -23150319.244 9  15822935.777
  18020775.078   -16397324.554 7 -12653196.922 9  18020778.395
 94  3 24 20 36 59.9840000  0  6  2 18 19  7 27 31
  17177375.219   -23629002.794 7 -18231153.938 9  17177378.945
  18128748.797    -1427293.288 6  -1033278.136 9  18128754.082
  16192571.070   -17791665.609 8 -13773946.898 9  16192574.047
  19149680.555    -3337878.761 5  -2338190.362 9  19149688.539
  15808305.008   -29974992.049 7 -23210218.735 9  15808307.223
  18025239.961   -16373860.399 7 -12634913.191 9  18025243.289
 94  3 24 20 37 29.9840000  0  6  2 18 19  7 27 31
  17160166.586   -23719433.929 7 -18301619.722 9  17160170.254
  18139191.500    -1372417.973 6   -990518.259 9  18139196.738
  16187444.930   -17818602.775 8 -13794936.918 9  16187448.047
  19120427.844    -3491603.416 5  -2457975.592 9  19120435.055
  15793731.922   -30051575.068 7 -23269893.807 9  15793734.149
  18029787.625   -16349963.340 7 -12616292.135 9  18029790.930
 94  3 24 20 37 59.9840000  0  6  2 18 19  7 27 31
  17143006.938   -23809609.039 7 -18371886.004 9  17143010.793
  18149673.930    -1317331.466 6   -947593.816 9  18149679.063
  16182376.484   -17845238.307 8 -13815691.891 9  16182379.484
  19091195.000    -3645223.278 5  -2577679.190 9  19091202.270
  15779212.016   -30127877.517 7 -23329350.253 9  15779214.277
  18034417.672   -16325632.145 7 -12597332.786 9  18034421.059
 94  3 24 20 38 29.9840000  0  6  2 18 19  7 27 31
  17125898.000   -23899516.405 7 -18441943.656 9  17125901.844
  18160199.109    -1262022.900 6   -904496.341 9  18160204.395
  16177370.734   -17871544.397 8 -13836190.154 9  16177373.758
  19061982.602    -3798732.691 5  -2697296.722 9  19061989.649
  15764744.813   -30203903.314 7 -23388591.129 9  15764747.133
  18039135.094   -16300841.321 7 -12578015.290 9  18039138.457
 94  3 24 20 38 59.9840000  0  6  2 18 19  7 27 31
  17108835.453   -23989178.672 7 -18511810.320 9  17108839.297
  18170764.578    -1206501.598 6   -861233.094 9  18170769.641
  16172428.211   -17897517.945 8 -13856429.299 9  16172431.293
  19032788.656    -3952143.721 5  -2816837.602 9  19032795.266
  15750326.031   -30279672.706 7 -23447632.209 9  15750328.445
  18043940.234   -16275590.121 6 -12558339.058 9  18043943.891
 94  3 24 20 39 29.9840000  0  6  2 18 19  7 27 31
  17091818.344   -24078605.177 7 -18581493.276 9  17091822.258
  18181373.852    -1150747.145 6   -817788.179 9  18181378.914
  16167546.891   -17923167.968 8 -13876416.346 9  16167550.043
  19003617.649    -4105442.032 5  -2936290.645 9  19003624.719
  15735954.805   -30355193.985 7 -23506479.960 9  15735957.149
  18048829.477   -16249896.922 6 -12538318.413 9  18048832.688
 94  3 24 20 39 59.9840000  0  6  2 18 19  7 27 31
  17074846.539   -24167793.295 7 -18650990.479 9  17074850.359
  18192028.820    -1094756.916 6   -774159.529 9  18192033.672
  16162719.922   -17948534.440 8 -13896182.438 9  16162723.086
  18974468.336    -4258621.890 5  -3055651.410 9  18974475.086
  15721631.695   -30430463.509 7 -23565131.535 9  15721634.086
  18053801.445   -16223769.480 6 -12517959.396 9  18053804.820
 94  3 24 20 40 29.9840000  0  6  2 18 19  7 27 31
  17057919.359   -24256743.733 7 -18720302.474 9  17057923.121
  18202725.172    -1038547.985 6   -730360.479 9  18202730.434
  16157941.344   -17973645.626 7 -13915749.608 9  16157944.567
  18945342.430    -4411676.274 5  -3174914.383 9  18945349.734
  15707358.625   -30505468.222 7 -23623576.764 9  15707360.969
  18058852.547   -16197226.081 6 -12497276.257 9  18058855.805
 94  3 24 20 40 59.9840000  0  6  2 18 19  7 27 31
  17041038.367   -24345456.103 7 -18789428.960 9  17041042.188
  18213462.359     -982124.247 6   -686394.040 9  18213467.633
  16153208.672   -17998516.606 8 -13935129.610 9  16153211.742
  18916244.094    -4564588.370 5  -3294066.483 9  18916251.610
  15693142.672   -30580174.965 7 -23681789.813 9  15693145.039
  18063980.867   -16170275.831 6 -12476276.090 9  18063984.266
 94  3 24 20 41 29.9840000  0  6  2 18 19  7 27 31
  17024206.172   -24433908.548 7 -18858352.907 9  17024209.957
  18224240.492     -925485.831 6   -642260.343 9  18224245.942
  16148525.102   -18023129.637 8 -13954308.613 9  16148528.336
  18887177.953    -4717337.461 6  -3413091.561 9  18887185.738
  15678990.414   -30654545.474 7 -23739740.851 9  15678992.758
  18069191.195   -16142895.028 6 -12454940.438 9  18069194.547
 94  3 24 20 41 59.9840000  0  6  2 18 19  7 27 31
  17007425.211   -24522092.835 7 -18927067.909 9  17007429.020
  18235054.008     -868659.863 6   -597980.493 9  18235059.527
  16143895.922   -18047455.885 8 -13973264.156 9  16143899.051
  18858142.367    -4869915.366 5  -3531983.271 9  18858149.731
  15664904.891   -30728563.355 7 -23797417.121 9  15664907.363
  18074487.953   -16115062.376 6 -12433252.699 9  18074491.293
 94  3 24 20 42 29.9840000  0  6  2 18 19  7 27 31
  16990693.133   -24610020.213 7 -18995582.720 9  16990696.848
  18245903.141     -811646.476 6   -553554.600 9  18245908.578
  16139327.086   -18071464.181 7 -13991971.933 9  16139330.367
  18829141.070    -5022317.611 5  -3650738.114 9  18829147.867
  15650887.617   -30802226.232 7 -23854816.765 9  15650890.008
  18079874.008   -16086759.871 6 -12411198.827 9  18079877.020
 94  3 24 20 42 59.9840000  0  6  2 18 19  7 27 31
  16974011.008   -24697685.241 7 -19063893.097 9  16974014.734
  18256791.570     -754430.458 6   -508970.826 9  18256796.938
  16134822.727   -18095134.751 7 -14010416.552 9  16134826.067
  18800174.524    -5174535.791 5  -3769349.505 9  18800181.723
  15636937.703   -30875532.649 7 -23911938.650 9  15636939.965
  18085354.453   -16057958.743 6 -12388756.422 9  18085357.652
 94  3 24 20 43 29.9840000  0  6  2 18 19  7 27 31
  16957378.266   -24785091.877 7 -19132002.135 9  16957381.863
  18267717.508     -697016.670 6   -464232.948 9  18267722.863
  16130382.242   -18118470.512 7 -14028600.283 9  16130385.524
  18771240.508    -5326585.832 5  -3887829.891 9  18771248.621
  15623050.313   -30948513.466 7 -23968806.815 9  15623052.609
  18090927.578   -16028673.277 6 -12365936.618 9  18090930.707
 94  3 24 20 43 59.9840000  0  6  2 18 19  7 27 31
  16940795.774   -24872231.191 7 -19199902.871 9  16940799.477
  18278683.359     -639390.141 6   -419329.294 9  18278688.258
  16126002.500   -18141486.212 7 -14046534.614 9  16126005.758
  18742338.328    -5478467.129 5  -4006178.816 9  18742344.270
  15609221.617   -31021183.325 7 -24025432.684 9  15609223.797
  18096586.625   -15998933.014 6 -12342762.421 9  18096590.024
 94  3 24 20 44 29.9840000  0  6  2 18 19  7 27 31
  16924266.274   -24959093.831 7 -19267588.012 9  16924270.152
  18289694.688     -581525.855 6   -374240.386 9  18289700.313
  16121680.453   -18164198.447 7 -14064232.485 9  16121683.817
  18713466.625    -5630184.363 5  -4124399.860 9  18713472.965
  15595453.836   -31093533.290 7 -24081809.279 9  15595456.098
  18102332.039   -15968740.585 6 -12319235.891 9  18102335.461
 94  3 24 20 44 59.9840000  0  6  2 18 19  7 27 31
  16907792.320   -25045666.709 7 -19335047.376 9  16907796.106
  18300752.695     -523415.401 6   -328959.659 9  18300758.203
  16117415.774   -18186608.418 7 -14081694.819 9  16117419.055
  18684626.453    -5781744.467 6  -4242498.470 9  18684633.145
  15581749.524   -31165549.655 7 -24137925.931 9  15581751.832
  18108158.617   -15938121.362 6 -12295376.793 9  18108161.992
 94  3 24 20 45 29.9840000  0  6  2 18 19  7 27 31
  16891373.703   -25131945.671 7 -19402277.699 9  16891377.617
  18311859.586     -465049.225 6   -283479.659 9  18311865.246
  16113211.313   -18208704.553 7 -14098912.607 9  16113214.559
  18655813.891    -5933153.926 5  -4360479.730 9  18655820.418
  15568108.422   -31237235.157 7 -24193784.767 9  15568110.813
  18114064.484   -15907086.853 6 -12271194.101 9  18114067.684
 94  3 24 20 45 59.9840000  0  6  2 18 19  7 27 31
  16875008.500   -25217945.346 7 -19469290.410 9  16875012.344
  18323013.000     -406436.331 6   -237807.422 9  18323018.672
  16109068.016   -18230479.292 8 -14115879.955 9  16109071.274
  18627030.274    -6084411.677 6  -4478342.744 9  18627037.520
  15554528.852   -31308595.738 7 -24249390.418 9  15554531.160
  18120051.000   -15875627.386 6 -12246680.269 9  18120054.211
 94  3 24 20 46 29.9840000  0  6  2 18 19  7 27 31
  16858693.063   -25303683.692 7 -19536099.484 9  16858696.930
  18334210.359     -347595.857 6   -191957.846 9  18334216.160
  16104988.899   -18251914.287 7 -14132582.567 9  16104992.121
  18598278.578    -6235505.598 6  -4596078.101 9  18598284.918
  15541011.633   -31379629.033 7 -24304741.038 9  15541013.942
  18126122.742   -15843722.012 6 -12221818.979 9  18126126.012
 94  3 24 20 46 59.9840000  0  6  2 18 19  7 27 31
  16842422.789   -25389184.186 7 -19602723.215 9  16842426.727
  18345445.234     -288554.912 6   -145952.088 9  18345451.035
  16100974.734   -18273009.255 8 -14149020.231 9  16100978.004
  18569558.070    -6386432.122 6  -4713683.032 9  18569565.117
  15527552.430   -31450357.637 7 -24359854.235 9  15527554.762
  18132275.313   -15811389.180 6 -12196624.606 9  18132278.594
 94  3 24 20 47 29.9840000  0  6  2 18 19  7 27 31
  16826196.164   -25474455.912 7 -19669168.687 9  16826199.984
  18356713.695     -229341.427 6    -99811.848 9  18356719.742
  16097021.117   -18293785.582 7 -14165209.602 9  16097024.481
  18540869.961    -6537185.848 6  -4831153.296 9  18540876.465
  15514147.102   -31520803.257 7 -24414746.923 9  15514149.399
  18138508.914   -15778629.712 6 -12171097.799 9  18138512.371
 94  3 24 20 47 59.9840000  0  6  2 18 19  7 27 31
  16810013.211   -25559498.465 7 -19735435.579 9  16810016.797
  18368011.906     -169968.740 6    -53547.578 9  18368018.059
  16093125.875   -18314254.353 8 -14181159.318 9  16093129.156
  18512220.047    -6687744.991 6  -4948471.950 9  18512226.270
  15500800.172   -31590940.581 7 -24469399.381 9  15500802.574
  18144822.727   -15745450.827 6 -12145244.158 9  18144826.043
 94  3 24 20 48 29.9840000  0  6  2 18 19  7 27 31
  16793873.078   -25644314.709 7 -19801526.128 9  16793876.699
  18379337.180     -110453.343 6     -7172.093 9  18379343.391
  16089285.547   -18334435.580 7 -14196884.971 9  16089288.875
  18483604.117    -6838117.356 5  -5065645.059 9  18483610.680
  15487514.703   -31660756.154 7 -24523801.121 9  15487517.199
  18151210.274   -15711883.655 6 -12119087.955 9  18151213.707
 94  3 24 20 48 59.9840000  0  6  2 18 19  7 27 31
  16777778.289   -25728893.580 7 -19867431.713 9  16777782.016
  18390690.102      -50795.575 6     39314.332 9  18390696.359
  16085497.774   -18354340.477 7 -14212395.300 9  16085501.160
  18455022.141    -6988320.303 5  -5182686.157 9  18455028.668
  15474291.117   -31730248.165 7 -24577950.742 9  15474293.567
  18157670.539   -15677936.742 6 -12092635.861 9  18157673.785
 94  3 24 20 49 29.9830000  0  6  2 18 19  7 27 31
  16761730.386   -25813224.768 7 -19933144.301 9  16761734.066
  18402069.519        9002.952 6     85910.430 9  18402075.343
  16081764.706   -18373958.158 7 -14227681.828 9  16081768.151
  18426472.073    -7138349.773 5  -5299592.088 9  18426477.511
  15461129.222   -31799413.443 7 -24631845.765 9  15461131.566
  18164202.847   -15643608.246 6 -12065886.430 9  18164206.398
 94  3 24 20 49 59.9830000  0  6  2 18 19  7 27 31
  16745726.972   -25897323.546 7 -19998675.795 9  16745730.569
  18413475.089       68940.865 6    132615.153 9  18413481.769
  16078088.128   -18393278.573 7 -14242736.710 9  16078091.644
  18397951.784    -7288225.650 6  -5416378.332 9  18397957.761
  15448029.370   -31868253.628 7 -24685487.469 9  15448031.808
  18170808.362   -15608898.365 6 -12038839.818 9  18170811.679
 94  3 24 20 50 29.9830000  0  6  2 18 19  7 27 31
  16729767.675   -25981190.645 7 -20064026.752 9  16729771.273
  18424904.941      129005.566 6    179418.643 9  18424911.749
  16074467.612   -18412304.610 7 -14257562.215 9  16074471.093
  18369456.769    -7437966.283 6  -5533059.194 9  18369462.980
  15434987.167   -31936790.670 7 -24738892.957 9  15434989.651
  18177484.198   -15573816.107 6 -12011503.039 9  18177487.444
 94  3 24 20 50 59.9830000  0  6  2 18 19  7 27 31
  16713852.948   -26064822.820 7 -20129194.655 9  16713856.499
  18436361.855      189213.154 5    226333.476 9  18436368.890
  16070904.558   -18431027.451 7 -14272151.462 9  16070908.038
  18340989.886    -7587562.674 6  -5649627.658 9  18340996.331
  15422000.339   -32005036.965 7 -24792071.886 9  15422002.835
  18184232.636   -15538353.942 6 -11983870.229 9  18184236.151
 94  3 24 20 51 29.9830000  0  6  2 18 19  7 27 31
  16697981.878   -26148226.034 7 -20194184.144 9  16697985.323
  18447847.276      249566.271 6    273361.712 9  18447854.050
  16067399.058   -18449449.215 7 -14286506.103 9  16067402.644
  18312550.550    -7737008.868 6  -5766079.118 9  18312556.011
  15409069.597   -32072987.621 7 -24845020.445 9  15409072.093
  18191051.237   -15502519.402 6 -11955947.252 9  18191054.484
 94  3 24 20 51 59.9830000  0  6  2 18 19  7 27 31
  16682152.597   -26231410.650 7 -20259003.297 9  16682155.925
  18459362.370      310078.500 6    320513.938 9  18459369.144
  16063947.472   -18467587.711 7 -14300640.010 9  16063950.999
  18284140.800    -7886303.751 6  -5882412.643 9  18284146.425
  15396199.245   -32140623.424 7 -24897723.671 9  15396201.671
  18197940.159   -15466319.851 6 -11927739.855 9  18197943.605
 94  3 24 20 52 29.9830000  0  6  2 18 19  7 27 31
  16666365.605   -26314372.702 7 -20323649.022 9  16666369.038
  18470911.730      370769.744 6    367805.641 9  18470918.515
  16060550.823   -18485437.734 7 -14314549.138 9  16060554.245
  18255762.808    -8035428.102 6  -5998613.289 9  18255768.620
  15383389.894   -32207935.616 7 -24950174.726 9  15383392.437
  18204897.261   -15429759.326 6 -11899251.185 9  18204900.788
 94  3 24 20 52 59.9830000  0  6  2 18 19  7 27 31
  16650619.370   -26397118.302 7 -20388126.087 9  16650622.792
  18482495.698      431641.063 6    415237.670 9  18482502.710
  16057210.253   -18502992.193 7 -14328227.959 9  16057213.722
  18227420.323    -8184368.584 6  -6114670.655 9  18227427.050
  15370644.159   -32274915.014 7 -25002366.464 9  15370646.714
  18211925.159   -15392827.277 6 -11870473.012 9  18211928.487
 94  3 24 20 53 29.9830000  0  6  2 18 19  7 27 31
  16634912.589   -26479657.947 7 -20452442.667 9  16634915.976
  18494109.901      492672.906 6    462794.773 9  18494116.394
  16053924.644   -18520259.919 7 -14341683.349 9  16053928.089
  18199114.003    -8333117.310 6  -6230578.626 9  18199120.155
  15357962.620   -32341557.640 7 -25054295.778 9  15357965.234
  18219022.823   -15355528.586 6 -11841409.157 9  18219026.234
 94  3 24 20 53 59.9830000  0  6  2 18 19  7 27 31
  16619245.573   -26561988.778 7 -20516596.536 9  16619248.960
  18505752.128      553852.144 6    510466.745 9  18505759.398
  16050693.167   -18537240.825 7 -14354915.244 9  16050696.718
  18170847.386    -8481659.677 6  -6346325.775 9  18170853.866
  15345343.495   -32407872.649 7 -25105969.811 9  15345346.050
  18226188.347   -15317873.543 6 -11812067.605 9  18226191.780
 94  3 24 20 54 29.9830000  0  6  2 18 19  7 27 31
  16603620.628   -26644097.747 7 -20580577.528 9  16603623.968
  18517415.316      615141.865 6    558224.775 9  18517421.562
  16047519.667   -18553916.724 7 -14367909.475 9  16047523.136
  18142620.933    -8629991.294 6  -6461908.721 9  18142627.495
  15332784.120   -32473872.654 7 -25157398.387 9  15332786.569
  18233424.386   -15279849.565 6 -11782438.595 9  18233427.761
 94  3 24 20 54 59.9830000  0  6  2 18 19  7 27 31
  16588038.964   -26725979.815 7 -20644381.713 9  16588042.480
  18529095.933      676522.867 6    606053.952 9  18529102.589
  16044403.987   -18570289.180 7 -14380667.253 9  16044407.550
  18114433.698    -8778114.727 6  -6577329.420 9  18114440.109
  15320284.698   -32539557.135 7 -25208581.098 9  15320287.183
  18240731.214   -15241450.887 6 -11752517.599 9  18240734.683
 94  3 24 20 55 29.9830000  0  6  2 18 19  7 27 31
  16572500.605   -26807634.689 7 -20708008.862 9  16572504.144
  18540793.776      737996.727 5    653955.481 9  18540801.198
  16041346.448   -18586358.350 7 -14393188.709 9  16041350.105
  18086285.636    -8926036.507 6  -6692593.014 9  18086291.741
  15307844.237   -32604930.871 7 -25259521.675 9  15307846.698
  18248105.425   -15202699.671 6 -11722321.902 9  18248109.058
 94  3 24 20 55 59.9830000  0  6  2 18 19  7 27 31
  16557005.300   -26889062.040 7 -20771458.728 9  16557008.968
  18552509.644      799561.999 6    701928.227 9  18552516.405
  16038347.550   -18602116.345 7 -14405467.689 9  16038351.148
  18058168.503    -9073790.915 6  -6807726.178 9  18058174.667
  15295462.519   -32669997.958 7 -25310223.299 9  15295465.026
  18255545.237   -15163605.567 6 -11691859.021 9  18255548.882
 94  3 24 20 56 29.9830000  0  6  2 18 19  7 27 31
  16541550.675   -26970276.211 7 -20834742.476 9  16541554.343
  18564243.956      861224.517 6    749976.767 9  18564250.589
  16035408.620   -18617561.023 7 -14417502.522 9  16035412.194
  18030079.987    -9221396.614 6  -6922743.472 9  18030086.234
  15283139.987   -32734753.139 7 -25360681.885 9  15283142.448
  18263051.370   -15124159.752 6 -11661122.082 9  18263054.991
 94  3 24 20 56 59.9830000  0  6  2 18 19  7 27 31
  16526138.058   -27051269.983 7 -20897854.486 9  16526141.691
  18576001.987      923017.263 5    798126.780 9  18576008.327
  16032527.487   -18632702.567 7 -14429301.150 9  16032531.097
  18002022.183    -9368839.108 6  -7037633.603 9  18002028.464
  15270879.136   -32799185.195 7 -25410888.691 9  15270881.644
  18270621.605   -15084377.684 6 -11630123.127 9  18270625.050
 94  3 24 20 57 29.9830000  0  6  2 18 19  7 27 31
  16510768.300   -27132038.274 7 -20960790.796 9  16510771.991
  18587786.612      984943.000 5    846380.418 9  18587793.456
  16029703.292   -18647543.834 7 -14440865.791 9  16029706.808
  17973996.808    -9516113.479 6  -7152392.711 9  17974003.323
  15258681.206   -32863285.721 7 -25460837.158 9  15258683.667
  18278254.901   -15044265.656 6 -11598867.057 9  18278258.581
 94  3 24 20 57 59.9830000  0  6  2 18 19  7 27 31
  16495442.269   -27212575.657 7 -21023547.185 9  16495446.054
  18599592.933     1046984.455 5    894724.205 9  18599599.648
  16026933.089   -18662101.485 7 -14452209.439 9  16026936.464
  17946006.456    -9663202.125 6  -7267007.122 9  17946013.007
  15246546.706   -32927051.445 7 -25510524.746 9  15246549.214
  18285952.144   -15003814.692 6 -11567346.887 9  18285955.941
 94  3 24 20 58 29.9830000  0  6  2 18 19  7 27 31
  16480159.292   -27292889.762 7 -21086129.586 9  16480163.112
  18611419.284     1109130.615 5    943149.599 9  18611425.941
  16024212.526   -18676398.813 7 -14463350.250 9  16024215.913
  17918057.394    -9810076.854 6  -7381454.829 9  17918064.167
  15234475.589   -32990487.746 7 -25559955.634 9  15234477.991
  18293710.831   -14963041.151 6 -11535575.356 9  18293714.640
 94  3 24 20 58 59.9830000  0  6  2 18 19  7 27 31
  16464920.456   -27372969.437 7 -21148529.314 9  16464924.241
  18623264.706     1171377.591 5    991653.533 9  18623270.835
  16021540.472   -18690440.547 7 -14474291.894 9  16021543.776
  17890150.644    -9956726.094 6  -7495726.836 9  17890157.429
  15222466.691   -33053594.531 7 -25609129.752 9  15222469.058
  18301528.112   -14921963.651 6 -11503566.982 9  18301531.816
 94  3 24 20 59 29.9830000  0  6  2 18 19  7 27 31
  16449725.089   -27452821.974 7 -21210752.057 9  16449728.944
  18635127.878     1233721.006 5   1040232.595 9  18635134.382
  16018919.073   -18704217.234 7 -14485027.001 9  16018922.355
  17862285.995   -10103155.139 6  -7609827.273 9  17862292.605
  15210521.003   -33116370.000 7 -25658045.707 9  15210523.487
  18309405.050   -14880571.286 6 -11471313.256 9  18309408.694
 94  3 24 20 59 59.9830000  0  6  2 18 19  7 27 31
  16434572.800   -27532447.304 7 -21272797.749 9  16434576.585
  18647013.425     1296178.193 5   1088900.367 9  18647019.144
  16016351.409   -18717709.549 7 -14495540.520 9  16016354.702
  17834465.745   -10249352.570 6  -7723747.211 9  17834471.968
  15198639.222   -33178808.153 7 -25706698.814 9  15198641.612
  18317344.175   -14838851.879 6 -11438804.681 9  18317347.597
 94  3 24 21  0 29.9830000  0  6  2 18 19  7 27 31
  16419462.417   -27611852.960 7 -21334672.264 9  16419466.144
  18658921.620     1358754.192 5   1137660.687 9  18658928.042
  16013841.894   -18730896.898 7 -14505816.405 9  16013845.234
  17806687.589   -10395327.226 6  -7837493.586 9  17806694.210
  15186823.316   -33240901.584 7 -25755083.313 9  15186825.776
  18325344.995   -14796806.073 6 -11406041.796 9  18325348.968
 94  3 24 21  0 59.9830000  0  6  2 18 19  7 27 31
  16404394.784   -27691034.062 7 -21396371.804 9  16404398.382
  18670851.737     1421446.765 5   1186511.832 9  18670857.995
  16011392.761   -18743766.906 7 -14515845.011 9  16011396.042
  17778951.300   -10541081.785 6  -7951068.450 9  17778957.382
  15175073.378   -33302647.625 7 -25803197.115 9  15175075.769
  18333412.769   -14754410.072 6 -11373006.014 9  18333416.214
 94  3 24 21  1 29.9830000  0  6  2 18 19  7 27 31
  16389368.972   -27769995.318 7 -21457900.032 9  16389372.710
  18682802.894     1484249.870 5   1235449.093 9  18682809.210
  16009007.026   -18756303.689 7 -14525613.959 9  16009010.460
  17751260.183   -10686598.859 6  -8064458.260 9  17751266.546
  15163391.370   -33364037.671 7 -25851033.525 9  15163393.855
  18341550.323   -14711648.457 6 -11339685.338 9  18341553.898
 94  3 24 21  1 59.9830000  0  6  2 18 19  7 27 31
  16374386.503   -27848727.405 7 -21519249.688 9  16374390.077
  18694774.800     1547160.865 5   1284470.438 9  18694781.562
  16006688.480   -18768488.522 7 -14535108.660 9  16006691.960
  17723615.753   -10831871.130 6  -8177657.312 9  17723621.999
  15151777.901   -33425066.414 7 -25898588.397 9  15151780.339
  18349756.292   -14668523.265 6 -11306081.345 9  18349759.526
 94  3 24 21  2 29.9830000  0  6  2 18 19  7 27 31
  16359449.730   -27927221.746 7 -21580414.086 9  16359453.351
  18706764.972     1610170.206 5   1333568.410 9  18706772.030
  16004437.159   -18780318.538 7 -14544326.880 9  16004440.523
  17696019.987   -10976888.244 6  -8290657.566 9  17696025.601
  15140232.987   -33485734.358 7 -25945862.125 9  15140235.390
  18358031.550   -14625036.313 6 -11272195.479 9  18358035.159
 94  3 24 21  2 59.9830000  0  6  2 18 19  7 27 31
  16344557.769   -28005479.433 7 -21641394.074 9  16344561.378
  18718776.050     1673287.192 5   1382750.263 9  18718782.577
  16002253.503   -18791794.119 7 -14553268.920 9  16002256.995
  17668473.136   -11121645.794 6  -8403455.550 9  17668478.280
  15128754.847   -33546053.421 7 -25992864.002 9  15128757.296
  18366374.222   -14581198.465 6 -11238036.180 9  18366378.089
 94  3 24 21  3 29.9830000  0  6  2 18 19  7 27 31
  16329712.730   -28083490.571 7 -21702181.951 9  16329716.280
  18730808.823     1736519.318 5   1432021.829 9  18730816.105
  16000140.394   -18802899.374 7 -14561922.392 9  16000143.909
  17640976.909   -11266138.877 6  -8516047.457 9  17640982.429
  15117346.105   -33606007.188 7 -26039581.229 9  15117348.612
  18374780.261   -14537025.046 6 -11203615.393 9  18374784.011
 94  3 24 21  3 59.9830000  0  6  2 18 19  7 27 31
  16314917.472   -28161241.183 7 -21762766.821 9  16314920.976
  18742865.206     1799874.728 5   1481389.440 9  18742872.792
  15998097.245   -18813637.019 7 -14570289.411 9  15998100.726
  17613529.831   -11410374.462 6  -8628438.725 9  17613535.280
  15106008.183   -33665587.442 7 -26086007.408 9  15106010.679
  18383248.206   -14492524.558 6 -11168939.759 9  18383252.026
 94  3 24 21  4 29.9830000  0  6  2 18 19  7 27 31
  16300171.862   -28238730.930 7 -21823148.420 9  16300175.261
  18754944.800     1863356.021 5   1530855.135 9  18754952.749
  15996121.589   -18824019.718 7 -14578379.852 9  15996124.894
  17586134.605   -11554338.489 6  -8740618.386 9  17586139.937
  15094744.417   -33724778.906 7 -26132130.635 9  15094746.866
  18391778.253   -14447697.757 6 -11134009.842 9  18391782.026
 94  3 24 21  4 59.9830000  0  6  2 18 19  7 27 31
  16285475.308   -28315960.875 7 -21883327.578 9  16285478.788
  18767050.159     1926967.142 5   1580422.011 9  18767058.484
  15994211.472   -18834057.468 7 -14586201.506 9  15994214.882
  17558791.769   -11698025.503 6  -8852582.195 9  17558797.417
  15083558.753   -33783559.982 7 -26177934.077 9  15083561.179
  18400368.612   -14402557.923 6 -11098836.009 9  18400372.116
 94  3 24 21  5 29.9830000  0  6  2 18 19  7 27 31
  16270829.073   -28392926.835 7 -21943301.034 9  16270832.671
  18779178.519     1990700.749 5   1630084.328 9  18779186.503
  15992365.941   -18843756.202 7 -14593758.986 9  15992369.210
  17531502.862   -11841427.895 6  -8964324.222 9  17531508.183
  15072453.362   -33841919.346 7 -26223408.915 9  15072455.882
  18409018.433   -14357102.938 6 -11063416.610 9  18409022.241
 94  3 24 21  5 59.9820000  0  6  2 18 19  7 27 31
  16256230.537   -28469641.853 7 -22003078.950 9  16256234.076
  18791329.522     2054554.315 5   1679840.123 9  18791337.412
  15990582.936   -18853124.919 7 -14601059.319 9  15990586.299
  17504270.006   -11984535.548 6  -9075836.572 9  17504275.619
  15061426.811   -33899864.024 7 -26268560.620 9  15061429.424
  18417728.201   -14311331.565 6 -11027750.656 9  18417732.104
 94  3 24 21  6 29.9820000  0  6  2 18 19  7 27 31
  16241674.850   -28546132.893 7 -22062682.343 9  16241678.377
  18803502.990     2118524.013 5   1729686.452 9  18803509.318
  15988861.311   -18862172.837 7 -14608109.669 9  15988864.674
  17477094.365   -12127348.931 6  -9187119.630 9  17477099.580
  15050477.787   -33957402.934 7 -26313396.144 9  15050480.272
  18426500.037   -14265236.499 6 -10991832.487 9  18426503.881
 94  3 24 21  6 59.9820000  0  6  2 18 19  7 27 31
  16227161.459   -28622400.707 8 -22122111.789 9  16227164.940
  18815695.412     2182594.525 5   1779611.284 9  18815703.244
  15987201.365   -18870895.570 7 -14614906.640 9  15987204.869
  17449972.967   -12269869.085 6  -9298174.199 9  17449978.463
  15039603.303   -34014547.996 7 -26357924.768 9  15039605.693
  18435333.115   -14218818.145 6 -10955662.402 9  18435336.807
 94  3 24 21  7 29.9820000  0  6  2 18 19  7 27 31
  16212690.693   -28698446.203 8 -22181368.003 9  16212694.115
  18827903.514     2246749.102 5   1829601.628 9  18827910.549
  15985605.576   -18879282.115 7 -14621441.637 9  15985609.045
  17422904.740   -12412113.795 6  -9409014.141 9  17422909.803
  15028798.584   -34071328.274 7 -26402169.151 9  15028801.068
  18444230.576   -14172061.724 6 -10919228.893 9  18444233.822
 94  3 24 21  7 59.9820000  0  6  2 18 19  7 27 31
  16198261.068   -28774273.172 7 -22240453.939 9  16198264.443
  18840126.264     2310977.377 5   1879649.415 9  18840133.838
  15984072.545   -18887336.540 7 -14627717.846 9  15984076.108
  17395887.779   -12554090.884 6  -9519645.544 9  17395892.772
  15018064.076   -34127736.716 7 -26446123.790 9  15018066.596
  18453190.217   -14124977.612 6 -10882540.034 9  18453194.084
 94  3 24 21  8 29.9820000  0  6  2 18 19  7 27 31
  16183876.709   -28849864.510 8 -22299356.266 9  16183880.119
  18852362.022     2375275.921 5   1929751.968 9  18852369.279
  15982602.412   -18895063.516 7 -14633738.892 9  15982605.916
  17368920.467   -12695802.599 6  -9630070.166 9  17368925.822
  15007401.733   -34183769.159 7 -26489785.445 9  15007404.147
  18462212.889   -14077565.525 6 -10845595.616 9  18462216.873
 94  3 24 21  8 59.9820000  0  6  2 18 19  7 27 31
  16169541.404   -28925197.900 8 -22358057.593 9  16169544.592
  18864613.561     2439655.206 5   1979917.385 9  18864621.193
  15981196.561   -18902450.665 7 -14639495.142 9  15981200.193
  17342004.233   -12837248.254 6  -9740287.461 9  17342009.096
  14996811.272   -34239421.099 7 -26533150.602 9  14996813.674
  18471295.967   -14029830.733 5 -10808399.745 9  18471300.057
 94  3 24 21  9 29.9820000  0  6  2 18 19  7 27 31
  16155254.928   -29000271.654 8 -22416556.610 9  16155258.174
  18876882.615     2504132.803 5   2030159.435 9  18876889.967
  15979855.248   -18909499.869 7 -14644988.059 9  15979858.951
  17315138.881   -12978426.388 6  -9850296.293 9  17315143.920
  14986296.170   -34294678.131 7 -26576208.034 9  14986298.725
  18480440.279   -13981779.889 5 -10770957.594 9  18480444.088
 94  3 24 21  9 59.9820000  0  6  2 18 19  7 27 31
  16141016.967   -29075093.816 8 -22474859.584 9  16141020.190
  18889173.576     2568719.075 5   2080486.132 9  18889181.959
  15978576.264   -18916220.964 7 -14650225.305 9  15978579.990
  17288327.365   -13119320.660 6  -9960083.941 9  17288332.404
  14975859.733   -34349523.309 7 -26618944.551 9  14975862.311
  18489641.709   -13933426.488 5 -10733279.688 9  18489646.350
 94  3 24 21 10 29.9820000  0  6  2 18 19  7 27 31
  16126827.061   -29149661.884 8 -22532964.561 9  16126830.225
  18901483.748     2633408.214 5   2130892.980 9  18901492.119
  15977359.139   -18922617.395 7 -14655209.568 9  15977362.877
  17261571.693   -13259924.424 6 -10069645.218 9  17261577.108
  14965499.045   -34403968.746 7 -26661369.577 9  14965501.611
  18498901.193   -13884766.208 5 -10695362.663 9  18498905.705
 94  3 24 21 10 59.9820000  0  6  2 18 19  7 27 31
  16112685.990   -29223974.136 8 -22590870.195 9  16112689.190
  18913811.334     2698189.848 5   2181371.932 9  18913819.424
  15976205.709   -18928677.882 7 -14659932.063 9  15976209.424
  17234872.615   -13400226.149 6 -10178971.147 9  17234877.690
  14955215.014   -34458012.447 7 -26703481.561 9  14955217.592
  18508218.193   -13835805.030 5 -10657211.175 9  18508222.143
 94  3 24 21 11 29.9820000  0  6  2 18 19  7 27 31
  16098593.264   -29298031.787 8 -22648577.442 9  16098596.475
  18926153.326     2763047.525 5   2231910.169 9  18926161.123
  15975116.772   -18934400.649 7 -14664391.394 9  15975120.404
  17208234.029   -13540213.507 6 -10288052.112 9  17208239.162
  14945008.225   -34511649.023 7 -26745276.306 9  14945010.815
  18517592.514   -13786544.859 5 -10618826.694 9  18517596.147
 94  3 24 21 11 59.9820000  0  6  2 18 19  7 27 31
  16084550.225   -29371828.139 8 -22706081.083 9  16084553.529
  18938506.975     2827965.638 5   2282495.471 8  18938515.463
  15974092.303   -18939785.107 7 -14668587.114 9  15974096.041
  17181657.193   -13679873.506 6 -10396877.999 9  17181662.127
  14934876.725   -34564889.840 7 -26786762.667 9  14934879.326
  18527021.045   -13736994.724 5 -10580216.260 9  18527025.662
 94  3 24 21 12 29.9820000  0  6  2 18 19  7 27 31
  16070557.436   -29445360.017 8 -22763378.633 9  16070560.729
  18950870.209     2892933.432 5   2333119.474 9  18950879.166
  15973133.600   -18944823.235 7 -14672512.957 9  15973137.291
  17155143.045   -13819207.975 6 -10505450.215 9  17155148.061
  14924820.037   -34617739.215 7 -26827944.005 9  14924822.709
  18536505.233   -13687156.738 5 -10541381.557 9  18536509.428
 94  3 24 21 12 59.9820000  0  6  2 18 19  7 27 31
  16056611.436   -29518645.780 8 -22820484.411 9  16056614.740
  18963243.920     2957958.271 5   2383787.928 9  18963252.526
  15972242.998   -18949502.194 7 -14676158.934 9  15972246.690
  17128689.795   -13958221.067 6 -10613772.011 9  17128694.729
  14914838.436   -34670191.854 7 -26868816.210 9  14914840.967
  18546041.287   -13637045.644 5 -10502334.010 9  18546045.424
 94  3 24 21 13 29.9820000  0  6  2 18 19  7 27 31
  16042710.186   -29591697.290 8 -22877407.651 9  16042713.619
  18975631.850     3023057.122 5   2434514.034 9  18975640.373
  15971420.443   -18953824.558 7 -14679527.040 9  15971424.041
  17102294.358   -14096926.402 6 -10721853.990 9  17102299.514
  14904933.975   -34722239.564 7 -26909372.875 9  14904936.565
  18555629.311   -13586661.799 5 -10463073.965 9  18555633.213
 94  3 24 21 13 59.9820000  0  7  2 26 18 19  7 27 31
  16028852.717   -29664518.850 8 -22934151.707 9  16028855.975
  19091607.983     -100689.54315
  18988035.678     3088241.474 5   2485306.797 8  18988044.459
  15970667.522   -18957782.525 7 -14682611.205 9  15970671.178
  17075956.233   -14235335.524 6 -10829705.155 9  17075961.365
  14895107.490   -34773878.849 7 -26949611.288 9  14895110.233
  18565269.764   -13536000.745 5 -10423597.881 9  18565273.901
 94  3 24 21 14 29.9820000  0  7  2 26 18 19  7 27 31
  16015037.061   -29737121.901 8 -22990725.498 9  16015040.365
  19066666.670     -231758.886 5    -23806.87119  19066669.236
  19000454.608     3153502.297 3   2536159.120 9  19000463.799
  15969984.170   -18961373.783 7 -14685409.616 9  15969987.697
  17049672.225   -14373458.410 6 -10937333.288 9  17049677.334
  14885358.951   -34825107.680 7 -26989529.870 9  14885361.623
  18574962.506   -13485063.975 5 -10383906.969 9  18574966.783
 94  3 24 21 14 59.9820000  0  7  2 26 18 19  7 27 31
  16001262.514   -29809505.716 8 -23047128.460 9  16001265.901
  19041781.600     -362530.034 5   -125706.485 9  19041785.080
  19012887.029     3218834.486 3   2587067.003 9  19012896.162
  15969368.561   -18964608.026 7 -14687929.840 9  15969372.100
  17023442.381   -14511295.324 6 -11044738.585 9  17023447.315
  14875689.123   -34875923.313 7 -27029126.478 9  14875691.748
  18584706.623   -13433860.556 5 -10344008.278 9  18584710.854
 94  3 24 21 15 29.9820000  0  7  2 26 18 19  7 27 31
  15987530.725   -29881667.283 8 -23103358.242 9  15987534.065
  19016947.818     -493028.187 5   -227393.326 9  19016951.779
  19025328.764     3284214.255 4   2638011.949 9  19025339.807
  15968818.475   -18967499.213 7 -14690182.743 9  15968822.026
  16997267.037   -14648847.649 6 -11151922.128 9  16997272.111
  14866093.693   -34926346.761 7 -27068417.497 9  14866096.541
  18594500.881   -13382389.559 5 -10303901.077 9  18594504.818
 94  3 24 21 15 59.9820000  0  7  2 26 18 19  7 27 31
  15973839.303   -29953617.348 8 -23159423.215 9  15973842.725
  18992167.053     -623253.136 5   -328867.282 9  18992169.936
  19037775.623     3349613.808 5   2688972.361 9  19037784.498
  15968331.209   -18970060.364 7 -14692178.473 9  15968334.795
  16971148.936   -14786097.588 6 -11258870.050 9  16971154.162
  14856570.506   -34976391.268 7 -27107413.232 9  14856573.295
  18604342.787   -13330671.288 5 -10263601.200 9  18604347.088
 94  3 24 21 16 29.9820000  0  7  2 26 18 19  7 27 31
  15960186.240   -30025363.952 8 -23215329.647 9  15960189.522
  18967440.818     -753196.497 5   -430121.798 9  18967444.404
  19050222.006     3415023.173 5   2739940.416 9  19050231.901
  15967902.865   -18972312.297 7 -14693933.262 9  15967906.393
  16945090.404   -14923036.644 6 -11365575.722 9  16945095.432
  14847119.334   -35026058.119 7 -27146114.688 9  14847122.029
  18614229.654   -13278715.572 5 -10223116.293 9  18614234.002
 94  3 24 21 16 59.9820000  0  7  2 26 18 19  7 27 31
  15946570.459   -30096916.328 8 -23271084.728 9  15946573.799
  18942768.115     -882850.227 5   -531150.669 9  18942771.608
  19062670.092     3480437.096 5   2790911.963 9  19062679.998
  15967528.483   -18974278.870 7 -14695465.686 9  15967532.045
  16919088.936   -15059676.139 6 -11472047.967 9  16919093.846
  14837739.014   -35075352.645 7 -27184526.022 9  14837741.662
  18624161.600   -13226520.849 5 -10182445.157 9  18624166.369
 94  3 24 21 17 29.9820000  0  6  2 26 19  7 27 31
  15932989.365   -30168283.534 8 -23326695.525 9  15932992.752
  18918152.826    -1012204.161 5   -631945.916 9  18918155.943
  15967207.881   -18975963.862 7 -14696778.701 9  15967211.397
  16893145.154   -15196009.907 6 -11578281.993 9  16893150.193
  14828429.436   -35124275.859 7 -27222648.022 9  14828432.002
  18634140.803   -13174080.240 5 -10141582.412 9  18634144.717
 94  3 24 21 17 59.9820000  0  6  2 26 19  7 27 31
  15919445.522   -30239458.285 8 -23382156.356 9  15919448.826
  18893599.983    -1141226.356 5   -732482.671 9  18893602.643
  15966941.061   -18977366.186 7 -14697871.454 9  15966944.494
  16867260.326   -15332034.571 6 -11684275.168 9  16867265.096
  14819195.193   -35172801.297 7 -27260460.069 9  14819197.725
  18644167.795   -13121390.583 5 -10100525.601 9  18644171.943
 94  3 24 21 18 29.9820000  0  6  2 26 19  7 27 31
  15905939.756   -30310430.597 8 -23437459.443 9  15905943.154
  18869108.670    -1269922.801 4   -832765.585 9  18869112.361
  15966731.287   -18978468.862 7 -14698730.713 9  15966734.850
  16841433.600   -15467757.819 6 -11790033.473 9  16841438.486
  14810038.303   -35220921.291 8 -27297956.181 9  14810040.975
  18654244.178   -13068437.851 5 -10059263.817 9  18654248.701
 94  3 24 21 18 59.9820000  0  6  2 26 19  7 27 31
  15892473.897   -30381194.241 8 -23492599.929 9  15892477.225
  18844678.217    -1398310.392 5   -932807.807 9  18844682.401
  15966583.381   -18979247.061 7 -14699337.144 9  15966586.943
  16815663.990   -15603176.519 6 -11895554.472 9  16815668.526
  14800958.647   -35268634.629 8 -27335135.421 9  14800961.307
  18664370.068   -13015226.552 5 -10017800.539 9  18664374.803
 94  3 24 21 19 29.9820000  0  6  2 26 19  7 27 31
  15879049.654   -30451739.263 8 -23547570.065 9  15879052.924
  18820306.701    -1526388.441 5  -1032608.835 9  18820310.662
  15966502.209   -18979672.205 7 -14699668.455 9  15966505.736
  16789956.100   -15738272.836 6 -12000824.262 9  16789960.682
  14791959.092   -35315929.221 8 -27371988.367 9  14791961.658
  18674541.451   -12961774.875 5  -9976149.949 9  18674545.494
 94  3 24 21 19 59.9820000  0  6  2 26 19  7 27 31
  15865667.826   -30522062.721 8 -23602367.556 9  15865671.131
  18795992.139    -1654164.833 5  -1132174.836 9  18795994.951
  15966489.748   -18979737.806 7 -14699719.608 9  15966493.358
  16764309.014   -15873049.126 6 -12105844.691 9  16764313.432
  14783037.623   -35362810.786 8 -27408519.471 9  14783040.225
  18684755.584   -12908102.636 5  -9934327.502 9  18684759.381
 94  3 24 21 20 29.9820000  0  6  2 26 19  7 27 31
  15852328.147   -30592162.832 8 -23656991.007 9  15852331.486
  18771731.037    -1781647.958 5  -1231512.318 9  18771734.354
  15966546.342   -18979441.217 7 -14699488.539 9  15966549.928
  16738723.326   -16007502.492 6 -12210613.483 9  16738727.721
  14774193.076   -35409290.299 7 -27444737.293 9  14774195.760
  18695008.404   -12854224.224 5  -9892344.410 9  18695012.729
 94  3 24 21 20 59.9820000  0  6  2 26 19  7 27 31
  15839031.248   -30662039.065 8 -23711440.008 9  15839034.565
  18747530.764    -1908822.992 5  -1330609.740 9  18747533.928
  15966668.600   -18978798.885 7 -14698988.059 9  15966672.197
  16713198.584   -16141637.146 7 -12315133.926 9  16713202.932
  14765422.764   -35455377.299 7 -27480649.255 9  14765425.424
  18705297.412   -12800156.014 5  -9850213.418 9  18705301.748
 94  3 24 21 21 29.9820000  0  6  2 26 19  7 27 31
  15825775.623   -30731697.170 8 -23765719.042 9  15825778.881
  18723393.350    -2035668.912 5  -1429450.662 9  18723397.076
  15966853.279   -18977827.961 7 -14698231.531 9  15966856.924
  16687733.889   -16275455.309 7 -12419407.754 9  16687738.307
  14756726.733   -35501075.386 7 -27516258.167 9  14756729.416
  18715621.162   -12745901.040 5  -9807936.910 9  18715625.369
 94  3 24 21 21 59.9820000  0  6  2 26 19  7 27 31
  15812558.998   -30801149.673 8 -23819837.864 9  15812562.350
  18699320.225    -2162178.427 5  -1528029.493 9  18699322.568
  15967097.076   -18976545.967 7 -14697232.622 9  15967100.744
  16662327.365   -16408966.333 7 -12523442.257 9  16662331.631
  14748103.787   -35546389.412 7 -27551567.811 9  14748106.342
  18725982.522   -12691454.108 5  -9765510.829 9  18725987.397
 94  3 24 21 22 29.9820000  0  6  2 26 19  7 27 31
  15799380.303   -30870404.598 8 -23873802.732 9  15799383.572
  18675311.076    -2288343.509 5  -1626339.931 9  18675313.350
  15967399.279   -18974958.364 7 -14695995.570 9  15967403.041
  16636979.865   -16542169.793 7 -12627237.101 9  16636984.166
  14739556.240   -35591306.948 7 -27586568.502 9  14739558.865
  18736383.748   -12636795.210 5  -9722919.557 9  18736388.143
 94  3 24 21 22 59.9810000  0  7  2 26 15 19  7 27 31
  15786237.970   -30939468.051 8 -23927618.402 9  15786241.310
  18651368.243    -2414160.137 5  -1724378.841 9  18651371.982
  18761756.157      -37944.66015
  15967760.110   -18973064.546 7 -14694519.911 9  15967763.802
  16611692.837   -16675051.990 7 -12730781.610 9  16611697.431
  14731086.642   -35635815.278 7 -27621250.329 9  14731089.185
  18746828.157   -12581910.178 5  -9680152.085 9  18746832.118
 94  3 24 21 23 29.9810000  0  7  2 26 15 19  7 27 31
  15773129.157   -31008355.437 8 -23981296.879 9  15773132.509
  18627489.056    -2539648.940 5  -1822162.287 9  18627492.220
  18742100.360     -141234.555 5
  15968177.650   -18970870.280 7 -14692810.142 9  15968181.400
  16586466.243   -16807619.898 7 -12834081.223 9  16586470.568
  14722695.345   -35679911.491 7 -27655611.031 9  14722698.028
  18757317.868   -12526789.588 5  -9637201.075 9  18757321.794
 94  3 24 21 23 59.9810000  0  7  2 26 15 19  7 27 31
  15760055.579   -31077058.021 8 -24034831.356 9  15760058.837
  18603670.423    -2664818.684 5  -1919697.126 9  18603673.728
  18722501.564     -244225.145 5    -61503.84019  18722510.017
  15968652.071   -18968376.579 7 -14690867.047 9  15968655.575
  16561301.025   -16939862.409 7 -12937127.280 9  16561305.642
  14714382.876   -35723594.436 7 -27689649.710 9  14714385.454
  18767851.181   -12471430.234 5  -9594063.983 9  18767855.294
 94  3 24 21 24 29.9810000  0  6  2 26 15 19  7 27
  15747020.454   -31145556.857 8 -24088207.067 9  15747023.794
  18579910.892    -2789673.798 5  -2016986.805 9  18579913.083
  18702960.314     -346914.013 5   -141521.005 9  18702967.349
  15969184.735   -18965577.071 7 -14688685.651 9  15969188.321
  16536199.126   -17071774.206 7 -13039915.640 9  16536203.661
  14706148.407   -35766867.959 7 -27723369.353 9  14706151.091
 94  3 24 21 24 59.9810000  0  6  2 26 15 19  7 27
  15734026.509   -31213840.634 8 -24141415.200 9  15734029.872
  18556211.009    -2914213.335 5  -2114030.580 9  18556213.903
  18683477.009     -449298.800 5   -221301.205 9  18683484.150
  15969776.032   -18962471.156 7 -14686265.497 9  15969779.735
  16511158.681   -17203361.502 7 -13142451.142 9  16511163.497
  14697990.071   -35809738.236 7 -27756774.780 9  14697992.743
 94  3 24 21 25 29.9810000  0  6  2 26 15 19  7 27
  15721073.243   -31281909.755 8 -24194456.069 9  15721076.525
  18532573.876    -3038432.095 5  -2210824.384 9  18532576.958
  18664052.056     -551378.167 5   -300843.464 9  18664059.653
  15970426.134   -18959054.498 7 -14683603.206 9  15970429.931
  16486179.814   -17334626.256 7 -13244735.316 9  16486184.091
  14689908.321   -35852209.387 7 -27789869.197 9  14689911.028
 94  3 24 21 25 59.9810000  0  6  2 26 15 19  7 27
  15708160.376   -31349768.383 8 -24247332.917 9  15708163.728
  18508999.954    -3162314.471 5  -2307356.090 9  18509003.458
  18644685.759     -653145.529 5   -380142.577 9  18644693.439
  15971138.259   -18955312.226 7 -14680687.183 9  15971142.232
  16461262.837   -17465566.872 7 -13346766.908 9  16461267.150
  14681902.962   -35894277.734 7 -27822649.740 9  14681905.716
 94  3 24 21 26 29.9810000  0  6  2 26 15 19  7 27
  15695284.087   -31417434.287 8 -24300059.588 9  15695287.415
  18485492.360    -3285847.056 5  -2403615.216 9  18485494.728
  18625379.837     -754600.990 5   -459198.680 9  18625387.013
  15971913.220   -18951239.677 7 -14677513.813 9  15971917.216
  16436404.915   -17596194.798 7 -13448554.849 9  16436409.403
  14673974.548   -35935941.499 7 -27855115.022 9  14673977.314
 94  3 24 21 26 59.9810000  0  6  2 26 15 19  7 27
  15682440.079   -31484929.902 8 -24352653.568 9  15682443.302
  18462052.712    -3409020.709 5  -2499594.674 9  18462056.087
  18606133.525     -855740.686 5   -538008.701 9  18606140.396
  15972752.751   -18946828.205 7 -14674076.349 9  15972756.782
  16411608.978   -17726498.189 7 -13550089.903 9  16411613.232
  14666125.110   -35977189.178 7 -27887256.086 9  14666127.876
 94  3 24 21 27 29.9810000  0  6  2 26 15 19  7 27
  15669625.048   -31552271.799 8 -24405127.767 9  15669628.353
  18438683.282    -3531828.965 5  -2595289.392 9  18438687.419
  18586946.571     -956563.083 5   -616571.502 9  18586953.794
  15973658.126   -18942070.633 7 -14670369.194 9  15973662.122
  16386878.743   -17856456.896 7 -13651356.371 9  16386883.103
  14658356.376   -36018014.342 7 -27919067.910 9  14658359.224
 94  3 24 21 27 59.9810000  0  6  2 26 15 19  7 27
  15656839.829   -31619458.153 8 -24457480.767 9  15656843.193
  18415384.251    -3654264.493 5  -2690693.658 9  18415387.814
  18567821.454    -1057067.362 5   -694886.407 9  18567827.782
  15974628.759   -18936970.621 7 -14666395.193 9  15974632.720
  16362214.532   -17986066.150 7 -13752350.535 9  16362218.810
  14650668.173   -36058416.542 7 -27950550.153 9  14650670.997
 94  3 24 21 28 29.9810000  0  6  2 26 15 19  7 27
  15644087.993   -31686469.974 8 -24509697.767 9  15644091.333
  18392153.728    -3776343.008 5  -2785819.757 9  18392157.630
  18548756.915    -1157249.605 5   -772950.368 9  18548764.853
  15975663.579   -18931531.615 7 -14662157.037 9  15975667.564
  16337621.212   -18115307.410 7 -13853057.954 9  16337625.302
  14643059.689   -36098399.919 7 -27981706.045 9  14643062.595
 94  3 24 21 28 59.9810000  0  6  2 26 15 19  7 27
  15631371.853   -31753293.526 8 -24561768.061 9  15631375.239
  18368988.689    -3898077.378 5  -2880677.668 9  18368992.427
  18529754.962    -1257108.154 5   -850762.098 9  18529762.806
  15976759.235   -18925773.299 7 -14657670.077 9  15976763.079
  16313101.009   -18244160.947 7 -13953463.247 9  16313105.216
  14635528.431   -36137977.088 7 -28012545.410 9  14635531.278
 94  3 24 21 29 29.9810000  0  6  2 26 15 19  7 27
  15618696.196   -31819906.194 8 -24613674.027 9  15618699.407
  18345886.790    -4019476.381 5  -2975274.282 9  18345890.517
  18510814.431    -1356640.861 5   -928319.931 9  18510821.618
  15977912.907   -18919712.785 7 -14652947.645 9  15977916.505
  16288654.556   -18372627.269 7 -14053566.814 9  16288658.728
  14628071.243   -36177165.580 7 -28043081.910 9  14628074.068
 94  3 24 21 29 59.9810000  0  6  2 26 15 19  7 27
  15606063.275   -31886292.221 8 -24665403.391 9  15606066.415
  18322845.837    -4140560.404 5  -3069625.446 9  18322848.989
  18491936.353    -1455847.347 5  -1005623.555 9  18491942.833
  15979121.275   -18913362.543 7 -14647999.443 9  15979124.814
  16264278.798   -18500721.309 7 -14153380.291 9  16264282.970
  14620685.337   -36215978.175 7 -28073325.507 9  14620688.220
 94  3 24 21 30 29.9810000  0  6  2 26 15 19  7 27
  15593472.431   -31952457.556 8 -24716960.786 9  15593475.607
  18299862.032    -4261336.490 5  -3163736.666 9  18299865.091
  18473119.673    -1554728.257 5  -1082673.505 9  18473126.482
  15980382.485   -18906734.831 7 -14642835.030 9  15980386.001
  16239971.689   -18628456.245 7 -14252913.951 9  16239975.978
  14613370.993   -36254415.711 7 -28103276.856 9  14613373.689
 94  3 24 21 30 59.9810000  0  6  2 26 15 19  7 27
  15580922.876   -32018407.155 8 -24768350.074 9  15580926.017
  18276942.673    -4381782.502 6  -3257590.681 9  18276945.720
  18454366.595    -1653277.138 5  -1159464.724 9  18454373.946
  15981697.517   -18899825.571 7 -14637451.237 9  15981701.068
  16215729.978   -18755847.048 7 -14352179.454 9  16215734.185
  14606131.556   -36292458.907 7 -28132920.921 9  14606134.239
 94  3 24 21 31 29.9810000  0  6  2 26 15 19  7 27
  15568412.798   -32084146.803 8 -24819575.766 9  15568415.950
  18254085.720    -4501892.362 6  -3351182.762 9  18254088.685
  18435675.743    -1751493.979 5  -1235997.210 9  18435682.696
  15983070.579   -18892609.495 7 -14631828.360 9  15983074.282
  16191550.556   -18882911.580 7 -14451190.723 9  16191554.833
  14598973.579   -36330074.501 7 -28162231.778 9  14598976.333
 94  3 24 21 31 59.9810000  0  6  2 26 15 19  7 27
  15555940.243   -32149691.190 8 -24870649.309 9  15555943.302
  18231299.407    -4621639.433 6  -3444492.171 9  18231301.833
  18417051.025    -1849370.996 5  -1312264.910 9  18417058.224
  15984506.485   -18885063.852 7 -14625948.687 9  15984510.130
  16167431.626   -19009655.483 7 -14549952.151 9  16167435.915
  14591901.485   -36367237.482 7 -28191189.960 9  14591904.380
 94  3 24 21 32 29.9810000  0  6  2 26 15 19  7 27
  15543501.462   -32215057.021 8 -24921583.717 9  15543504.485
  18208584.939    -4741003.032 6  -3537502.746 9  18208588.150
  18398490.673    -1946906.161 5  -1388266.204 9  18398497.860
  15986006.150   -18877183.091 7 -14619807.874 9  15986009.876
  16143374.743   -19136076.176 7 -14648461.722 9  16143379.009
  14584916.735   -36403944.115 7 -28219792.547 9  14584919.478
 94  3 24 21 32 59.9810000  0  6  2 26 15 19  7 27
  15531095.946   -32280248.703 8 -24972382.421 9  15531098.993
  18185943.243    -4859987.940 6  -3630218.238 9  18185945.634
  18379995.751    -2044096.195 5  -1463998.606 9  18380001.552
  15987573.157   -18868948.290 7 -14613391.190 9  15987576.954
  16119380.259   -19262165.743 7 -14746713.277 9  16119384.583
  14578019.189   -36440191.485 7 -28248037.265 9  14578021.978
 94  3 24 21 33 29.9810000  0  6  2 26 15 19  7 27
  15518720.853   -32345279.639 8 -25023055.869 9  15518723.806
  18163374.275    -4978587.299 6  -3722633.309 9  18163377.040
  18361567.392    -2140936.409 5  -1539458.399 9  18361574.603
  15989208.079   -18860356.460 7 -14606696.308 9  15989211.864
  16095451.657   -19387912.104 7 -14844697.397 9  16095455.970
  14571204.032   -36476004.702 7 -28275943.682 9  14571206.763
 94  3 24 21 33 59.9810000  0  6  2 26 15 19  7 27
  15506375.353   -32410156.105 8 -25073608.951 9  15506378.329
  18140880.978    -5096795.579 6  -3814743.614 9  18140883.896
  18343206.931    -2237423.595 5  -1614643.088 9  18343213.540
  15990906.337   -18851431.550 7 -14599741.879 9  15990910.122
  16071590.517   -19513302.916 7 -14942404.463 9  16071594.876
  14564463.314   -36511426.580 7 -28303545.159 9  14564466.150
 94  3 24 21 34 29.9810000  0  6  2 26 15 19  7 27
  15494060.400   -32474872.649 8 -25124037.423 9  15494063.364
  18118457.556    -5214624.386 5  -3906558.245 9  18118460.403
  18324913.314    -2333555.789 5  -1689551.161 9  18324919.419
  15992664.165   -18842196.069 7 -14592545.451 9  15992667.939
  16047800.446   -19638321.706 7 -15039821.644 9  16047804.724
  14557796.157   -36546462.710 7 -28330846.052 9  14557799.087
 94  3 24 21 34 59.9810000  0  6  2 26 15 19  7 27
  15481776.103   -32539424.054 8 -25174337.214 9  15481779.114
  18096106.251    -5332077.170 5  -3998079.880 9  18096109.134
  18306688.485    -2429330.403 5  -1764180.642 9  18306694.485
  15994477.985   -18832664.062 7 -14585117.966 9  15994481.946
  16024083.267   -19762954.238 7 -15136937.848 9  16024087.532
  14551202.345   -36581116.360 7 -28357848.909 9  14551205.181
 94  3 24 21 35 29.9810000  0  6  2 26 15 19  7 27
  15469526.532   -32603796.835 8 -25224497.815 9  15469529.521
  18073831.618    -5449137.362 5  -4089295.588 9  18073834.677
  18288531.118    -2524746.446 6  -1838530.714 9  18288536.298
  15996344.650   -18822855.813 7 -14577475.225 9  15996348.470
  16000440.829   -19887197.222 7 -15233750.509 9  16000444.978
  14544678.431   -36615397.193 7 -28384561.269 9  14544681.138
 94  3 24 21 35 59.9810000  0  6  2 26 15 19  7 27
  15457314.509   -32667973.686 8 -25274505.745 9  15457317.427
  18051629.204    -5565811.561 5  -4180210.527 9  18051632.896
  18270442.165    -2619803.224 6  -1912600.810 9  18270447.650
  15998262.946   -18812774.937 7 -14569620.052 9  15998266.720
  15976871.954   -20011052.906 7 -15330261.367 9  15976876.150
  14538231.595   -36649275.206 7 -28410959.733 9  14538234.466
 94  3 24 21 36 29.9810000  0  6  2 26 15 19  7 27
  15445138.298   -32731959.115 8 -25324364.521 9  15445141.169
  18029497.485    -5682114.880 5  -4270836.452 9  18029501.341
  18252421.735    -2714503.474 6  -1986393.116 9  18252427.888
  16000235.595   -18802409.665 7 -14561543.273 9  16000239.321
  15953373.087   -20134538.962 7 -15426484.212 9  15953377.271
  14531866.548   -36682724.428 7 -28437024.077 9  14531869.513
 94  3 24 21 36 59.9810000  0  6  2 26 15 19  7 27
  15432999.337   -32795751.168 8 -25374072.609 9  15433002.056
  18007436.407    -5798045.194 5  -4361171.753 9  18007439.478
  18234469.728    -2808838.642 6  -2059900.939 9  18234475.364
  16002269.048   -18791724.552 7 -14553217.268 9  16002272.693
  15929943.618   -20257662.421 7 -15522424.513 9  15929947.872
  14525584.142   -36715737.566 7 -28462748.614 9  14525587.013
 94  3 24 21 37 29.9810000  0  6  2 26 15 19  7 27
  15420895.220   -32859358.878 8 -25423637.059 9  15420897.892
  17985445.376    -5913608.397 5  -4451220.979 9  17985448.892
  18216587.118    -2902810.440 6  -2133125.618 9  18216592.966
  16004366.048   -18780703.843 7 -14544629.772 9  16004369.798
  15906580.696   -20380434.046 7 -15618090.653 9  15906585.150
  14519385.275   -36748313.100 7 -28488132.170 9  14519388.193
 94  3 24 21 37 59.9810000  0  6  2 26 15 19  7 27
  15408820.650   -32922810.336 8 -25473079.746 9  15408823.485
  17963519.610    -6028828.114 5  -4541002.548 9  17963523.103
  18198774.150    -2996422.442 6  -2206069.940 9  18198779.446
  16006526.079   -18769351.607 7 -14535783.936 9  16006529.935
  15883284.470   -20502856.544 7 -15713484.744 9  15883288.771
  14513269.806   -36780449.140 7 -28513173.251 9  14513272.642
 94  3 24 21 38 29.9810000  0  6  2 26 15 19  7 27
  15396771.868   -32986127.215 8 -25522417.568 9  15396774.646
  17941658.696    -6143707.472 5  -4630518.911 9  17941662.212
  18181028.001    -3089676.577 5  -2278735.404 9  18181034.505
  16008746.259   -18757685.041 7 -14526693.159 9  16008750.091
  15860057.696   -20624913.169 7 -15808593.744 9  15860062.068
  14507234.790   -36812164.298 7 -28537886.381 9  14507237.708
 94  3 24 21 38 59.9810000  0  6  2 26 15 19  7 27
  15384749.681   -33049303.344 8 -25571645.717 9  15384752.458
  17919867.040    -6258226.327 6  -4719754.377 9  17919870.216
  18163350.314    -3182571.186 5  -2351120.735 9  18163357.052
  16011023.267   -18745719.604 7 -14517369.498 9  16011027.099
  15836905.228   -20746580.977 7 -15903399.770 9  15836909.423
  14501278.337   -36843466.973 7 -28562278.095 9  14501281.150
 94  3 24 21 39 29.9810000  0  6  2 26 15 19  7 27
  15372756.181   -33112329.136 8 -25620756.721 9  15372759.028
  17898145.243    -6372373.001 5  -4808699.816 9  17898147.962
  18145742.446    -3275102.459 5  -2423222.923 9  18145748.470
  16013351.673   -18733484.188 7 -14507835.459 9  16013355.751
  15813828.360   -20867848.961 7 -15997894.249 9  15813832.614
  14495399.728   -36874357.677 7 -28586348.802 9  14495402.528
 94  3 24 21 39 59.9800000  0  6  2 26 15 19  7 27
  15360792.106   -33175201.560 8 -25669748.218 9  15360794.942
  17876495.012    -6486149.418 6  -4897356.747 9  17876497.860
  18128204.090    -3367268.238 5  -2495040.324 9  18128210.137
  16015727.082   -18721001.157 7 -14498108.481 9  16015731.043
  15790825.715   -20988729.536 7 -16092086.852 9  15790829.934
  14489601.520   -36904828.129 7 -28610092.025 9  14489604.309
 94  3 24 21 40 29.9800000  0  6  2 26 15 19  7 27
  15348859.973   -33237905.011 8 -25718608.046 9  15348862.750
  17854916.215    -6599544.806 6  -4985716.781 9  17854919.238
  18110733.762    -3459072.123 5  -2566575.762 9  18110740.043
  16018153.020   -18708254.235 7 -14488175.871 9  16018157.156
  15767893.449   -21109238.954 7 -16185990.239 9  15767897.715
  14483882.535   -36934881.334 7 -28633510.114 9  14483885.465
 94  3 24 21 40 59.9800000  0  6  2 26 15 19  7 27
  15336963.402   -33300421.479 8 -25767322.175 9  15336966.297
  17833410.824    -6712556.074 6  -5073777.506 9  17833413.426
  18093334.067    -3550506.881 5  -2637823.558 9  18093339.539
  16020633.692   -18695218.323 7 -14478018.079 9  16020637.817
  15745027.090   -21229401.059 7 -16279622.996 9  15745031.449
  14478242.152   -36964523.067 7 -28656607.584 9  14478245.141
 94  3 24 21 41 29.9800000  0  6  2 26 15 19  7 27
  15325101.785   -33362753.619 8 -25815892.673 9  15325104.703
  17811976.668    -6825193.494 6  -5161546.914 9  17811979.586
  18076004.942    -3641570.951 5  -2708782.502 9  18076011.117
  16023171.684   -18681881.995 7 -14467626.186 9  16023175.762
  15722223.152   -21349238.063 7 -16373002.428 9  15722227.324
  14472680.309   -36993749.988 7 -28679381.836 9  14472683.238
 94  3 24 21 41 59.9800000  0  6  2 26 15 19  7 27
  15313274.676   -33424906.293 8 -25864323.326 9  15313277.641
  17790616.660    -6937439.523 6  -5249011.344 9  17790619.707
  18058748.067    -3732258.912 5  -2779448.403 9  18058753.563
  16025770.512   -18668223.540 7 -14456983.284 9  16025774.754
  15699481.652   -21468743.784 7 -16466123.714 9  15699485.930
  14467198.449   -37022557.107 7 -28701828.964 9  14467201.426
 94  3 24 21 42 29.9800000  0  6  2 26 15 19  7 27
  15301482.207   -33486875.826 8 -25912611.271 9  15301485.207
  17769334.504    -7049278.584 6  -5336158.654 9  17769337.820
  18041562.340    -3822568.023 5  -2849819.070 9  18041567.367
  16028434.395   -18654225.718 7 -14446075.948 9  16028438.449
  15676807.887   -21587895.498 7 -16558969.152 9  15676812.000
  14461792.832   -37050964.449 7 -28723964.573 9  14461795.891
 94  3 24 21 42 59.9800000  0  6  2 26 15 19  7 27
  15289723.512   -33548668.045 8 -25960761.052 9  15289726.500
  17748128.817    -7160719.549 6  -5422995.760 9  17748132.039
  18024449.488    -3912492.962 5  -2919890.362 9  18024455.934
  16031161.527   -18639895.208 7 -14434909.380 9  16031165.723
  15654203.535   -21706682.297 7 -16651530.239 9  15654207.695
  14456465.121   -37078961.168 7 -28745780.214 9  14456468.027
 94  3 24 21 43 29.9800000  0  6  2 26 15 19  7 27
  15277995.567   -33610299.950 8 -26008785.908 9  15277998.567
  17726999.012    -7271750.892 6  -5509513.683 9  17727001.965
  18007411.832    -4002030.176 5  -2989659.575 9  18007418.926
  16033949.684   -18625243.451 7 -14423492.480 9  16033953.867
  15631672.426   -21825083.490 7 -16743790.858 9  15631676.539
  14451219.113   -37106530.116 7 -28767262.522 9  14451222.067
 94  3 24 21 43 59.9800000  0  6  2 26 15 19  7 27
  15266296.152   -33671780.247 8 -26056692.635 9  15266299.094
  17705949.074    -7382372.621 6  -5595712.420 9  17705952.004
  17990448.785    -4091172.488 5  -3059121.068 9  17990454.492
  16036799.270   -18610270.011 7 -14411824.915 9  16036803.465
  15609218.309   -21943081.695 7 -16835737.461 9  15609222.340
  14446052.723   -37133680.426 7 -28788418.628 9  14446055.629
 94  3 24 21 44 29.9800000  0  6  2 26 15 19  7 27
  15254625.801   -33733109.739 8 -26104481.848 9  15254628.613
  17684972.918    -7492605.126 6  -5681607.860 9  17684976.070
  17973559.848    -4179919.197 5  -3128274.290 9  17973566.906
  16039707.840   -18594982.923 7 -14399912.960 9  16039711.871
  15586840.871   -22060674.476 7 -16927368.154 9  15586844.820
  14440965.496   -37160413.750 7 -28809249.808 9  14440968.402
 94  3 24 21 44 59.9800000  0  6  2 26 15 19  7 27
  15242981.574   -33794299.048 8 -26152161.829 9  15242984.469
  17664069.496    -7602448.918 6  -5767200.406 9  17664072.555
  17956748.543    -4268266.960 5  -3197116.627 9  17956754.180
  16042671.574   -18579408.965 7 -14387777.461 9  16042675.442
  15564540.090   -22177867.071 7 -17018687.022 9  15564543.945
  14435960.340   -37186716.555 7 -28829745.519 9  14435963.141
 94  3 24 21 45 29.9800000  0  6  2 26 15 19  7 27
  15231365.137   -33855344.087 8 -26199729.395 9  15231367.996
  17643245.074    -7711883.988 6  -5852474.487 9  17643247.770
  17940013.606    -4356208.492 5  -3265642.435 9  17940020.016
  16045688.856   -18563553.741 7 -14375422.807 9  16045693.203
  15542315.746   -22294654.640 7 -17109690.283 9  15542319.789
  14431036.363   -37212592.597 7 -28849908.700 9  14431039.188
 94  3 24 21 45 59.9800000  0  6  2 26 15 19  7 27
  15219780.059   -33916223.592 8 -26247167.975 9  15219782.918
  17622496.504    -7820918.895 6  -5937436.731 9  17622499.363
  17923356.715    -4443743.255 5  -3333851.311 9  17923363.078
  16048758.168   -18547426.086 7 -14362855.863 9  16048762.223
  15520168.481   -22411040.948 7 -17200380.877 9  15520172.289
  14426191.551   -37238051.058 7 -28869746.492 9  14426194.340
 94  3 24 21 46 29.9800000  0  6  2 26 15 19  7 27
  15208229.207   -33976925.899 8 -26294468.468 9  15208231.973
  17601825.059    -7929544.261 6  -6022079.860 9  17601828.164
  17906777.270    -4530866.502 5  -3401739.482 9  17906784.223
  16051879.434   -18531023.614 7 -14350074.777 9  16051883.488
  15498099.449   -22527014.575 7 -17290749.899 9  15498103.141
  14421428.762   -37263080.589 7 -28889250.045 9  14421431.586
 94  3 24 21 46 59.9800000  0  6  2 26 15 19  7 27
  15196710.246   -34037457.102 8 -26341635.641 9  15196713.082
  17581233.152    -8037754.560 6  -6106399.567 9  17581236.410
  17890276.965    -4617576.070 5  -3469305.333 9  17890282.789
  16055054.293   -18514340.221 7 -14337074.790 9  16055058.301
  15476107.676   -22642581.105 7 -17380801.704 9  15476111.637
  14416747.168   -37287681.911 7 -28908419.927 9  14416750.086
 94  3 24 21 47 29.9800000  0  6  2 26 15 19  7 27
  15185226.113   -34097806.665 8 -26388661.274 9  15185228.891
  17560720.027    -8145555.847 6  -6190400.560 9  17560723.356
  17873856.059    -4703868.008 5  -3536545.759 9  17873862.281
  16058287.457   -18497348.882 7 -14323834.844 9  16058291.430
  15454193.621   -22757741.139 7 -17470536.759 9  15454197.383
  14412147.098   -37311856.063 7 -28927256.952 9  14412150.051
 94  3 24 21 47 59.9800000  0  6  2 26 15 19  7 27
  15173776.777   -34157972.814 8 -26435543.984 9  15173779.660
  17540282.887    -8252950.852 6  -6274084.958 9  17540286.110
  17857514.918    -4789740.909 5  -3603459.656 9  17857521.457
  16061581.277   -18480040.553 7 -14310347.897 9  16061585.379
  15432358.254   -22872486.478 7 -17559948.672 9  15432362.086
  14407627.902   -37335603.893 7 -28945761.773 9  14407630.809
 94  3 24 21 48 29.9800000  0  6  2 26 15 19  7 27
  15162359.090   -34217973.338 8 -26482297.637 9  15162361.914
  17519928.246    -8359918.132 6  -6357436.066 9  17519931.680
  17841254.637    -4875189.021 5  -3670042.577 9  17841260.180
  16064936.184   -18462411.453 7 -14296610.998 9  16064940.145
  15410601.809   -22986816.460 7 -17649036.932 9  15410605.793
  14403191.887   -37358916.210 7 -28963927.227 9  14403194.805
 94  3 24 21 48 59.9800000  0  6  2 26 15 19  7 27
  15150974.137   -34277801.527 8 -26528917.001 9  15150976.926
  17499657.324    -8466440.610 6  -6440440.583 9  17499660.746
  17825076.496    -4960206.800 5  -3736290.149 9  17825083.176
  16068350.457   -18444468.072 7 -14282629.205 9  16068354.559
  15388922.699   -23100741.892 7 -17737809.957 9  15388926.895
  14398840.832   -37381781.648 7 -28981744.471 9  14398843.750
 94  3 24 21 49 29.9800000  0  6  2 26 15 19  7 27
  15139622.145   -34337456.174 8 -26575401.140 9  15139624.981
  17479473.324    -8572509.477 6  -6523091.648 9  17479476.442
  17808979.223    -5044796.822 5  -3802204.413 9  17808984.977
  16071823.027   -18426220.806 7 -14268410.620 9  16071827.188
  15367320.465   -23214261.287 7 -17826266.589 9  15367324.344
  14394574.192   -37404201.433 7 -28999214.464 9  14394577.203
 94  3 24 21 49 59.9800000  0  6  2 26 15 19  7 27
  15128301.738   -34396945.149 8 -26621756.184 9  15128304.621
  17459376.840    -8678116.206 6  -6605382.589 9  17459379.805
  17792964.371    -5128955.040 5  -3867782.203 9  17792971.110
  16075354.770   -18407661.822 7 -14253949.140 9  16075358.848
  15345796.684   -23327370.231 7 -17914403.391 9  15345800.703
  14390394.465   -37426167.114 7 -29016330.604 9  14390397.500
 94  3 24 21 50 29.9800000  0  6  2 26 15 19  7 27
  15117012.309   -34456271.892 8 -26667984.814 9  15117015.086
  17439368.410    -8783261.205 6  -6687313.762 9  17439371.410
  17777032.863    -5212676.814 5  -3933019.909 9  17777039.320
  16078947.981   -18388778.743 7 -14239235.118 9  16078952.164
  15324349.785   -23440073.854 7 -18002224.361 9  15324353.570
  14386303.660   -37447665.338 7 -29033082.481 9  14386306.660
 94  3 24 21 50 59.9800000  0  6  2 26 15 19  7 27
  15105755.824   -34515424.643 8 -26714077.864 9  15105758.672
  17419445.746    -8887959.296 6  -6768896.673 9  17419448.301
  17761184.418    -5295960.764 6  -3997916.452 9  17761189.938
  16082605.988   -18369557.262 7 -14224257.399 9  16082610.172
  15302982.785   -23552358.988 7 -18089719.243 9  15302986.617
  14382301.027   -37468698.408 7 -29049471.911 9  14382304.004
 94  3 24 21 51 29.9800000  0  6  2 26 15 19  7 27
  15094532.317   -34574404.906 8 -26760036.512 9  15094535.258
  17399603.574    -8992227.081 6  -6850144.303 9  17399606.375
  17745420.129    -5378803.533 6  -4062469.216 9  17745425.719
  16086329.481   -18349990.372 7 -14209010.536 9  16086333.770
  15281696.723   -23664218.254 7 -18176882.272 9  15281700.602
  14378387.043   -37489268.077 7 -29065500.250 9  14378390.008
 94  3 24 21 51 59.9800000  0  6  2 26 15 19  7 27
  15083340.824   -34633216.060 8 -26805863.380 9  15083343.613
  17379842.145    -9096073.426 6  -6931063.534 9  17379844.899
  17729739.879    -5461205.915 6  -4126678.800 9  17729744.871
  16090114.668   -18330097.562 7 -14193509.707 9  16090118.828
  15260491.676   -23775649.530 7 -18263711.802 9  15260495.402
  14374559.988   -37509377.530 7 -29081169.985 9  14374562.906
 94  3 24 21 52 29.9800000  0  6  2 26 15 19  7 27
  15072179.426   -34691871.218 8 -26851568.691 9  15072182.121
  17360160.809    -9199503.869 6  -7011658.686 9  17360163.692
  17714140.184    -5543182.573 6  -4190556.670 9  17714145.434
  16093951.895   -18309934.606 7 -14177798.378 9  16093956.313
  15239366.918   -23886662.855 7 -18350215.658 9  15239370.539
  14370817.020   -37529048.100 7 -29096497.731 9  14370819.961
 94  3 24 21 52 59.9800000  0  6  2 26 15 19  7 27
  15061051.324   -34750349.080 8 -26897135.856 9  15061054.067
  17340560.981    -9302496.964 6  -7091913.041 9  17340563.711
  17698624.457    -5624714.144 6  -4254087.717 9  17698629.731
  16097838.465   -18289509.642 7 -14161882.888 9  16097842.824
  15218325.895   -23997233.155 7 -18436374.293 9  15218329.445
  14367158.106   -37548274.718 7 -29111479.533 9  14367160.977
 94  3 24 21 53 29.9800000  0  6  2 26 15 19  7 27
  15049958.410   -34808643.267 8 -26942559.898 9  15049961.188
  17321050.387    -9405028.170 6  -7171807.471 9  17321053.668
  17683198.192    -5705783.818 6  -4317258.829 9  17683203.301
  16101774.113   -18268826.637 7 -14145766.322 9  16101778.391
  15197368.934   -24107362.166 7 -18522189.069 9  15197372.567
  14363585.965   -37567047.934 7 -29126108.042 9  14363588.895
 94  3 24 21 53 59.9800000  0  6  2 26 15 19  7 27
  15038896.067   -34866776.364 8 -26987858.411 9  15038898.844
  17301627.777    -9507095.413 6  -7251340.387 9  17301630.649
  17667857.113    -5786401.652 6  -4380077.890 9  17667862.668
  16105756.543   -18247899.459 7 -14129459.497 9  16105760.844
  15176494.246   -24217058.816 7 -18607666.934 9  15176497.785
  14360097.848   -37585377.840 7 -29140391.114 9  14360100.742
 94  3 24 21 54 29.9800000  0  6  2 26 15 19  7 27
  15027861.676   -34924762.838 8 -27033042.676 9  15027864.453
  17282291.113    -9608707.649 6  -7330518.742 9  17282293.996
  17652601.270    -5866569.799 6  -4442546.532 9  17652606.883
  16109789.824   -18226706.879 7 -14112945.866 9  16109794.254
  15155698.668   -24326341.155 7 -18692821.966 9  15155702.125
  14356693.442   -37603269.338 7 -29154332.567 9  14356696.348
 94  3 24 21 54 59.9800000  0  6  2 26 15 19  7 27
  15016858.199   -34982586.367 8 -27078099.971 9  15016860.836
  17263040.051    -9709873.813 6  -7409349.507 9  17263042.817
  17637433.270    -5946278.518 6  -4504657.187 9  17637438.473
  16113882.176   -18205201.842 7 -14096188.752 9  16113886.277
  15134982.832   -24435204.176 7 -18777650.253 9  15134986.266
  14353374.317   -37620711.764 7 -29167924.091 9  14353377.176
 94  3 24 21 55 29.9800000  0  6  2 26 15 19  7 27
  15005885.027   -35040248.763 8 -27123031.707 9  15005887.969
  17243873.152    -9810598.897 6  -7487836.577 9  17243876.199
  17622353.520    -6025523.489 6  -4566406.459 9  17622358.512
  16118037.879   -18183363.629 7 -14079172.035 9  16118042.133
  15114346.520   -24543645.765 7 -18862150.151 9  15114350.070
  14350143.254   -37637690.069 7 -29181153.975 9  14350146.113
 94  3 24 21 55 59.9800000  0  6  2 26 15 19  7 27
  14994943.020   -35097750.123 8 -27167837.957 9  14994945.961
  17224788.785    -9910885.823 6  -7565982.225 9  17224791.879
  17607360.707    -6104307.821 6  -4627796.811 9  17607365.992
  16122259.270   -18161180.132 7 -14061886.261 9  16122263.676
  15093793.223   -24651655.827 7 -18946313.793 9  15093796.715
  14346999.285   -37654212.380 7 -29194028.535 9  14347002.227
 94  3 24 21 56 29.9790000  0  6  2 26 15 19  7 27
  14984034.530   -35155073.785 8 -27212505.745 9  14984037.366
  17205790.296   -10010724.975 6  -7643778.957 9  17205793.448
  17592458.304    -6182622.251 6  -4688821.001 9  17592463.554
  16126549.030   -18138636.854 7 -14044320.144 9  16126553.577
  15073323.921   -24759221.696 7 -19030131.318 9  15073327.472
  14343940.319   -37670287.794 7 -29206554.867 9  14343943.319
 94  3 24 21 56 59.9790000  0  6  2 26 15 19  7 27
  14973161.538   -35212212.975 8 -27257029.789 9  14973164.456
  17186878.312   -10110106.453 6  -7721219.061 9  17186881.769
  17577644.507    -6260470.470 6  -4749481.915 9  17577649.335
  16130904.530   -18115750.342 7 -14026486.563 9  16130909.030
  15052939.609   -24866341.811 7 -19113601.499 9  15052943.112
  14340964.718   -37685923.123 7 -29218738.274 9  14340967.765
 94  3 24 21 57 29.9790000  0  6  2 26 15 19  7 27
  14962319.265   -35269190.511 8 -27301427.871 9  14962322.054
  17168058.023   -10209005.544 6  -7798283.279 9  17168061.128
  17562918.859    -6337853.408 5  -4809780.267 9  17562924.109
  16135319.593   -18092548.207 6 -14008407.022 9  16135323.999
  15032640.749   -24973013.011 7 -19196721.879 9  15032644.523
  14338069.468   -37701139.070 7 -29230594.882 9  14338072.679
 94  3 24 21 57 59.9790000  0  6  2 26 15 19  7 27
  14951507.366   -35326005.839 8 -27345699.553 9  14951510.191
  17149332.991   -10307409.035 6  -7874961.321 9  17149336.097
  17548282.288    -6414767.301 5  -4869713.147 9  17548287.374
  16139793.218   -18069038.206 6 -13990087.599 9  16139797.566
  15012426.616   -25079239.629 7 -19279495.833 9  15012430.296
  14335251.148   -37715948.337 7 -29242134.604 9  14335254.288
 94  3 24 21 58 29.9790000  0  6  2 26 15 19  7 27
  14940727.499   -35382653.943 8 -27389840.930 9  14940730.546
  17130698.874   -10405327.176 6  -7951261.164 9  17130702.097
  17533736.624    -6491209.292 5  -4929278.308 9  17533742.155
  16144321.218   -18045243.116 6 -13971546.039 9  16144325.566
  14992296.390   -25185023.484 7 -19361924.777 9  14992300.222
  14332513.554   -37730335.305 7 -29253345.259 9  14332516.812
 94  3 24 21 58 59.9790000  0  6  2 26 15 19  7 27
  14929980.718   -35439129.562 8 -27433847.902 9  14929983.648
  17112155.655   -10502774.878 6  -8027194.428 9  17112159.007
  17519279.507    -6567177.025 5  -4988473.917 9  17519285.144
  16148901.749   -18021173.005 6 -13952790.168 9  16148906.214
  14972250.718   -25290364.805 7 -19444008.881 9  14972254.550
  14329857.734   -37744290.910 7 -29264219.785 9  14329860.898
 94  3 24 21 59 29.9790000  0  6  2 26 15 19  7 27
  14919266.202   -35495434.911 8 -27477722.200 9  14919269.085
  17093698.249   -10599770.649 6  -8102775.549 9  17093701.507
  17504913.773    -6642669.046 5  -5047298.842 9  17504919.093
  16153536.085   -17996821.261 6 -13933814.853 9  16153540.491
  14952288.874   -25395265.693 7 -19525749.797 9  14952292.624
  14327286.507   -37757803.609 7 -29274749.190 9  14327289.765
 94  3 24 21 59 59.9790000  0  6  2 26 15 19  7 27
  14908587.866   -35551549.603 8 -27521447.932 9  14908590.796
  17075322.819   -10696330.668 6  -8178017.121 9  17075326.054
  17490638.952    -6717683.425 5  -5105751.596 9  17490644.777
  16158225.538   -17972178.142 6 -13914612.499 9  16158229.956
  14932409.155   -25499733.549 7 -19607153.287 9  14932412.894
  14324804.413   -37770847.285 7 -29284913.129 9  14324807.566
 94  3 24 22  0 29.9790000  0  6  2 26 15 19  7 27
  14897946.452   -35607471.563 8 -27565023.488 9  14897949.394
  17057031.734   -10792452.868 6  -8252917.531 9  17057034.792
  17476455.382    -6792219.818 5  -5163831.873 9  17476460.773
  16162971.288   -17947239.088 6 -13895179.544 9  16162975.530
  14912612.226   -25603765.469 7 -19688217.084 9  14912616.093
  14322414.421   -37783407.205 7 -29294700.113 9  14322417.573
 94  3 24 22  0 59.9790000  0  6  2 26 15 19  7 27
  14887337.437   -35663220.949 8 -27608464.567 9  14887340.355
  17038829.234   -10888110.212 6  -8327455.720 9  17038832.796
  17462363.499    -6866272.576 5  -5221535.290 9  17462369.769
  16167777.179   -17921982.924 6 -13875499.487 9  16167781.573
  14892898.452   -25707361.140 7 -19768940.946 9  14892902.402
  14320115.530   -37795487.548 7 -29304113.403 9  14320118.636
 94  3 24 22  1 29.9790000  0  6  2 26 15 19  7 27
  14876758.382   -35718814.950 8 -27651784.561 9  14876761.148
  17020717.577   -10983286.608 6  -8401619.142 9  17020720.343
  17448363.663    -6939843.727 5  -5278863.449 9  17448369.136
  16172642.038   -17896419.760 6 -13855580.211 9  16172646.128
  14873266.702   -25810527.923 7 -19849330.604 9  14873270.628
  14317907.921   -37807088.902 7 -29313153.445 9  14317911.062
 94  3 24 22  1 59.9790000  0  6  2 26 15 19  7 27
  14866209.554   -35774250.743 8 -27694981.279 9  14866212.378
  17002701.312   -11077964.990 6  -8475394.507 9  17002704.230
  17434455.843    -7012928.138 5  -5335812.318 9  17434460.882
  16177562.937   -17870558.880 6 -13835428.955 9  16177567.284
  14853718.499   -25913254.730 7 -19929377.431 9  14853722.296
  14315790.710   -37818214.930 7 -29321823.112 9  14315793.862
 94  3 24 22  2 29.9790000  0  6  2 26 15 19  7 27
  14855687.155   -35829545.247 8 -27738067.902 9  14855690.085
  16984777.960   -11172150.975 6  -8548786.178 9  16984780.913
  17420640.015    -7085528.381 5  -5392383.904 9  17420645.628
  16182537.054   -17844421.144 6 -13815061.962 9  16182541.472
  14834256.632   -26015527.080 7 -20009070.134 9  14834260.394
  14313759.484   -37828888.816 7 -29330140.470 9  14313762.694
 94  3 24 22  2 59.9790000  0  6  2 26 15 19  7 27
  14845193.726   -35884688.605 8 -27781036.753 9  14845196.562
  16966950.827   -11265834.032 6  -8621785.968 9  16966953.616
  17406920.507    -7157628.451 5  -5448565.757 9  17406926.027
  16187563.577   -17818006.299 6 -13794479.030 9  16187568.054
  14814886.171   -26117320.315 7 -20088389.499 9  14814889.698
  14311814.015   -37839111.503 7 -29338106.237 9  14311817.191
 94  3 24 22  3 29.9790000  0  6  2 26 15 19  7 27
  14834731.249   -35939669.374 8 -27823878.910 9  14834734.120
  16949212.655   -11359049.821 6  -8694421.650 9  16949214.835
  17393292.952    -7229242.591 5  -5504368.943 9  17393297.886
  16192638.202   -17791339.105 6 -13773699.471 9  16192642.749
  14795605.171   -26218642.150 7 -20167341.540 9  14795608.745
  14309952.710   -37848894.880 7 -29345729.672 9  14309956.038
 94  3 24 22  3 59.9790000  0  6  2 26 15 19  7 27
  14824298.757   -35994492.493 8 -27866598.223 9  14824301.593
  16931562.577   -11451800.837 6  -8766695.179 9  16931565.085
  17379758.616    -7300366.806 5  -5559790.367 9  17379764.019
  16197764.765   -17764399.993 6 -13752708.023 9  16197768.984
  14776416.265   -26319480.994 7 -20245917.227 9  14776419.734
  14308173.632   -37858243.354 7 -29353014.239 9  14308177.030
 94  3 24 22  4 29.9790000  0  6  2 26 15 19  7 27
  14813896.234   -36049158.113 8 -27909194.812 9  14813899.081
  16914002.804   -11544078.310 6  -8838599.710 9  16914005.042
  17366318.804    -7370989.806 5  -5614821.255 9  17366323.866
  16202948.960   -17737156.836 6 -13731479.667 9  16202953.706
  14757318.405   -26419839.887 7 -20324118.933 9  14757321.780
  14306477.866   -37867154.705 7 -29359958.184 9  14306481.077
 94  3 24 22  4 59.9790000  0  6  2 26 15 19  7 27
  14803523.984   -36103663.801 8 -27951666.779 9  14803526.972
  16896535.694   -11635872.352 6  -8910127.538 9  16896538.355
  17352975.359    -7441109.157 5  -5669459.686 9  17352980.597
  16208195.796   -17709586.047 6 -13709996.013 9  16208200.437
  14738308.140   -26519740.939 7 -20401963.869 9  14738311.515
  14304868.343   -37875613.399 7 -29366549.404 9  14304871.507
 94  3 24 22  5 29.9790000  0  6  2 26 15 19  7 27
  14793179.312   -36158025.878 8 -27994026.836 9  14793182.335
  16879156.085   -11727200.639 6  -8981292.444 9  16879158.652
  17339724.515    -7510741.770 5  -5723718.837 9  17339729.530
  16213504.546   -17681689.297 6 -13688258.354 9  16213508.941
  14719378.429   -26619217.355 7 -20479477.925 9  14719381.687
  14303343.679   -37883626.953 7 -29372793.757 9  14303346.784
 94  3 24 22  5 59.9790000  0  6  2 26 15 19  7 27
  14782861.429   -36212248.092 8 -28036277.917 9  14782864.476
  16861870.484   -11818034.516 6  -9052072.085 9  16861873.038
  17326569.624    -7579873.978 6  -5777588.045 9  17326575.519
  16218877.062   -17653455.009 6 -13666257.697 9  16218881.761
  14700530.296   -26718263.885 7 -20556657.003 9  14700533.566
  14301903.616   -37891193.458 7 -29378689.763 9  14301906.605
 94  3 24 22  6 29.9790000  0  6  2 26 15 19  7 27
  14772576.413   -36266294.506 8 -28078392.009 9  14772579.413
  16844682.319   -11908359.191 6  -9122454.941 9  16844685.296
  17313512.679    -7648490.330 6  -5831055.304 9  17313517.624
  16224312.655   -17624891.239 6 -13644000.300 9  16224317.472
  14681765.062   -26816874.614 7 -20633496.499 9  14681768.366
  14300553.265   -37898290.462 7 -29384219.928 9  14300556.288
 94  3 24 22  6 59.9790000  0  6  2 26 15 19  7 27
  14762326.835   -36320157.077 8 -28120362.850 9  14762329.753
  16827588.421   -11998189.563 6  -9192452.621 9  16827591.527
  17300551.569    -7716600.699 6  -5884128.275 9  17300556.878
  16229803.991   -17596036.875 6 -13621516.449 9  16229808.737
  14663083.499   -26915046.419 7 -20709993.977 9  14663086.839
  14299292.249   -37904918.421 7 -29389384.609 9  14299295.050
 94  3 24 22  7 29.9790000  0  6  2 26 15 19  7 27
  14752112.702   -36373832.830 8 -28162188.111 9  14752115.749
  16810587.101   -12087529.380 6  -9262068.050 9  16810590.054
  17287686.640    -7784204.282 6  -5936806.369 9  17287691.984
  16235345.952   -17566910.612 6 -13598820.739 9  16235351.109
  14644489.319   -27012760.408 7 -20786134.710 9  14644492.741
  14298116.749   -37911095.203 7 -29394197.714 9  14298119.632
 94  3 24 22  7 59.9790000  0  6  2 26 15 19  7 27
  14741934.624   -36427320.451 8 -28203866.783 9  14741937.554
  16793679.960   -12176374.824 6  -9331298.270 9  16793682.843
  17274919.757    -7851296.873 6  -5989086.268 9  17274924.878
  16240940.944   -17537510.599 6 -13575911.723 9  16240945.644
  14625985.788   -27109996.924 7 -20861903.391 9  14625989.316
  14297026.648   -37916823.781 7 -29398661.573 9  14297029.519
 94  3 24 22  8 29.9790000  0  6  2 26 15 19  7 27
  14731793.499   -36480611.995 8 -28245392.665 9  14731796.382
  16776866.304   -12264733.747 6  -9400149.364 9  16776869.386
  17262249.413    -7917879.663 6  -6040968.942 9  17262254.382
  16246587.155   -17507839.621 6 -13552791.557 9  16246591.691
  14607573.663   -27206752.600 7 -20937297.389 9  14607577.038
  14296022.523   -37922100.335 7 -29402773.201 9  14296025.429
 94  3 24 22  8 59.9790000  0  6  2 26 15 19  7 27
  14721686.093   -36533724.526 8 -28286779.050 9  14721689.140
  16760145.835   -12352598.581 6  -9468615.462 9  16760149.046
  17249676.116    -7983951.875 6  -6092453.758 9  17249681.331
  16252286.718   -17477888.749 6 -13529453.290 9  16252291.405
  14589254.163   -27303021.839 7 -21012312.341 9  14589257.691
  14295103.890   -37926927.085 7 -29406534.331 9  14295106.843
 94  3 24 22  9 29.9790000  0  6  2 26 15 19  7 27
  14711608.515   -36586683.424 8 -28328045.730 9  14711611.597
  16743520.046   -12439966.428 6  -9536694.301 9  16743523.702
  17237200.741    -8049512.797 6  -6143540.166 9  17237205.640
  16258041.960   -17447642.275 6 -13505884.689 9  16258047.245
  14571027.819   -27398802.176 7 -21086946.336 9  14571031.230
  14294270.937   -37931305.053 7 -29409945.760 9  14294274.089
 94  3 24 22  9 59.9790000  0  6  2 26 15 19  7 27
  14701560.687   -36639486.537 8 -28369191.011 9  14701563.640
  16726992.140   -12526822.489 6  -9604374.336 9  16726995.831
  17224823.569    -8114554.930 6  -6194222.313 9  17224828.937
  16263855.241   -17417095.815 6 -13482082.322 9  16263860.175
  14552893.249   -27494099.228 7 -21161203.741 9  14552896.612
  14293526.640   -37935216.599 7 -29412993.747 9  14293529.757
 94  3 24 22 10 29.9790000  0  6  2 26 15 19  7 27
  14691545.585   -36692115.111 8 -28410200.294 9  14691548.632
  16710566.288   -12613143.100 6  -9671637.158 9  16710569.956
  17212548.952    -8179055.163 6  -6244482.220 9  17212553.921
  16269725.624   -17386245.218 6 -13458042.979 9  16269730.628
  14534853.187   -27588901.606 7 -21235075.687 9  14534856.597
  14292877.109   -37938630.212 7 -29415653.729 9  14292880.249
 94  3 24 22 10 59.9790000  0  6  2 26 15 19  7 27
  14681556.593   -36744607.785 8 -28451103.681 9  14681559.698
  16694235.327   -12698962.898 6  -9738509.710 9  16694238.913
  17200374.226    -8243034.034 6  -6294335.860 9  17200379.616
  16275651.413   -17355107.760 6 -13433780.120 9  16275656.253
  14516902.827   -27683230.283 7 -21308578.516 9  14516906.191
  14292319.851   -37941558.308 7 -29417935.405 9  14292322.862
 94  3 24 22 11 29.9790000  0  6  2 26 15 19  7 27
  14671593.585   -36796963.701 8 -28491900.502 9  14671596.620
  16677996.062   -12784300.221 6  -9805006.332 9  16677999.413
  17188298.148    -8306497.272 6  -6343787.709 9  17188302.894
  16281629.577   -17323692.344 6 -13409300.661 9  16281634.874
  14499040.851   -27777095.032 7 -21381719.843 9  14499044.343
  14291851.843   -37944019.444 7 -29419853.225 9  14291854.819
 94  3 24 22 11 59.9790000  0  6  2 26 15 19  7 27
  14661660.327   -36849162.735 8 -28532575.077 9  14661663.339
  16661849.335   -12869150.996 6  -9871123.815 9  16661852.675
  17176319.773    -8369440.465 6  -6392834.326 9  17176324.542
  16287659.218   -17292007.277 6 -13384611.089 9  16287664.023
  14481265.952   -27870503.511 7 -21454505.636 9  14481269.433
  14291472.648   -37946011.356 7 -29421405.397 9  14291475.495
 94  3 24 22 12 29.9790000  0  6  2 26 15 19  7 27
  14651757.038   -36901204.839 8 -28573127.367 9  14651759.886
  16645793.999   -12953526.736 6  -9936871.151 9  16645797.304
  17164441.366    -8431862.435 6  -6441474.814 9  17164445.890
  16293741.296   -17260044.103 6 -13359704.810 9  16293746.382
  14463578.624   -27963449.141 7 -21526930.770 9  14463582.116
  14291181.859   -37947538.909 7 -29422595.733 9  14291184.835
 94  3 24 22 12 59.9790000  0  6  2 26 15 19  7 27
  14641885.648   -36953079.322 7 -28613549.040 9  14641888.648
  16629829.499   -13037419.911 6 -10002242.458 9  16629832.816
  17152662.648    -8493762.800 6  -6489708.835 9  17152667.698
  16299878.398   -17227795.063 6 -13334575.769 9  16299883.284
  14445980.937   -28055926.632 7 -21598991.114 9  14445984.569
  14290975.452   -37948623.869 7 -29423441.188 9  14290978.511
 94  3 24 22 13 29.9780000  0  6  2 26 15 19  7 27
  14632049.690   -37004768.130 8 -28653826.032 9  14632052.678
  16613961.776   -13120804.118 6 -10067217.169 9  16613965.174
  17140982.221    -8555140.389 6  -6537535.520 9  17140987.295
  16306066.947   -17195275.846 6 -13309236.209 9  16306072.069
  14428471.158   -28147940.539 7 -21670690.222 9  14428474.733
  14290850.510   -37949280.143 7 -29423952.621 9  14290853.651
 94  3 24 22 13 59.9780000  0  6  2 26 15 19  7 27
  14622247.026   -37056280.832 7 -28693965.801 9  14622250.072
  16598192.018   -13203672.196 6 -10131789.699 9  16598195.018
  17129401.580    -8615997.328 6  -6584956.487 9  17129407.194
  16312308.197   -17162475.941 6 -13283677.929 9  16312313.061
  14411047.721   -28239501.629 7 -21742036.490 9  14411051.272
  14290809.768   -37949493.568 7 -29424118.988 9  14290812.897
 94  3 24 22 14 29.9780000  0  6  2 26 15 19  7 27
  14612477.072   -37107623.136 7 -28733972.800 9  14612479.908
  16582522.854   -13286017.682 6 -10195955.023 9  16582525.736
  17117920.893    -8676328.396 6  -6631967.693 9  17117926.401
  16318603.447   -17129394.112 6 -13257899.969 9  16318608.428
  14393713.190   -28330595.087 7 -21813018.369 9  14393716.834
  14290853.799   -37949263.199 7 -29423939.527 9  14290857.010
 94  3 24 22 14 59.9780000  0  6  2 26 15 19  7 27
  14602739.346   -37158795.157 7 -28773847.107 9  14602742.229
  16566953.354   -13367833.460 6 -10259707.576 9  16566956.342
  17106540.401    -8736133.037 6  -6678568.690 9  17106545.463
  16324951.065   -17096038.853 6 -13231908.944 9  16324956.162
  14376465.955   -28421230.878 7 -21883643.626 9  14376469.541
  14290983.291   -37948582.959 7 -29423409.492 9  14290986.385
 94  3 24 22 15 29.9780000  0  6  2 26 15 19  7 27
  14593031.565   -37209808.770 7 -28813597.975 9  14593034.752
  16551485.057   -13449119.446 6 -10323047.319 9  16551488.139
  17095260.791    -8795411.151 6  -6724759.404 9  17095265.877
  16331351.127   -17062406.124 6 -13205701.705 9  16331356.119
  14359303.182   -28511419.681 7 -21953920.579 9  14359306.803
  14291201.955   -37947433.718 7 -29422514.020 9  14291205.166
 94  3 24 22 15 59.9780000  0  6  2 26 15 19  7 27
  14583350.596   -37260683.671 7 -28853240.756 9  14583353.666
  16536116.502   -13529883.328 6 -10385980.212 9  16536119.819
  17084080.432    -8854160.719 6  -6770538.280 9  17084085.694
  16337805.338   -17028488.748 6 -13179272.660 9  16337810.553
  14342228.940   -28601146.884 7 -22023837.849 9  14342232.479
  14291509.127   -37945819.131 7 -29421255.944 9  14291512.221
 94  3 24 22 16 29.9780000  0  6  2 26 15 19  7 27
  14573697.354   -37311412.359 8 -28892769.602 9  14573700.236
  16520846.971   -13610126.070 6 -10448507.032 9  16520849.690
  17073001.651    -8912380.676 6  -6815904.471 9  17073006.643
  16344312.291   -16994294.880 6 -13152628.173 9  16344317.752
  14325244.330   -28690400.464 7 -22093386.059 9  14325247.858
  14291903.354   -37943749.553 7 -29419643.328 9  14291906.506
 94  3 24 22 16 59.9780000  0  6  2 26 15 19  7 27
  14564072.510   -37361989.756 7 -28932180.561 9  14564075.545
  16505678.377   -13689837.042 6 -10510619.474 9  16505681.272
  17062023.776    -8970068.880 6  -6860856.290 9  17062028.217
  16350873.830   -16959814.362 6 -13125760.337 9  16350879.490
  14308349.783   -28779182.403 7 -22162566.759 9  14308353.358
  14292382.643   -37941230.890 7 -29417680.774 9  14292385.830
 94  3 24 22 17 29.9780000  0  6  2 26 15 19  7 27
  14554475.736   -37412422.361 8 -28971478.695 9  14554478.795
  16490609.479   -13769023.289 6 -10572323.060 9  16490612.596
  17051146.893    -9027226.968 6  -6905395.040 9  17051152.588
  16357490.354   -16925044.020 6 -13098666.669 9  16357496.166
  14291547.690   -28867476.780 7 -22231367.541 9  14291551.229
  14292943.838   -37938282.123 7 -29415383.070 9  14292946.920
 94  3 24 22 17 59.9780000  0  6  2 26 15 19  7 27
  14544907.205   -37462704.805 7 -29010659.825 9  14544910.287
  16475637.096   -13847704.319 6 -10633632.953 9  16475640.283
  17040371.838    -9083851.165 6  -6949517.784 9  17040377.674
  16364162.252   -16889984.892 6 -13071347.968 9  16364167.338
  14274842.526   -28955263.530 7 -22299772.771 9  14274846.088
  14293583.768   -37934918.646 7 -29412762.216 9  14293586.920
 94  3 24 22 18 29.9780000  0  6  2 26 15 19  7 27
  14535370.432   -37512820.282 8 -29049710.851 9  14535373.490
  16460756.682   -13925897.039 6 -10694562.360 9  16460759.670
  17029698.486    -9139940.106 6  -6993223.428 9  17029703.901
  16370887.729   -16854642.079 6 -13043808.208 9  16370892.861
  14258231.322   -29042555.584 7 -22367792.515 9  14258234.908
  14294305.916   -37931122.917 7 -29409804.544 9  14294309.115
 94  3 24 22 18 59.9780000  0  6  2 26 15 19  7 27
  14525862.760   -37562783.785 8 -29088643.448 9  14525865.760
  16445968.182   -14003614.754 6 -10755121.625 9  16445971.393
  17019125.877    -9195496.236 6  -7036513.918 9  17019130.881
  16377665.611   -16819024.330 6 -13016054.212 9  16377670.615
  14241711.916   -29129364.683 7 -22435435.934 9  14241715.467
  14295111.221   -37926891.036 7 -29406507.017 9  14295114.385
 94  3 24 22 19 29.9780000  0  6  2 26 15 19  7 27
  14516383.744   -37612596.720 8 -29127458.725 9  14516386.686
  16431267.932   -14080864.088 6 -10815315.919 9  16431271.541
  17008656.690    -9250513.385 6  -7079384.402 9  17008661.811
  16384494.565   -16783140.066 6 -12988092.561 9  16384499.791
  14225285.197   -29215688.326 7 -22502701.076 9  14225288.736
  14296002.861   -37922206.728 7 -29402856.950 9  14296006.190
 94  3 24 22 19 59.9780000  0  6  2 26 15 19  7 27
  14506936.229   -37662244.385 8 -29166145.222 9  14506939.229
  16416660.026   -14157630.791 6 -10875134.127 9  16416663.154
  16998292.065    -9304982.907 6  -7121828.175 9  16998297.514
  16391371.791   -16746999.765 6 -12959931.405 9  16391376.643
  14208948.877   -29301535.719 7 -22569595.117 9  14208952.322
  14296985.268   -37917042.785 7 -29398833.145 9  14296988.572
 94  3 24 22 20 29.9780000  0  6  2 26 15 19  7 27
  14497523.533   -37711709.373 8 -29204689.373 9  14497526.533
  16402151.666   -14233871.615 6 -10934542.577 9  16402154.877
  16988032.565    -9358893.669 6  -7163836.555 9  16988038.084
  16398299.236   -16710596.693 6 -12931565.472 9  16398304.076
  14192702.815   -29386909.509 7 -22636120.116 9  14192706.272
  14298062.143   -37911383.687 7 -29394423.497 9  14298065.401
 94  3 24 22 20 59.9780000  0  6  2 26 15 19  7 27
  14488145.494   -37760989.666 8 -29243089.612 9  14488148.518
  16387750.807   -14309550.565 6 -10993513.191 9  16387753.901
  16977881.869    -9412236.308 5  -7205402.228 9  16977887.342
  16405279.822   -16673914.805 6 -12902982.269 9  16405284.826
  14176550.119   -29471791.853 7 -22702262.170 9  14176553.436
  14299230.776   -37905242.782 7 -29389638.423 9  14299234.069
 94  3 24 22 21 29.9780000  0  6  2 26 15 19  7 27
  14478804.940   -37810075.234 8 -29281338.116 9  14478807.752
  16373458.440   -14384657.985 6 -11052038.458 9  16373461.440
  16967840.377    -9465006.604 6  -7246521.927 9  16967845.569
  16412314.158   -16636949.054 6 -12874177.896 9  16412319.151
  14160493.072   -29556173.246 7 -22768013.870 9  14160496.295
  14300490.901   -37898621.264 7 -29384478.849 9  14300494.100
 94  3 24 22 21 59.9780000  0  6  2 26 15 19  7 27
  14469503.322   -37858955.664 8 -29319426.773 9  14469506.240
  16359275.783   -14459185.573 6 -11110111.905 9  16359278.936
  16957908.815    -9517198.885 6  -7287191.229 9  16957913.701
  16419404.440   -16599690.208 6 -12845145.132 9  16419409.912
  14144532.479   -29640046.749 7 -22833369.815 9  14144535.736
  14301840.901   -37891528.048 7 -29378951.695 9  14301844.147
 94  3 24 22 22 29.9780000  0  6  2 26 15 19  7 27
  14460236.572   -37907651.372 8 -29357371.486 9  14460239.561
  16345205.104   -14533128.648 6 -11167729.892 9  16345208.197
  16948086.682    -9568810.786 5  -7327408.281 9  16948091.604
  16426552.486   -16562126.291 6 -12815874.649 9  16426557.444
  14128668.986   -29723409.541 7 -22898327.802 9  14128672.268
  14303278.627   -37883971.543 7 -29373063.546 9  14303282.002
 94  3 24 22 22 59.9780000  0  6  2 26 15 19  7 27
  14451002.432   -37956178.086 8 -29395184.514 9  14451005.420
  16331243.393   -14606499.226 6 -11224901.775 9  16331246.826
  16938375.580    -9619841.484 5  -7367172.440 9  16938381.252
  16433757.143   -16524267.941 6 -12786374.747 9  16433762.615
  14112903.916   -29806255.489 7 -22962883.058 9  14112907.151
  14304806.072   -37875945.417 7 -29366809.472 9  14304809.459
 94  3 24 22 23 29.9780000  0  6  2 26 15 19  7 27
  14441801.916   -38004527.950 8 -29432859.738 9  14441804.904
  16317389.815   -14679300.687 6 -11281630.190 9  16317392.920
  16928776.432    -9670287.753 6  -7406481.202 9  16928781.588
  16441015.354   -16486124.440 6 -12756652.644 9  16441020.932
  14097236.752   -29888587.394 7 -23027037.757 9  14097240.151
  14306426.283   -37867431.087 7 -29360174.981 9  14306429.740
 94  3 24 22 23 59.9780000  0  6  2 26 15 19  7 27
  14432635.033   -38052700.411 8 -29470396.725 9  14432638.010
  16303643.111   -14751537.997 6 -11337919.011 9  16303646.369
  16919287.752    -9720153.194 6  -7445337.378 9  16919292.908
  16448327.229   -16447699.042 6 -12726710.888 9  16448333.111
  14081665.916   -29970411.848 7 -23090797.043 9  14081669.186
  14308138.440   -37858434.203 7 -29353164.460 9  14308141.990
 94  3 24 22 24 29.9780000  0  6  2 26 15 19  7 27
  14423501.768   -38100694.963 8 -29507795.087 9  14423504.826
  16290004.385   -14823210.524 6 -11393767.737 9  16290007.865
  16909908.104    -9769442.316 5  -7483744.463 9  16909913.166
  16455690.776   -16409003.284 6 -12696558.458 9  16455697.162
  14066192.799   -30051724.767 7 -23154157.733 9  14066196.139
  14309943.018   -37848950.708 7 -29345774.777 9  14309946.733
 94  3 24 22 24 59.9780000  0  6  2 26 15 19  7 27
  14414407.416   -38148485.993 8 -29545034.858 9  14414410.451
  16276469.783   -14894334.765 6 -11449189.230 9  16276473.029
  16900638.018    -9818156.200 6  -7521703.330 9  16900643.127
  16463106.674   -16370036.309 6 -12666194.687 9  16463113.072
  14050817.268   -30132523.581 7 -23217117.818 9  14050820.596
  14311838.799   -37838989.818 7 -29338013.088 9  14311842.408
 94  3 24 22 25 29.9780000  0  6  2 26 15 19  7 27
  14405352.619   -38196070.729 8 -29582113.875 9  14405355.678
  16263036.744   -14964927.539 6 -11504196.594 9  16263040.154
  16891476.416    -9866298.677 5  -7559216.941 9  16891482.135
  16470573.510   -16330791.665 6 -12635614.558 9  16470580.369
  14035537.205   -30212820.990 7 -23279687.198 9  14035540.580
  14313823.283   -37828560.403 7 -29329886.305 9  14313827.057
 94  3 24 22 25 59.9780000  0  6  2 26 15 19  7 27
  14396335.697   -38243453.376 8 -29619035.428 9  14396338.873
  16249702.252   -15034999.105 6 -11558797.817 9  16249705.545
  16882424.830    -9913868.239 5  -7596284.018 2  16882429.893
  16478096.744   -16291261.775 6 -12604812.160 9  16478103.377
  14020353.838   -30292609.560 7 -23341860.083 9  14020357.260
  14315895.682   -37817668.792 7 -29321399.382 9  14315899.408
 94  3 24 22 26 29.9780000  0  6  2 26 15 19  7 27
  14387356.619   -38290640.182 8 -29655804.371 9  14387359.619
  16236467.229   -15104549.060 6 -11612992.604 9  16236470.779
  16873481.838    -9960862.573 5  -7632903.071 9  16873487.135
  16485674.658   -16251441.691 6 -12573783.626 9  16485681.209
  14005268.080   -30371884.942 7 -23403633.084 9  14005271.467
  14318056.955   -37806314.895 7 -29312552.238 9  14318060.588
 94  3 24 22 26 59.9780000  0  6  2 26 15 19  7 27
  14378409.705   -38337654.840 8 -29692439.172 9  14378412.740
  16223327.994   -15173596.501 6 -11666795.809 9  16223331.299
  16864647.682   -10007286.182 5  -7669077.310 9  16864652.979
  16493308.924   -16211320.575 6 -12542520.539 9  16493315.428
  13990278.018   -30450657.771 7 -23465014.485 9  13990281.451
  14320302.729   -37794511.423 7 -29303354.766 9  14320306.408
 94  3 24 22 27 29.9780000  0  6  2 26 15 19  7 27
  14369495.830   -38384498.797 8 -29728940.962 9  14369498.807
  16210288.666   -15242119.565 6 -11720190.411 9  16210291.877
  16855923.877   -10053132.738 6  -7704801.895 9  16855929.010
  16501002.010   -16170892.499 6 -12511018.269 9  16501008.479
  13975386.377   -30528913.941 7 -23525993.298 9  13975389.893
  14322637.791   -37782240.717 7 -29293793.214 9  14322641.307
 94  3 24 22 27 59.9780000  0  6  2 26 15 19  7 27
  14360614.729   -38431170.131 8 -29765308.244 9  14360617.740
  16197350.901   -15310105.445 6 -11773166.430 9  16197353.819
  16847308.955   -10098400.277 5  -7740075.303 9  16847314.158
  16508752.674   -16130165.895 6 -12479283.386 9  16508759.143
  13960595.221   -30606641.528 7 -23586560.225 9  13960598.631
  14325060.658   -37769508.251 7 -29283871.858 9  14325064.104
 94  3 24 22 28 29.9780000  0  6  2 26 15 19  7 27
  14351765.010   -38477674.225 8 -29801545.217 9  14351768.092
  16184519.565   -15377539.637 6 -11825712.559 9  16184522.459
  16838805.369   -10143088.793 6  -7774897.515 9  16838810.690
  16516556.322   -16089157.497 6 -12447328.920 9  16516562.498
  13945901.916   -30683855.384 7 -23646726.842 9  13945905.244
  14327571.080   -37756316.621 7 -29273592.721 9  14327574.432
 94  3 24 22 28 59.9780000  0  6  2 26 15 19  7 27
  14342947.447   -38524011.016 8 -29837651.817 9  14342950.483
  16171794.158   -15444410.698 6 -11877819.893 9  16171797.100
  16830411.682   -10187197.928 5  -7809268.280 9  16830417.213
  16524410.674   -16047883.911 6 -12415167.789 9  16524417.037
  13931305.151   -30760564.141 7 -23706499.874 9  13931308.455
  14330170.072   -37742659.920 7 -29262951.183 9  14330173.424
 94  3 24 22 29 29.9780000  0  6  2 26 15 19  7 27
  14334164.057   -38570168.487 8 -29873618.684 9  14334166.986
  16159177.768   -15510709.209 6 -11929481.080 9  16159180.674
  16822127.651   -10230732.415 6  -7843191.242 9  16822134.049
  16532308.580   -16006377.460 6 -12382825.223 9  16532314.955
  13916800.674   -30836784.541 7 -23765892.364 9  13916803.979
  14332856.276   -37728542.967 7 -29251950.983 9  14332859.545
 94  3 24 22 29 59.9770000  0  6  2 26 15 19  7 27
  14325412.599   -38616157.766 8 -29909454.500 9  14325415.622
  16146669.732   -15576439.682 6 -11980699.642 9  16146672.778
  16813952.450   -10273692.703 6  -7876666.798 9  16813958.181
  16540249.474   -15964651.597 6 -12350311.682 9  16540254.876
  13902385.911   -30912534.289 7 -23824918.118 9  13902389.204
  14335627.950   -37713978.993 7 -29240602.482 9  14335631.361
 94  3 24 22 30 29.9770000  0  6  2 26 15 19  7 27
  14316693.396   -38661978.682 8 -29945159.115 9  14316696.325
  16134269.357   -15641603.627 6 -12031476.746 9  16134272.474
  16805885.935   -10316080.507 6  -7909696.247 9  16805891.841
  16548233.802   -15922692.290 6 -12317616.205 9  16548239.650
  13888057.997   -30987828.206 7 -23883588.677 9  13888061.267
  14338486.099   -37698957.724 7 -29228897.643 9  14338489.392
 94  3 24 22 30 59.9770000  0  6  2 26 15 19  7 27
  14308007.739   -38707622.398 8 -29980725.655 9  14308010.763
  16121974.466   -15706215.124 6 -12081823.369 9  16121977.583
  16797928.802   -10357898.518 6  -7942281.709 9  16797933.864
  16556263.966   -15880492.228 6 -12284733.156 9  16556270.849
  13873818.060   -31062658.443 7 -23941897.925 9  13873821.388
  14341431.122   -37683482.907 7 -29216839.382 9  14341434.603
 94  3 24 22 31 29.9770000  0  6  2 26 15 19  7 27
  14299356.068   -38753086.991 8 -30016152.615 9  14299359.126
  16109781.935   -15770287.851 6 -12131750.181 9  16109784.970
  16790078.739   -10399149.376 6  -7974425.241 9  16790083.943
  16564338.919   -15838056.804 5 -12251666.709 9  16564345.540
  13859668.872   -31137012.864 7 -23999836.413 9  13859672.271
  14344459.372   -37667568.183 7 -29204438.340 9  14344462.923
 94  3 24 22 31 59.9770000  0  6  2 26 15 19  7 27
  14290737.341   -38798377.831 8 -30051444.187 9  14290740.282
  16097689.903   -15833829.139 6 -12181262.879 9  16097693.407
  16782336.638   -10439834.154 6  -8006127.670 9  16782342.040
  16572461.583   -15795374.332 6 -12218407.748 9  16572467.935
  13845612.974   -31210876.704 7 -24057392.627 9  13845616.372
  14347571.693   -37651214.789 7 -29191695.479 9  14347575.185
 94  3 24 22 32 29.9770000  0  6  2 26 15 19  7 27
  14282154.419   -38843481.643 8 -30086590.023 9  14282157.396
  16085698.122   -15896848.333 6 -12230368.753 9  16085701.275
  16774702.177   -10479950.083 6  -8037386.829 9  16774708.810
  16580633.372   -15752435.026 6 -12184948.676 9  16580639.712
  13831653.724   -31284232.566 7 -24114553.017 9  13831657.204
  14350767.950   -37634418.426 7 -29178607.442 9  14350771.396
 94  3 24 22 32 59.9770000  0  6  2 26 15 19  7 27
  14273605.927   -38888404.408 8 -30121594.781 9  14273608.974
  16073802.872   -15959357.143 6 -12279076.925 9  16073806.189
  16767177.294   -10519497.967 6  -8068203.358 9  16767182.603
  16588850.333   -15709251.288 5 -12151299.112 9  16588856.943
  13817794.497   -31357062.274 7 -24171303.418 9  13817798.083
  14354046.411   -37617190.848 7 -29165183.405 9  14354049.986
 94  3 24 22 33 29.9770000  0  6  2 26 15 19  7 27
  14265089.036   -38933161.685 8 -30156470.588 9  14265091.989
  16062004.911   -16021356.113 6 -12327387.818 9  16062008.052
  16759758.927   -10558479.918 6  -8098578.921 9  16759763.755
  16597116.450   -15665813.859 5 -12117451.884 9  16597122.814
  13804035.732   -31429366.165 7 -24227644.095 9  13804039.224
  14357406.747   -37599531.643 7 -29151423.024 9  14357410.263
 94  3 24 22 33 59.9770000  0  6  2 26 15 19  7 27
  14256602.458   -38977757.347 8 -30191220.458 9  14256605.400
  16050305.083   -16082840.029 6 -12375297.371 9  16050308.200
  16752448.583   -10596894.201 6  -8128512.119 9  16752453.329
  16605435.224   -15622102.338 6 -12083391.082 9  16605441.857
  13790375.903   -31501150.832 7 -24283580.180 9  13790379.314
  14360852.341   -37581425.481 7 -29137314.364 9  14360855.927
 94  3 24 22 34 29.9770000  0  6  2 26 15 19  7 27
  14248146.185   -39022196.261 8 -30225848.189 9  14248149.185
  16038705.153   -16143797.664 6 -12422796.832 9  16038708.318
  16745246.958   -10634739.370 6  -8158001.857 9  16745252.208
  16613804.271   -15578119.054 5 -12049118.507 9  16613811.056
  13776813.763   -31572417.215 7 -24339112.405 9  13776817.302
  14364383.161   -37562869.736 7 -29122855.396 9  14364386.747
 94  3 24 22 34 59.9770000  0  6  2 26 15 19  7 27
  14239719.075   -39066480.641 8 -30260355.506 9  14239722.005
  16027209.755   -16204207.394 6 -12469869.358 9  16027212.907
  16738153.810   -10672014.964 6  -8187047.785 9  16738159.224
  16622225.318   -15533869.926 5 -12014638.773 9  16622231.669
  13763349.513   -31643173.927 7 -24394247.486 9  13763353.005
  14368001.005   -37543858.267 7 -29108041.307 9  14368004.591
 94  3 24 22 35 29.9770000  0  6  2 26 15 19  7 27
  14231324.396   -39110595.700 8 -30294730.881 9  14231327.349
  16015821.060   -16264054.641 6 -12516503.588 9  16015824.411
  16731169.341   -10708717.488 6  -8215647.156 9  16731174.509
  16630697.247   -15489346.190 6 -11979945.069 9  16630704.329
  13749978.810   -31713436.864 7 -24448997.808 9  13749982.232
  14371707.193   -37524382.861 7 -29092865.712 9  14371710.978
 94  3 24 22 35 59.9770000  0  6  2 26 15 19  7 27
  14222964.396   -39154527.530 8 -30328963.482 9  14222967.407
  16004541.286   -16323330.739 6 -12562692.760 9  16004544.614
  16724294.747   -10744847.245 6  -8243800.217 9  16724300.220
  16639218.864   -15444569.834 6 -11945054.529 9  16639225.486
  13736700.622   -31783214.469 7 -24503369.951 9  13736704.009
  14375499.349   -37504454.333 7 -29077337.034 9  14375503.075
 94  3 24 22 36 29.9770000  0  6  2 26 15 19  7 27
  14214638.958   -39198277.661 8 -30363054.498 9  14214641.958
  15993369.341   -16382040.484 6 -12608440.624 9  15993372.505
  16717528.443   -10780404.453 6  -8271507.126 9  16717533.189
  16647785.927   -15399550.023 6 -11909974.263 9  16647792.857
  13723513.505   -31852513.264 7 -24557368.995 9  13723516.880
  14379374.099   -37484092.678 7 -29061470.849 9  14379377.943
 94  3 24 22 36 59.9770000  0  6  2 26 15 19  7 27
  14206348.263   -39241844.097 8 -30397002.374 9  14206351.298
  15982301.528   -16440200.937 6 -12653760.466 9  15982304.927
  16710870.357   -10815390.446 6  -8298768.944 9  16710875.396
  16656397.794   -15354292.957 6 -11874709.143 9  16656404.794
  13710414.739   -31921347.898 7 -24611006.352 9  13710418.044
  14383329.208   -37463308.830 7 -29045275.689 9  14383332.946
 94  3 24 22 37 29.9770000  0  6  2 26 15 19  7 27
  14198090.068   -39285243.425 8 -30430820.042 9  14198093.044
  15971337.068   -16497819.749 6 -12698658.249 9  15971340.583
  16704321.536   -10849806.424 6  -8325586.605 9  16704326.224
  16665054.716   -15308800.550 5 -11839260.646 9  16665061.974
  13697405.849   -31989709.641 7 -24664275.226 9  13697409.165
  14387360.591   -37442123.324 7 -29028767.539 9  14387364.329
 94  3 24 22 37 59.9770000  0  6  2 26 15 19  7 27
  14189857.950   -39328502.959 8 -30464528.776 9  14189860.962
  15960472.739   -16554913.606 6 -12743146.973 9  15960476.150
  16697879.841   -10883657.791 6  -8351964.298 9  16697884.903
  16673753.099   -15263092.742 5 -11803644.288 9  16673759.181
  13684484.669   -32057611.154 7 -24717185.473 9  13684487.950
  14391465.403   -37420552.317 7 -29011959.011 9  14391469.142
 94  3 24 22 38 29.9770000  0  6  2 26 15 19  7 27
  14181650.364   -39371633.645 8 -30498137.110 9  14181653.493
  15949705.974   -16611492.346 6 -12787234.322 9  15949709.138
  16691545.950   -10916942.908 6  -8377900.766 9  16691550.626
  16682492.013   -15217167.753 5 -11767858.701 9  16682498.646
  13671651.568   -32125050.063 7 -24769735.252 9  13671654.919
  14395646.044   -37398583.583 7 -28994840.563 9  14395649.841
 94  3 24 22 38 59.9770000  0  6  2 26 15 19  7 27
  14173470.193   -39414622.043 8 -30531634.575 9  14173473.298
  15939037.208   -16667558.085 6 -12830921.923 9  15939040.126
  16685319.653   -10949661.436 5  -8403395.720 9  16685324.962
  16691270.575   -15171037.832 5 -11731913.430 9  16691276.857
  13658908.318   -32192014.831 7 -24821915.574 9  13658911.505
  14399904.185   -37376207.905 7 -28977405.020 9  14399907.771
 94  3 24 22 39 29.9770000  0  6  2 26 15 19  7 27
  14165317.763   -39457463.043 8 -30565017.190 9  14165320.868
  15928465.271   -16723112.732 6 -12874211.271 9  15928468.189
  16679201.107   -10981816.144 5  -8428451.340 9  16679205.724
  16700087.068   -15124706.548 5 -11695811.229 9  16700093.103
  13646257.028   -32258498.902 8 -24873721.323 9  13646260.122
  14404241.552   -37353414.739 7 -28959644.158 9  14404245.150
 94  3 24 22 39 59.9770000  0  6  2 26 15 19  7 27
  14157196.193   -39500141.429 8 -30598273.083 9  14157199.169
  15917988.818   -16778165.000 6 -12917109.151 9  15917992.310
  16673188.841   -11013408.470 5  -8453068.733 9  16673194.243
  16708942.685   -15078170.019 5 -11659549.147 9  16708948.896
  13633694.450   -32324516.021 8 -24925163.214 9  13633697.497
  14408662.474   -37330183.094 7 -28941541.620 9  14408666.236
 94  3 24 22 40 29.9770000  0  6  2 26 15 19  7 27
  14149109.888   -39542635.195 8 -30631385.118 9  14149112.864
  15907609.318   -16832710.773 6 -12959612.361 9  15907612.868
  16667283.575   -11044438.918 5  -8477248.319 9  16667288.638
  16717839.169   -15031420.173 5 -11623120.849 9  16717844.876
  13621225.700   -32390038.945 8 -24976220.019 9  13621228.724
  14413169.146   -37306500.183 7 -28923087.439 9  14413172.802
 94  3 24 22 40 59.9770000  0  6  2 26 15 19  7 27
  14141059.161   -39584942.757 8 -30664352.059 9  14141062.243
  15897328.294   -16886738.743 6 -13001712.090 9  15897331.493
  16661486.021   -11074908.156 5  -8500990.566 9  16661491.446
  16726776.685   -14984454.487 5 -11586524.340 9  16726783.603
  13608850.802   -32455069.320 8 -25026893.019 9  13608853.825
  14417759.771   -37282375.925 7 -28904289.363 9  14417763.486
 94  3 24 22 41 29.9770000  0  6  2 26 15 19  7 27
  14133040.224   -39627083.499 8 -30697189.006 9  14133043.200
  15887148.974   -16940232.133 6 -13043395.274 9  15887152.091
  16655793.872   -11104817.862 5  -8524296.834 9  16655799.626
  16735756.060   -14937262.204 5 -11549751.268 9  16735762.552
  13596565.239   -32519630.269 8 -25077200.234 9  13596568.298
  14422432.622   -37257819.599 7 -28885154.610 9  14422436.419
 94  3 24 22 41 59.9770000  0  6  2 26 15 19  7 27
  14125050.724   -39669067.730 8 -30729903.991 9  14125053.818
  15877073.724   -16993175.264 6 -13084649.670 9  15877076.829
  16650208.880   -11134168.476 5  -8547167.429 9  16650215.857
  16744779.599   -14889845.098 5 -11512803.026 9  16744785.259
  13584368.732   -32583723.319 8 -25127142.850 9  13584371.696
  14427185.950   -37232841.040 7 -28865690.836 9  14427189.853
 94  3 24 22 42 29.9770000  0  6  2 26 15 19  7 27
  14117090.443   -39710898.358 8 -30762499.289 9  14117093.396
  15867104.661   -17045563.716 6 -13125471.865 9  15867107.767
  16644729.716   -11162961.081 5  -8569603.233 9  16644735.095
  16753842.755   -14842220.603 5 -11475693.129 9  16753848.732
  13572260.786   -32647351.108 8 -25176722.925 9  13572263.693
  14432016.997   -37207454.659 7 -28845909.285 9  14432021.017
 94  3 24 22 42 59.9770000  0  6  2 26 15 19  7 27
  14109155.974   -39752594.698 8 -30794989.950 9  14109158.997
  15857242.091   -17097393.081 6 -13165858.401 9  15857245.243
  16639356.661   -11191195.106 5  -8591603.769 9  16639361.900
  16762945.997   -14794383.470 5 -11438417.589 9  16762952.103
  13560236.732   -32710538.014 8 -25225959.458 9  13560239.661
  14436924.005   -37181668.630 7 -28825816.313 9  14436927.907
 94  3 24 22 43 29.9770000  0  6  2 26 15 19  7 27
  14101246.880   -39794156.718 8 -30827375.941 9  14101249.986
  15847482.677   -17148678.188 6 -13205820.850 9  15847485.736
  16634090.185   -11218872.702 5  -8613170.685 9  16634095.482
  16772090.419   -14746331.248 5 -11400974.438 9  16772096.864
  13548298.958   -32773271.954 8 -25274843.028 9  13548301.876
  14441907.216   -37155480.287 7 -28805409.853 9  14441911.259
 94  3 24 22 43 59.9770000  0  6  2 26 15 19  7 27
  14093364.466   -39835579.282 8 -30859653.272 9  14093367.571
  15837822.536   -17199442.530 6 -13245377.500 9  15837825.982
  16628929.646   -11245989.352 5  -8634300.536 9  16628934.778
  16781274.396   -14698067.724 5 -11363366.624 9  16781281.005
  13536452.927   -32835522.179 8 -25323349.683 9  13536455.903
  14446970.005   -37128874.580 7 -28784678.172 9  14446974.013
 94  3 24 22 44 29.9770000  0  6  2 26 15 19  7 27
  14085508.474   -39876862.802 8 -30891822.257 9  14085511.568
  15828257.224   -17249708.703 6 -13284545.971 9  15828260.915
  16623875.185   -11272549.358 5  -8654996.616 9  16623880.622
  16790500.669   -14649588.174 5 -11325590.499 9  16790507.431
  13524700.575   -32897280.505 8 -25371473.035 9  13524703.540
  14452111.419   -37101857.783 7 -28763626.162 9  14452115.415
 94  3 24 22 44 59.9770000  0  6  2 26 15 19  7 27
  14077678.153   -39918011.901 8 -30923886.498 9  14077681.118
  15818785.232   -17299483.836 6 -13323331.803 9  15818789.087
  16618926.200   -11298557.169 5  -8675262.420 9  16618931.193
  16799767.224   -14600890.662 5 -11287644.547 9  16799773.798
  13513044.177   -32958536.253 8 -25419204.770 9  13513047.212
  14457329.646   -37074435.876 7 -28742258.487 9  14457333.466
 94  3 24 22 45 29.9770000  0  6  2 26 15 19  7 27
  14069875.536   -39959013.954 8 -30955836.160 9  14069878.630
  15809406.466   -17348771.084 6 -13361737.466 9  15809410.345
  16614082.919   -11324011.374 5  -8695096.842 9  16614088.111
  16809070.700   -14551999.608 5 -11249547.785 9  16809078.251
  13501484.974   -33019280.765 8 -25466538.142 9  13501487.786
  14462625.294   -37046607.553 7 -28720574.124 9  14462629.044
 94  3 24 22 45 59.9770000  0  6  2 26 15 19  7 27
  14062101.685   -39999867.533 8 -30987670.124 9  14062104.614
  15800121.271   -17397566.006 6 -13399759.499 9  15800124.892
  16609344.239   -11348915.149 5  -8714502.362 9  16609349.196
  16818408.591   -14502931.278 5 -11211312.882 9  16818415.556
  13490018.271   -33079538.535 8 -25513492.229 9  13490021.177
  14467995.739   -37018386.265 7 -28698583.553 9  14467999.407
 94  3 24 22 46 29.9770000  0  6  2 26 15 19  7 27
  14054359.083   -40040556.166 8 -31019375.563 9  14054362.048
  15790933.700   -17445846.991 6 -13437381.059 9  15790937.392
  16604709.536   -11373268.282 5  -8733478.792 9  16604713.661
  16827778.622   -14453691.895 5 -11172944.682 9  16827785.314
  13478639.755   -33139333.804 8 -25560085.929 9  13478642.732
  14473438.372   -36989785.458 7 -28676297.255 9  14473441.958
 94  3 24 22 46 59.9760000  0  6  2 26 15 19  7 27
  14046647.610   -40081079.227 8 -31050951.980 9  14046650.586
  15781844.766   -17493609.981 6 -13474598.980 9  15781848.352
  16600179.703   -11397074.145 5  -8752028.788 9  16600184.168
  16837177.188   -14404303.569 5 -11134460.423 9  16837184.047
  13467344.149   -33198691.857 8 -25606338.944 9  13467347.172
  14478951.063   -36960817.095 7 -28653724.548 9  14478954.719
 94  3 24 22 47 29.9760000  0  6  2 26 15 19  7 27
  14038968.211   -40121435.013 8 -31082398.059 9  14038971.188
  15772852.156   -17540866.121 6 -13511421.962 9  15772855.695
  16595752.961   -11420336.721 5  -8770155.455 9  16595757.695
  16846604.125   -14354760.761 5 -11095855.784 9  16846610.996
  13456129.492   -33257625.450 8 -25652261.212 9  13456132.539
  14484531.961   -36931489.831 7 -28630872.189 9  14484535.594
 94  3 24 22 47 59.9760000  0  6  2 26 15 19  7 27
  14031321.617   -40161617.667 8 -31113709.232 9  14031324.594
  15763957.117   -17587610.510 6 -13547846.181 9  15763960.727
  16591430.125   -11443053.425 6  -8787856.749 9  16591434.742
  16856066.203   -14305039.785 5 -11057112.303 9  16856072.942
  13444999.117   -33316116.023 8 -25697838.273 9  13445002.176
  14490179.774   -36901809.160 7 -28607744.447 9  14490183.383
 94  3 24 22 48 29.9760000  0  6  2 26 15 19  7 27
  14023706.508   -40201636.066 8 -31144892.407 9  14023709.426
  15755159.703   -17633841.392 6 -13583870.254 9  15755163.207
  16587210.610   -11465228.955 6  -8805136.354 9  16587214.488
  16865562.313   -14255138.455 5 -11018228.295 9  16865569.278
  13433954.633   -33374154.916 8 -25743063.374 9  13433957.645
  14495895.110   -36871777.004 7 -28584342.817 9  14495898.789
 94  3 24 22 48 59.9760000  0  6  2 26 15 19  7 27
  14016118.813   -40241509.924 8 -31175962.954 9  14016121.625
  15746458.086   -17679568.929 6 -13619502.117 9  15746461.485
  16583092.961   -11486867.653 6  -8821997.661 9  16583097.567
  16875094.680   -14205049.712 5 -10979198.253 9  16875101.574
  13422998.805   -33431728.885 8 -25787926.197 9  13423001.688
  14501677.797   -36841388.188 7 -28560663.262 9  14501681.278
 94  3 24 22 49 29.9760000  0  6  2 26 15 19  7 27
  14008557.250   -40281245.726 8 -31206925.924 9  14008560.297
  15737853.985   -17724783.384 6 -13654734.177 9  15737857.805
  16579076.719   -11507971.165 6  -8838441.940 9  16579081.090
  16884663.024   -14154765.632 5 -10940016.027 9  16884669.656
  13412131.758   -33488834.831 8 -25832424.325 9  13412134.758
  14507531.930   -36810623.218 7 -28536690.610 9  14507535.656
 94  3 24 22 49 59.9760000  0  6  2 26 15 19  7 27
  14001018.110   -40320864.524 8 -31237797.721 9  14001021.192
  15729349.906   -17769474.126 6 -13689558.146 9  15729353.258
  16575161.797   -11528546.608 6  -8854474.725 9  16575166.168
  16894267.008   -14104297.711 5 -10900690.519 9  16894273.231
  13401349.703   -33545494.762 8 -25876574.910 9  13401352.633
  14513460.305   -36779470.241 7 -28512415.608 9  14513463.938
 94  3 24 22 50 29.9760000  0  6  2 26 15 19  7 27
  13993499.461   -40360375.120 8 -31268585.202 9  13993502.473
  15720944.188   -17813644.168 6 -13723976.375 9  15720947.598
  16571345.750   -11548596.780 6  -8870098.207 9  16571350.274
  16903904.774   -14053652.284 5 -10861226.717 9  16903911.149
  13390647.703   -33601733.688 8 -25920397.439 9  13390650.692
  14519464.274   -36747918.893 7 -28487830.195 9  14519468.035
 94  3 24 22 50 59.9760000  0  6  2 26 15 19  7 27
  13986000.313   -40399783.197 8 -31299292.802 9  13986003.301
  15712634.039   -17857315.646 6 -13758006.115 9  15712637.613
  16567628.836   -11568127.604 6  -8885317.022 9  16567633.594
  16913573.649   -14002842.427 5 -10821634.747 9  16913580.508
  13380025.016   -33657555.723 8 -25963895.119 9  13380027.910
  14525544.469   -36715968.393 7 -28462933.751 9  14525548.195
 94  3 24 22 51 29.9760000  0  6  2 26 15 19  7 27
  13978523.320   -40439075.831 8 -31329910.448 9  13978526.320
  15704418.227   -17900489.714 6 -13791648.259 9  15704421.531
  16564012.844   -11587132.683 6  -8900126.160 9  16564017.403
  16923272.117   -13951872.978 5 -10781918.468 9  16923278.574
  13369482.680   -33712955.914 8 -26007064.087 9  13369485.481
  14531701.274   -36683613.790 7 -28437722.426 9  14531705.164
 94  3 24 22 51 59.9760000  0  6  2 26 15 19  7 27
  13971067.375   -40478256.565 8 -31360440.894 9  13971070.399
  15696293.164   -17943189.031 6 -13824920.477 9  15696296.481
  16560496.391   -11605613.307 6  -8914526.641 9  16560500.199
  16933000.445   -13900755.367 5 -10742086.740 9  16933007.621
  13359024.203   -33767916.765 8 -26049890.715 9  13359027.133
  14537931.406   -36650873.434 7 -28412210.516 9  14537935.215
 94  3 24 22 52 29.9760000  0  6  2 26 15 19  7 27
  13963635.844   -40517308.646 8 -31390871.095 9  13963638.867
  15688255.313   -17985425.979 6 -13857832.409 9  15688258.746
  16557080.524   -11623563.078 6  -8928513.462 9  16557084.567
  16942754.258   -13849497.065 5 -10702145.377 9  16942761.938
  13348653.766   -33822413.183 8 -26092355.448 9  13348656.789
  14544233.930   -36617755.229 7 -28386404.175 9  14544237.703
 94  3 24 22 52 59.9760000  0  6  2 26 15 19  7 27
  13956231.766   -40556218.566 8 -31421190.520 9  13956234.766
  15680304.469   -18027207.533 6 -13890389.487 9  15680307.809
  16553766.110   -11640977.877 6  -8942083.437 9  16553770.633
  16952534.594   -13798103.213 5 -10662098.430 9  16952542.543
  13338373.742   -33876434.942 8 -26134450.316 9  13338376.766
  14550606.406   -36584266.597 7 -28360309.187 9  14550610.110
 94  3 24 22 53 29.9760000  0  6  2 26 15 19  7 27
  13948855.875   -40594978.739 8 -31451393.256 9  13948858.910
  15672442.867   -18068521.788 6 -13922582.426 9  15672446.184
  16550555.320   -11657853.585 6  -8955233.330 9  16550559.563
  16962342.086   -13746562.298 5 -10621936.877 9  16962350.035
  13328182.797   -33929989.381 8 -26176181.036 9  13328185.832
  14557048.492   -36550414.495 7 -28333930.974 9  14557052.137
 94  3 24 22 53 59.9760000  0  6  2 26 15 19  7 27
  13941510.586   -40633578.589 8 -31481471.064 9  13941513.563
  15664672.469   -18109356.973 6 -13954402.070 9  15664675.774
  16547446.664   -11674187.653 6  -8967961.186 9  16547451.469
  16972180.250   -13694865.616 5 -10581653.938 9  16972187.660
  13318079.125   -33983083.572 8 -26217553.120 9  13318082.160
  14563558.836   -36516202.609 7 -28307272.423 9  14563562.528
 94  3 24 22 54 29.9760000  0  6  2 26 15 19  7 27
  13934199.000   -40672001.092 8 -31511410.679 9  13934202.070
  15656996.008   -18149695.189 6 -13985834.462 9  15656999.313
  16544441.961   -11689977.811 6  -8980265.206 9  16544446.871
  16982051.133   -13642992.079 5 -10541233.177 9  16982059.035
  13308059.266   -34035738.631 8 -26258583.024 9  13308062.219
  14570138.211   -36481626.999 7 -28280330.447 9  14570141.985
 94  3 24 22 54 59.9760000  0  6  2 26 15 19  7 27
  13926921.117   -40710247.225 8 -31541212.864 9  13926924.223
  15649415.867   -18189530.600 6 -14016875.062 9  15649419.360
  16541540.461   -11705225.554 6  -8992146.563 9  16541544.680
  16991959.805   -13590922.999 5 -10500660.046 9  16991967.695
  13298121.258   -34087963.495 8 -26299277.707 9  13298124.305
  14576787.219   -36446687.607 7 -28253105.001 9  14576791.016
 94  3 24 22 55 29.9760000  0  6  2 26 15 19  7 27
  13919677.961   -40748308.945 8 -31570871.348 9  13919681.078
  15641934.805   -18228842.974 6 -14047508.097 9  15641938.320
  16538742.438   -11719927.529 6  -9003602.647 9  16538746.926
  17001907.063   -13538652.452 5 -10459929.938 9  17001915.879
  13288266.664   -34139749.704 8 -26339630.578 9  13288269.653
  14583504.235   -36411388.907 7 -28225599.575 9  14583508.160
 94  3 24 22 55 59.9760000  0  6  2 26 15 19  7 27
  13912471.258   -40786182.229 8 -31600382.999 9  13912474.328
  15634554.172   -18267629.423 6 -14077731.322 9  15634557.360
  16536049.875   -11734080.587 6  -9014631.003 9  16536054.504
  17011892.000   -13486180.767 5 -10419043.082 9  17011900.313
  13278496.195   -34191093.513 8 -26379638.722 9  13278499.113
  14590290.180   -36375728.985 7 -28197812.680 9  14590294.059
 94  3 24 22 56 29.9760000  0  6  2 26 15 19  7 27
  13905298.836   -40823872.441 8 -31629751.996 9  13905302.000
  15627272.367   -18305895.559 6 -14107549.112 9  15627275.461
  16533460.813   -11747682.485 6  -9025229.890 9  16533465.688
  17021915.055   -13433510.988 5 -10378001.906 9  17021922.746
  13268811.266   -34241988.025 8 -26419296.770 9  13268814.278
  14597143.735   -36339714.713 7 -28169749.671 9  14597147.707
 94  3 24 22 56 59.9760000  0  6  2 26 15 19  7 27
  13898159.789   -40861389.197 8 -31658985.834 9  13898162.918
  15620088.024   -18343649.847 6 -14136968.079 9  15620091.059
  16530977.274   -11760735.366 6  -9035400.958 9  16530982.160
  17031970.985   -13380668.552 5 -10336826.136 9  17031979.332
  13259213.930   -34292422.327 8 -26458596.211 9  13259216.965
  14604062.492   -36303354.989 7 -28141417.472 9  14604066.629
 94  3 24 22 57 29.9760000  0  6  2 26 15 19  7 27
  13891050.149   -40898748.268 8 -31688096.797 9  13891053.301
  15613001.070   -18380891.588 6 -14165987.634 9  15613004.352
  16528597.610   -11773238.741 6  -9045143.860 9  16528603.153
  17042055.586   -13327672.799 5 -10295530.927 9  17042063.887
  13249703.195   -34342401.305 8 -26497540.857 9  13249706.242
  14611048.930   -36266641.777 7 -28112809.838 9  14611053.055
 94  3 24 22 57 59.9760000  0  6  2 26 15 19  7 27
  13883968.078   -40935965.480 8 -31717097.227 9  13883971.324
  15606011.078   -18417625.362 6 -14194611.375 9  15606013.856
  16526324.227   -11785189.301 6  -9054455.997 9  16526328.926
  17052168.813   -13274526.600 5 -10254118.456 9  17052176.422
  13240278.297   -34391929.120 8 -26536133.946 9  13240281.356
  14618105.250   -36229559.305 7 -28083914.464 9  14618109.246
 94  3 24 22 58 29.9760000  0  6  2 26 15 19  7 27
  13876911.297   -40973048.688 8 -31745993.245 9  13876914.613
  15599117.453   -18453851.995 6 -14222839.937 9  15599120.817
  16524154.430   -11796590.710 6  -9063340.226 9  16524158.895
  17062308.969   -13221241.368 5 -10212597.676 9  17062317.715
  13230940.813   -34440998.143 8 -26574369.538 9  13230943.930
  14625232.039   -36192108.623 7 -28054732.181 9  14625236.035
 94  3 24 22 58 59.9760000  0  6  2 26 15 19  7 27
  13869881.086   -41009993.174 8 -31774781.163 9  13869884.426
  15592321.953   -18489562.618 6 -14250666.411 9  15592325.598
  16522089.453   -11807441.977 6  -9071795.759 9  16522094.188
  17072475.016   -13167818.980 5 -10170970.027 9  17072483.035
  13221690.969   -34489606.775 8 -26612246.385 9  13221694.004
  14632432.070   -36154274.205 7 -28025250.889 9  14632436.207
 94  3 24 22 59 29.9760000  0  6  2 26 15 19  7 27
  13862877.930   -41046795.028 8 -31803457.940 9  13862881.328
  15585625.633   -18524751.981 6 -14278086.728 9  15585629.137
  16520128.977   -11817744.488 6  -9079823.695 9  16520133.465
  17082669.297   -13114249.481 5 -10129227.783 9  17082678.090
  13212528.422   -34537755.879 8 -26649765.158 9  13212531.457
  14639705.602   -36116051.133 7 -27995466.749 9  14639709.820
 94  3 24 22 59 59.9760000  0  5  2 26 15  7 27
  13855905.860   -41083434.675 8 -31832008.324 9  13855909.164
  15579027.164   -18559424.788 6 -14305104.506 9  15579030.774
  16518271.563   -11827501.466 5  -9087426.549 9  16518276.285
  13203453.945   -34585443.217 8 -26686924.114 9  13203456.957
  14647051.031   -36077451.056 7 -27965388.824 9  14647055.180
 94  3 24 23  0 29.9760000  0  5  2 26 15  7 27
  13848968.344   -41119890.063 8 -31860415.130 9  13848971.602
  15572527.820   -18593578.890 6 -14331718.104 9  15572531.559
  16516519.789   -11836711.227 6  -9094603.010 9  16516524.453
  13194468.063   -34632664.421 8 -26723719.847 9  13194470.981
  14654468.125   -36038474.497 7 -27935017.546 9  14654472.262
 94  3 24 23  0 59.9760000  0  5  2 26 15  7 27
  13842066.570   -41156160.232 8 -31888677.617 9  13842069.934
  15566125.047   -18627227.549 6 -14357937.860 9  15566128.832
  16514870.188   -11845377.071 5  -9101355.630 9  16514875.285
  13185567.555   -34679437.742 8 -26760166.586 9  13185570.473
  14661957.766   -35999115.631 7 -27904348.359 9  14661961.809
 94  3 24 23  1 29.9760000  0  5  2 26 15  7 27
  13835197.844   -41192254.380 8 -31916802.940 9  13835201.301
  15559816.430   -18660377.857 6 -14383769.280 9  15559820.438
  16513324.047   -11853503.635 5  -9107688.044 9  16513328.828
  13176750.422   -34725770.349 8 -26796269.905 9  13176753.399
  14669518.461   -35959384.383 7 -27873388.999 9  14669522.528
 94  3 24 23  1 59.9760000  0  5  2 26 15  7 27
  13828361.703   -41228181.081 8 -31944797.784 9  13828364.949
  15553598.992   -18693050.393 6 -14409228.409 9  15553602.731
  16511879.250   -11861096.987 5  -9113604.961 9  16511883.610
  13168016.985   -34771665.595 8 -26832032.423 9  13168019.938
  14677147.672   -35919292.274 6 -27842148.459 9  14677151.750
 94  3 24 23  2 29.9760000  0  5  2 26 15  7 27
  13821555.563   -41263947.097 8 -31972667.423 9  13821558.961
  15547471.766   -18725249.486 6 -14434318.623 9  15547475.938
  16510535.156   -11868160.490 5  -9119108.991 9  16510539.340
  13159366.945   -34817122.272 8 -26867453.200 9  13159369.922
  14684844.016   -35878847.517 6 -27810633.136 9  14684848.199
 94  3 24 23  2 59.9760000  0  5  2 26 15  7 27
  13814776.445   -41299570.058 8 -32000425.591 9  13814779.949
  15541434.383   -18756975.795 6 -14459040.444 9  15541438.238
  16509290.844   -11874698.462 5  -9124203.539 9  16509295.660
  13150799.117   -34862146.473 8 -26902536.985 9  13150802.117
  14692605.805   -35838059.702 6 -27778850.486 9  14692610.281
 94  3 24 23  3 29.9760000  0  5  2 26 15  7 27
  13808024.719   -41335051.119 8 -32028073.186 9  13808028.059
  15535487.969   -18788224.408 6 -14483390.031 9  15535492.000
  16508146.024   -11880715.883 5  -9128892.430 9  16508150.793
  13142315.211   -34906729.133 8 -26937276.705 9  13142318.153
  14700429.719   -35796946.766 6 -27746814.487 9  14700433.926
 94  3 24 23  3 59.9750000  0  5  2 26 15  7 27
  13801302.737   -41370376.004 8 -32055599.085 9  13801306.101
  15529631.503   -18819002.041 6 -14507372.619 9  15529635.546
  16507099.800   -11886212.481 5  -9133175.521 9  16507105.273
  13133916.183   -34950866.292 7 -26971669.289 9  13133919.171
  14708314.480   -35755512.375 6 -27714528.006 9  14708318.722
 94  3 24 23  4 29.9750000  0  5  2 26 15  7 27
  13794611.159   -41405540.716 8 -32083000.168 9  13794614.546
  15523866.722   -18849296.691 6 -14530978.852 9  15523870.648
  16506152.894   -11891190.467 5  -9137054.486 9  16506158.097
  13125599.112   -34994573.166 8 -27005726.584 9  13125602.077
  14716262.425   -35713744.506 6 -27681981.668 9  14716266.609
 94  3 24 23  4 59.9750000  0  5  2 26 15  7 27
  13787949.050   -41440549.243 8 -32110279.550 9  13787952.448
  15518192.066   -18879115.281 6 -14554214.133 9  15518195.980
  16505302.847   -11895654.852 5  -9140533.228 9  16505307.570
  13117363.370   -35037851.909 8 -27039450.272 9  13117366.476
  14724274.034   -35671645.345 6 -27649177.191 9  14724278.405
 94  3 24 23  5 29.9750000  0  5  2 26 15  7 27
  13781320.636   -41475381.683 8 -32137421.724 9  13781323.999
  15512609.183   -18908455.857 6 -14577076.930 9  15512612.827
  16504552.120   -11899601.312 5  -9143608.389 9  16504556.620
  13109211.206   -35080691.409 8 -27072831.693 9  13109214.218
  14732347.753   -35629215.646 6 -27616115.148 9  14732351.855
 94  3 24 23  5 59.9750000  0  5  2 26 15  7 27
  13774726.753   -41510033.983 8 -32164423.530 9  13774730.187
  15507116.394   -18937323.691 6 -14599571.357 9  15507120.073
  16503898.706   -11903033.203 5  -9146282.585 9  16503903.780
  13101140.066   -35123104.584 7 -27105880.914 9  13101143.101
  14740484.472   -35586457.501 6 -27582797.169 9  14740488.773
 94  3 24 23  6 29.9750000  0  6  2 26 15  4  7 27
  13768164.566   -41544518.569 8 -32191294.644 9  13768167.894
  15501713.105   -18965715.268 6 -14621694.672 9  15501716.726
  16503343.550   -11905951.785 5  -9148556.800 9  16503348.027
  16837922.331      -25115.60815
  13093151.152   -35165086.459 7 -27138594.057 9  13093154.222
  14748683.284   -35543373.869 6 -27549225.575 9  14748687.585
 94  3 24 23  6 59.9750000  0  6  2 26 15  4  7 27
  13761634.214   -41578835.772 8 -32218035.332 9  13761637.589
  15496399.644   -18993637.934 6 -14643452.608 9  15496403.441
  16502885.933   -11908354.902 5  -9150429.356 9  16502890.925
  16809244.511     -175815.902 5
  13085246.542   -35206626.399 7 -27170962.834 9  13085249.648
  14756942.433   -35499970.352 6 -27515404.718 9  14756946.405
 94  3 24 23  7 29.9750000  0  6  2 26 15  4  7 27
  13755136.691   -41612980.820 8 -32244641.869 9  13755140.007
  15491176.456   -19021087.508 6 -14664841.888 9  15491180.452
  16502526.839   -11910245.294 5  -9151902.388 9  16502531.198
  16780569.487     -326503.350 5    -11738.60519  16780576.921
  13077424.620   -35247730.790 7 -27202992.220 9  13077427.655
  14765263.112   -35456246.375 6 -27481334.149 9  14765267.331
 94  3 24 23  7 59.9750000  0  6  2 26 15  4  7 27
  13748671.316   -41646956.395 8 -32271116.350 9  13748674.550
  15486041.362   -19048070.632 6 -14685867.713 9  15486045.030
  16502264.480   -11911623.581 5  -9152976.377 9  16502269.636
  16751892.417     -477199.759 5   -129164.116 9  16751899.417
  13069685.112   -35288401.915 7 -27234683.994 9  13069688.124
  14773647.112   -35412188.425 6 -27447003.350 9  14773651.155
 94  3 24 23  8 29.9750000  0  6  2 26 15  4  7 27
  13742237.870   -41680764.496 8 -32297460.334 9  13742241.116
  15480995.206   -19074586.682 6 -14706529.586 9  15480999.237
  16502099.902   -11912487.296 5  -9153649.390 9  16502104.226
  16723211.667     -627913.234 5   -246602.968 9  16723218.159
  13062027.683   -35328642.730 7 -27266040.467 9  13062030.648
  14782096.237   -35367787.581 6 -27412405.357 9  14782100.550
 94  3 24 23  8 59.9750000  0  6  2 26 15  4  7 27
  13735838.269   -41714394.360 8 -32323665.436 9  13735841.527
  15476039.011   -19100633.113 6 -14726825.513 9  15476042.667
  16502032.886   -11912840.188 5  -9153924.380 9  16502037.034
  16694523.261     -778672.467 5   -364077.459 9  16694531.456
  13054447.917   -35368473.771 7 -27297077.636 9  13054450.823
  14790609.612   -35323049.345 6 -27377544.467 9  14790613.843
 94  3 24 23  9 29.9750000  0  6  2 26 15  4  7 27
  13729472.159   -41747848.913 8 -32349733.925 9  13729475.570
  15471172.995   -19126206.831 6 -14746753.092 9  15471176.628
  16502062.566   -11912681.681 5  -9153800.841 9  16502067.136
  16665827.777     -929468.070 5   -481580.293 9  16665834.952
  13046945.198   -35407901.586 7 -27327800.606 9  13046948.081
  14799186.136   -35277980.254 6 -27342425.759 9  14799190.226
 94  3 24 23  9 59.9750000  0  6  2 26 15  4  7 27
  13723136.737   -41781141.897 8 -32375676.515 9  13723139.984
  15466394.972   -19151313.058 6 -14766316.408 9  15466398.405
  16502189.472   -11912014.920 5  -9153281.275 9  16502194.464
  16637129.112    -1080279.138 5   -599095.227 9  16637136.511
  13039516.441   -35446939.952 7 -27358220.104 9  13039519.241
  14807823.355   -35232591.084 6 -27307057.643 9  14807827.421
 94  3 24 23 10 29.9750000  0  6  2 26 15  4  7 27
  13716828.441   -41814291.620 8 -32401507.479 9  13716831.663
  15461707.620   -19175948.101 6 -14785512.562 9  15461711.136
  16502413.448   -11910837.834 6  -9152364.076 9  16502418.335
  16608431.222    -1231085.184 5   -716606.184 9  16608438.655
  13032161.277   -35485591.577 7 -27388338.249 9  13032164.077
  14816519.855   -35186892.185 6 -27271448.186 9  14816523.980
 94  3 24 23 10 59.9750000  0  6  2 26 15  4  7 27
  13710545.878   -41847307.327 8 -32427234.013 9  13710549.077
  15457108.628   -19200114.779 6 -14804343.750 9  15457112.612
  16502735.175   -11909150.692 5  -9151049.419 9  16502740.085
  16579738.292    -1381869.920 5   -834100.591 9  16579746.171
  13024881.534   -35523847.584 8 -27418148.123 9  13024884.183
  14825273.370   -35140891.978 6 -27235603.940 9  14825277.484
 94  3 24 23 11 29.9750000  0  6  2 26 15  4  7 27
  13704286.894   -41880198.047 8 -32452863.154 9  13704290.175
  15452596.769   -19223825.424 6 -14822819.593 9  15452600.484
  16503152.870   -11906954.425 5  -9149338.025 9  16503157.710
  16551049.237    -1532624.342 5   -951571.355 9  16551056.155
  13017678.753   -35561697.910 8 -27447641.880 9  13017681.378
  14834084.480   -35094588.677 6 -27199523.515 9  14834088.687
 94  3 24 23 11 59.9750000  0  6  2 26 15  4  7 27
  13698052.972   -41912958.078 8 -32478390.460 9  13698056.265
  15448170.214   -19247085.537 6 -14840944.372 9  15448174.222
  16503667.581   -11904248.136 5  -9147229.250 9  16503672.679
  16522366.261    -1683356.319 5  -1069024.616 9  16522375.148
  13010556.120   -35599128.871 8 -27476808.855 9  13010558.792
  14842955.573   -35047971.896 6 -27163198.821 9  14842959.804
 94  3 24 23 12 29.9750000  0  6  2 26 15  4  7 27
  13691845.527   -41945576.547 8 -32503807.463 9  13691848.878
  15443829.581   -19269895.153 6 -14858718.107 9  15443833.109
  16504279.870   -11901032.001 5  -9144723.188 9  16504284.148
  16493685.784    -1834073.543 5  -1186466.418 9  16493693.464
  13003515.058   -35636128.598 8 -27505639.802 9  13003517.753
  14851888.167   -35001031.017 6 -27126621.580 9  14851892.538
 94  3 24 23 12 59.9750000  0  6  2 26 15  4  7 27
  13685673.339   -41978012.419 8 -32529082.176 9  13685676.679
  15439576.956   -19292242.708 6 -14876131.809 9  15439580.566
  16504988.573   -11897305.383 5  -9141819.348 9  16504993.765
  16465007.823    -1984778.939 5  -1303898.987 9  16465015.222
  12996558.362   -35672685.659 8 -27534125.813 9  12996560.964
  14860882.659   -34953765.483 6 -27089791.359 9  14860887.007
 94  3 24 23 13 29.9750000  0  6  2 26 15  4  7 27
  13679538.612   -42010252.225 8 -32554204.111 9  13679541.917
  15435414.683   -19314117.266 6 -14893176.929 9  15435418.433
  16505794.792   -11893069.790 5  -9138518.887 9  16505799.737
  16436329.933    -2135482.384 5  -1421330.037 9  16436336.909
  12989686.612   -35708797.348 8 -27562264.782 9  12989689.261
  14869938.152   -34906179.216 6 -27052711.218 9  14869942.722
 94  3 24 23 13 59.9750000  0  6  2 26 15  4  7 27
  13673440.464   -42042296.450 8 -32579173.645 9  13673443.757
  15431345.198   -19335504.708 6 -14909842.504 9  15431348.948
  16506697.441   -11888325.630 5  -9134822.166 9  16506702.784
  16407653.823    -2286175.510 5  -1538753.055 9  16407660.550
  12982899.042   -35744466.786 8 -27590059.136 9  12982901.691
  14879053.316   -34858277.659 6 -27015385.397 9  14879057.886
 94  3 24 23 14 29.9750000  0  6  2 26 15  4  7 27
  13667381.480   -42074136.939 8 -32603984.426 9  13667384.843
  15427370.269   -19356391.165 6 -14926117.687 9  15427373.632
  16507697.644   -11883069.609 5  -9130726.576 9  16507702.765
  16378982.823    -2436842.946 5  -1656156.035 9  16378989.386
  12976193.198   -35779706.834 8 -27617518.910 9  12976195.788
  14888227.300   -34810066.628 6 -26977818.429 9  14888231.952
 94  3 24 23 14 59.9750000  0  6  2 26 15  4  7 27
  13661361.027   -42105773.693 8 -32628636.446 9  13661364.296
  15423490.394   -19376781.159 6 -14942006.014 9  15423493.558
  16508794.722   -11877305.104 5  -9126234.748 9  16508800.136
  16350317.683    -2587476.777 5  -1773532.854 9  16350324.905
  12969567.698   -35814524.217 8 -27644649.333 9  12969570.288
  14897457.316   -34761562.975 6 -26940023.458 9  14897462.062
 94  3 24 23 15 29.9750000  0  7  2 26 15  4  7 27  9
  13655374.550   -42137233.106 8 -32653150.283 9  13655377.960
  15419702.292   -19396686.246 6 -14957516.497 9  15419705.831
  16509988.105   -11871034.735 5  -9121348.755 9  16509992.710
  16321660.378    -2738072.441 5  -1890879.951 9  16321667.116
  12963019.995   -35848931.045 8 -27671459.838 9  12963022.726
  14906744.862   -34712759.403 6 -26901994.771 9  14906749.374
  16756756.362      -24345.73815
 94  3 24 23 15 59.9750000  0  7  2 26 15  4  7 27  9
  13649423.816   -42168505.126 8 -32677518.096 9  13649427.132
  15416003.675   -19416122.164 6 -14972661.395 9  15416007.073
  16511277.487   -11864258.618 5  -9116068.670 9  16511282.702
  16293012.448    -2888613.156 5  -2008184.200 9  16293018.073
  12956549.948   -35882932.358 8 -27697954.358 9  12956552.573
  14916091.347   -34663641.183 6 -26863720.914 9  14916096.480
  16728966.362     -170385.617 5
 94  3 24 23 16 29.9750000  0  7  2 26 15  4  7 27  9
  13643511.441   -42199575.705 8 -32701728.941 9  13643514.804
  15412391.269   -19435105.749 6 -14987453.825 9  15412394.773
  16512663.042   -11856976.946 5  -9110394.650 9  16512667.976
  16264379.277    -3039085.268 5  -2125435.008 9  16264386.359
  12950156.417   -35916530.677 7 -27724134.854 9  12950159.066
  14925500.300   -34614198.907 6 -26825194.548 9  14925505.292
  16701194.808     -316324.392 5    -72010.40319  16701196.425
 94  3 24 23 16 59.9750000  0  7  2 26 15  4  7 27  9
  13637635.480   -42230452.770 8 -32725788.994 9  13637638.995
  15408862.706   -19453648.384 6 -15001902.654 9  15408866.726
  16514143.964   -11849192.804 5  -9104329.106 9  16514149.038
  16235756.362    -3189498.692 5  -2242640.077 9  16235763.042
  12943841.159   -35949717.065 7 -27749994.368 9  12943843.948
  14934971.027   -34564431.081 6 -26786414.502 9  14934975.761
  16673438.933     -462173.182 5   -185658.774 9  16673442.894
 94  3 24 23 17 29.9750000  0  7  2 26 15  4  7 27  9
  13631794.480   -42261148.004 8 -32749707.365 9  13631797.937
  15405416.698   -19471757.242 6 -15016013.478 9  15405420.308
  16515720.448   -11840908.869 5  -9097874.090 9  16515725.734
  16207142.534    -3339862.843 5  -2359806.752 9  16207149.226
  12937603.487   -35982496.101 7 -27775536.465 9  12937606.206
  14944502.566   -34514341.653 6 -26747383.851 9  14944507.581
  16645704.152     -607926.342 5   -299232.616 9  16645707.679
 94  3 24 23 17 59.9750000  0  7  2 26 15  4  7 27  9
  13625988.425   -42291658.809 8 -32773482.021 9  13625991.941
  15402051.995   -19489439.467 6 -15029791.860 9  15402055.499
  16517392.120   -11832126.124 5  -9091030.420 9  16517396.948
  16178539.980    -3490169.269 5  -2476928.487 9  16178545.687
  12931442.870   -36014868.616 7 -27800761.791 9  12931445.495
  14954092.448   -34463944.628 6 -26708113.529 9  14954097.816
  16617988.042     -753579.062 5   -412728.164 9  16617990.972
 94  3 24 23 18 29.9750000  0  7  2 26 15  4  7 27  9
  13620214.027   -42322002.993 8 -32797126.841 9  13620217.484
  15398768.534   -19506692.802 6 -15043236.043 9  15398772.284
  16519158.550   -11822845.602 5  -9083798.878 9  16519162.921
  16149948.394    -3640420.236 6  -2594006.982 9  16149953.960
  12925360.675   -36046831.382 7 -27825667.832 9  12925363.300
  14963738.245   -34413256.530 6 -26668616.383 9  14963743.366
  16590287.925     -899132.915 5   -526146.735 9  16590290.339
 94  3 24 23 18 59.9750000  0  7  2 26 15  4  7 27  9
  13614470.417   -42352186.296 8 -32820646.304 9  13614473.874
  15395569.636   -19523506.249 6 -15056337.458 9  15395573.280
  16521018.175   -11813069.513 5  -9076181.162 9  16521023.671
  16121365.394    -3790625.662 6  -2711049.993 9  16121370.855
  12919358.628   -36078373.929 7 -27850246.429 9  12919361.171
  14973437.136   -34362289.480 6 -26628901.878 9  14973442.140
  16562612.902    -1044571.694 5   -639475.574 9  16562616.370
 94  3 24 23 19 29.9750000  0  6  2 26  4  7 27  9
  13608759.542   -42382196.335 8 -32844030.750 9  13608762.999
  15392453.894   -19539877.706 6 -15069094.458 9  15392458.195
  16092794.011    -3940769.101 5  -2828044.712 9  16092799.542
  12913436.050   -36109496.781 7 -27874497.988 9  12913438.581
  14983190.683   -34311034.464 6 -26588962.977 9  14983195.628
  16534960.253    -1189889.097 5   -752709.849 9  16534964.120
 94  3 24 23 19 59.9750000  0  6  2 26  4  7 27  9
  13603083.081   -42412027.591 8 -32867275.886 9  13603086.527
  15389423.308   -19555805.635 6 -15081505.842 9  15389426.905
  16064235.495    -4090842.510 5  -2944984.835 9  16064241.214
  12907593.519   -36140199.436 7 -27898422.127 9  12907596.202
  14993001.355   -34259481.499 6 -26548791.912 9  14993006.605
  16507327.925    -1335088.411 5   -865852.143 9  16507331.675
 94  3 24 23 20 29.9750000  0  6  2 26  4  7 27  9
  13597442.527   -42441668.739 8 -32890372.886 9  13597445.820
  15386478.737   -19571278.189 6 -15093562.401 9  15386482.405
  16035689.605    -4240852.926 5  -3061875.858 9  16035696.214
  12901830.987   -36170481.861 8 -27922018.811 9  12901833.495
  15002870.152   -34207620.199 6 -26508380.576 9  15002874.816
  16479721.378    -1480174.762 5   -978906.385 9  16479725.222
 94  3 24 23 20 59.9740000  0  6  2 26  4  7 27  9
  13591841.264   -42471101.893 7 -32913307.815 9  13591844.709
  15383620.506   -19586298.673 6 -15105266.684 9  15383624.608
  16007156.131    -4390796.844 5  -3178715.091 9  16007161.592
  12896147.764   -36200346.983 7 -27945290.327 9  12896150.412
  15012798.779   -34155442.398 6 -26467722.638 9  15012804.006
  16452132.951    -1625148.622 5  -1091872.982 9  16452136.432
 94  3 24 23 21 29.9740000  0  6  2 26  4  7 27  9
  13586278.084   -42500337.928 8 -32936089.136 9  13586281.494
  15380846.014   -19600876.326 6 -15116625.909 9  15380849.694
  15978635.936    -4540668.521 5  -3295498.036 9  15978641.514
  12890541.264   -36229809.552 7 -27968248.167 9  12890543.842
  15022788.123   -34102949.071 6 -26426818.831 9  15022793.197
  16424562.990    -1770027.091 5  -1204765.248 9  16424566.740
 94  3 24 23 21 59.9740000  0  6  2 26  4  7 27  9
  13580752.826   -42529373.463 8 -32958714.237 9  13580756.319
  15378157.928   -19615004.609 6 -15127634.987 9  15378162.065
  15950132.654    -4690456.072 6  -3412215.395 9  15950138.350
  12885011.850   -36258866.398 7 -27990889.850 9  12885014.440
  15032835.412   -34050151.921 6 -26385678.281 9  15032840.498
  16397016.670    -1914792.098 6  -1317569.087 9  16397019.576
 94  3 24 23 22 29.9740000  0  6  2 26  4  7 27  9
  13575266.319   -42558205.094 7 -32981180.442 9  13575269.893
  15375554.537   -19628684.725 6 -15138294.824 9  15375558.287
  15921647.303    -4840147.014 6  -3528857.494 9  15921653.080
  12879560.092   -36287515.631 7 -28013213.921 9  12879562.869
  15042938.725   -33997059.972 6 -26344308.008 9  15042943.635
  16369489.342    -2059436.348 5  -1430278.862 9  16369493.350
 94  3 24 23 22 59.9740000  0  6  2 26  4  7 27  9
  13569815.920   -42586847.639 7 -33003499.319 9  13569819.447
  15373035.389   -19641923.502 6 -15148610.768 9  15373039.315
  15893184.162    -4989718.992 6  -3645406.897 9  15893190.115
  12874185.811   -36315756.659 7 -28035219.912 9  12874188.670
  15053095.951   -33943685.353 6 -26302717.476 9  15053100.487
  16341992.498    -2203942.883 6  -1542881.300 9  16341995.451
 94  3 24 23 23 29.9740000  0  6  2 26  4  7 27  9
  13564400.444   -42615304.875 8 -33025673.792 9  13564403.830
  15370600.850   -19654714.779 6 -15158578.009 9  15370604.740
  15864746.194    -5139161.294 6  -3761855.249 9  15864751.420
  12868886.639   -36343603.479 7 -28056918.727 9  12868889.569
  15063304.678   -33890037.358 6 -26260913.913 9  15063309.225
  16314519.319    -2348308.879 5  -1655374.260 9  16314522.260
 94  3 24 23 23 59.9740000  0  6  2 26  4  7 27  9
  13559024.061   -42643558.884 8 -33047689.903 9  13559027.623
  15368251.053   -19667065.568 6 -15168202.001 9  15368255.049
  15836330.623    -5288484.134 6  -3878210.527 9  15836335.873
  12863661.178   -36371064.638 7 -28078317.026 9  12863664.108
  15073566.904   -33836107.902 6 -26218891.051 9  15073571.733
  16287074.709    -2492533.714 6  -1767757.216 9  16287077.873
 94  3 24 23 24 29.9740000  0  6  2 26  4  7 27  9
  13553684.639   -42671618.237 8 -33069554.341 9  13553688.084
  15365982.834   -19678985.286 6 -15177490.104 9  15365986.725
  15807936.444    -5437697.730 6  -3994480.664 9  15807942.069
  12858506.037   -36398154.858 7 -28099426.289 9  12858508.908
  15083881.865   -33781904.091 6 -26176654.398 9  15083886.459
  16259653.490    -2636627.346 5  -1880037.934 9  16259657.557
 94  3 24 23 24 59.9740000  0  6  2 26  4  7 27  9
  13548382.850   -42699478.780 8 -33091263.867 9  13548386.237
  15363795.709   -19690476.486 6 -15186444.297 9  15363799.529
  15779560.295    -5586812.685 6  -4110673.954 9  15779565.627
  12853420.889   -36424877.282 7 -28120248.952 9  12853423.643
  15094247.881   -33727430.222 6 -26134207.300 9  15094252.791
  16232256.803    -2780603.185 5  -1992226.844 9  16232260.389
 94  3 24 23 25 29.9740000  0  6  2 26  4  7 27  9
  13543120.787   -42727131.900 8 -33112811.761 9  13543124.291
  15361689.904   -19701545.489 6 -15195069.507 9  15361693.947
  15751202.162    -5735836.884 6  -4226796.558 9  15751207.061
  12848405.561   -36451233.118 7 -28140785.959 9  12848408.244
  15104665.998   -33672682.560 6 -26091546.871 9  15104670.967
  16204879.701    -2924467.131 5  -2104328.575 9  16204883.264
 94  3 24 23 25 59.9740000  0  6  2 26  4  7 27  9
  13537897.654   -42754578.427 7 -33134198.678 9  13537901.100
  15359663.928   -19712191.676 6 -15203365.242 9  15359667.643
  15722861.436    -5884766.982 6  -4342845.841 9  15722866.838
  12843464.483   -36477198.655 7 -28161018.842 9  12843467.201
  15115136.194   -33617662.799 6 -26048674.425 9  15115141.069
  16177527.170    -3068209.947 5  -2216335.930 9  16177530.440
 94  3 24 23 26 29.9740000  0  6  2 26  4  7 27  9
  13532712.201   -42781829.526 8 -33155433.304 9  13532715.670
  15357720.522   -19722404.913 6 -15211323.625 9  15357723.897
  15694540.006    -6033596.791 6  -4458817.013 9  15694545.104
  12838601.819   -36502752.420 7 -28180930.855 9  12838604.502
  15125656.053   -33562381.011 6 -26005597.794 9  15125661.069
  16150197.029    -3211831.660 6  -2328248.912 9  16150200.862
 94  3 24 23 26 59.9740000  0  6  2 26  4  7 27  9
  13527564.186   -42808882.409 8 -33176513.479 9  13527567.643
  15355859.639   -19732186.768 6 -15218945.855 9  15355863.330
  15666238.569    -6182320.580 6  -4574705.558 9  15666243.432
  12833819.037   -36527887.290 7 -28200516.456 9  12833821.779
  15136226.506   -33506832.765 6 -25962313.521 9  15136231.346
  16122889.108    -3355329.457 5  -2440065.328 9  16122892.459
 94  3 24 23 27 29.9740000  0  6  2 26  4  7 27  9
  13522453.506   -42835738.282 8 -33197440.136 9  13522456.928
  15354080.826   -19741531.995 6 -15226227.861 9  15354084.565
  15637957.170    -6330941.223 6  -4690513.739 9  15637962.373
  12829113.092   -36552615.395 7 -28219785.098 9  12829115.987
  15146847.444   -33451019.910 6 -25918823.070 9  15146852.213
  16095610.584    -3498688.463 5  -2551773.577 9  16095613.455
 94  3 24 23 27 59.9740000  0  6  2 26  4  7 27  9
  13517381.733   -42862390.609 8 -33218208.185 9  13517385.166
  15352386.608   -19750435.260 6 -15233165.481 9  15352390.299
  15609692.006    -6479473.653 6  -4806253.168 9  15609697.362
  12824485.444   -36576932.573 7 -28238733.542 9  12824488.432
  15157519.108   -33394939.355 6 -25875124.030 9  15157524.053
  16068355.967    -3641906.378 6  -2663371.905 9  16068359.553
 94  3 24 23 28 29.9740000  0  6  2 26  4  7 27  9
  13512348.092   -42888843.440 7 -33238820.784 9  13512351.572
  15350773.225   -19758913.349 6 -15239771.802 9  15350776.588
  15581444.467    -6627913.934 6  -4921920.808 9  15581449.776
  12819932.147   -36600860.700 7 -28257378.833 9  12819935.217
  15168242.990   -33338584.905 6 -25831211.553 9  15168247.889
  16041129.225    -3784979.784 5  -2774857.639 9  16041132.506
 94  3 24 23 28 59.9740000  0  6  2 26  4  7 27  9
  13507352.811   -42915094.589 7 -33259276.232 9  13507356.139
  15349238.592   -19766977.998 6 -15246055.959 9  15349242.037
  15553217.076    -6776252.915 6  -5037509.524 9  15553221.647
  12815449.014   -36624419.218 7 -28275736.106 9  12815452.166
  15179019.717   -33281953.703 6 -25787083.433 9  15179024.768
  16013935.170    -3927892.669 6  -2886218.255 9  16013938.416
 94  3 24 23 29 29.9740000  0  6  2 26  4  7 27  9
  13502393.865   -42941153.148 8 -33279581.604 9  13502397.264
  15347780.600   -19774641.787 6 -15252027.753 9  15347783.904
  15525009.670    -6924482.690 6  -5153013.150 9  15525014.569
  12811037.475   -36647603.297 7 -28293801.618 9  12811040.674
  15189847.990   -33225051.437 6 -25742744.076 9  15189853.533
  15986771.826    -4070636.837 6  -2997447.429 9  15986775.447
 94  3 24 23 29 59.9740000  0  6  2 26  4  7 27  9
  13497469.350   -42967031.267 7 -33299746.370 9  13497472.783
  15346394.311   -19781925.243 6 -15257703.184 9  15346397.627
  15496825.865    -7072588.708 6  -5268420.331 9  15496830.904
  12806698.608   -36670404.786 7 -28311569.006 9  12806701.643
  15200726.772   -33167881.551 6 -25698196.186 9  15200731.787
  15959639.779    -4213211.152 5  -3108544.267 9  15959642.990
 94  3 24 23 30 29.9740000  0  6  2 26  4  7 27  9
  13492578.428   -42992733.108 8 -33319773.782 9  13492581.885
  15345079.451   -19788833.549 6 -15263086.304 9  15345083.225
  15468669.201    -7220550.011 6  -5383714.756 9  15468674.369
  12802429.334   -36692839.378 7 -28329050.502 9  12802432.322
  15211654.811   -33110456.849 6 -25653449.755 9  15211659.733
  15932541.154    -4355618.359 6  -3219510.861 9  15932544.401
 94  3 24 23 30 59.9740000  0  6  2 26  4  7 27  9
  13487724.233   -43018242.786 8 -33339651.455 9  13487727.795
  15343840.061   -19795350.672 6 -15268164.603 9  15343843.225
  15440540.608    -7368366.494 6  -5498896.337 9  15440545.647
  12798232.490   -36714892.856 7 -28346235.026 9  12798235.725
  15222630.303   -33052781.372 6 -25608507.917 9  15222635.975
  15905473.951    -4497857.463 6  -3330346.489 9  15905477.455
 94  3 24 23 31 29.9740000  0  6  2 26  4  7 27  9
  13482907.529   -43043556.355 8 -33359376.311 9  13482910.951
  15342676.287   -19801461.904 6 -15272926.621 9  15342679.557
  15412439.123    -7516039.727 6  -5613966.295 9  15412444.455
  12794107.803   -36736569.323 7 -28363125.770 9  12794110.897
  15233652.108   -32994861.261 6 -25563375.440 9  15233657.240
  15878436.881    -4639936.983 5  -3441057.766 9  15878440.783
 94  3 24 23 31 59.9740000  0  6  2 26  4  7 27  9
  13478130.545   -43068659.117 8 -33378936.908 9  13478133.885
  15341592.740   -19807158.614 6 -15277365.630 9  15341595.916
  15384365.936    -7663567.569 6  -5728922.950 9  15384371.268
  12790051.584   -36757884.355 7 -28379734.882 9  12790054.737
  15244719.647   -32936702.269 6 -25518056.806 9  15244724.358
  15851427.701    -4781863.890 5  -3551650.116 9  15851430.619
 94  3 24 23 32 29.9740000  0  6  2 26  4  7 27  9
  13473396.811   -43093535.560 8 -33398321.155 9  13473400.244
  15340588.545   -19812434.640 6 -15281476.840 9  15340592.154
  15356321.701    -7810939.964 6  -5843758.485 9  15356326.694
  12786065.108   -36778833.801 7 -28396059.117 9  12786068.190
  15255832.951   -32878299.449 6 -25472548.193 9  15255837.416
  15824451.115    -4923634.632 5  -3662120.772 9  15824453.987
 94  3 24 23 32 59.9740000  0  6  2 26  4  7 27  9
  13468707.264   -43118178.906 8 -33417523.769 9  13468710.639
  15339665.733   -19817286.379 6 -15285257.430 9  15339668.791
  15328309.342    -7958146.162 6  -5958464.509 9  15328314.369
  12782150.436   -36799404.602 7 -28412088.310 9  12782153.600
  15266992.584   -32819653.639 6 -25426850.242 9  15266997.904
  15797506.139    -5065232.480 5  -3772456.729 9  15797508.834
 94  3 24 23 33 29.9740000  0  6  2 26  4  7 27  9
  13464062.061   -43142589.904 8 -33436545.327 9  13464065.518
  15338821.178   -19821722.187 6 -15288713.932 9  15338824.670
  15300331.162    -8105174.057 6  -6073031.611 9  15300336.143
  12778307.545   -36819598.221 7 -28427823.598 9  12778310.592
  15278199.826   -32760759.616 6 -25380958.874 9  15278205.006
  15770594.944    -5206650.340 6  -3882652.423 9  15770597.112
 94  3 24 23 33 59.9740000  0  6  2 26  4  7 27  9
  13459460.069   -43166773.640 8 -33455389.802 9  13459463.537
  15338052.014   -19825764.972 6 -15291864.165 9  15338055.471
  15272387.303    -8252017.733 6  -6187455.154 9  15272392.658
  12774538.897   -36839404.979 7 -28443257.432 9  12774541.779
  15289456.709   -32701608.571 6 -25334867.227 9  15289462.029
  15743718.084    -5347886.267 5  -3992706.353 9  15743720.944
 94  3 24 23 34 29.9740000  0  6  2 26  4  7 27  9
  13454899.139   -43190740.797 8 -33474065.518 9  13454902.596
  15337357.217   -19829414.340 6 -15294707.857 9  15337361.084
  15244480.194    -8398669.135 6  -6301728.868 9  15244485.936
  12770843.569   -36858823.460 7 -28458388.715 9  12770846.475
  15300761.873   -32642196.028 5 -25288571.832 9  15300767.697
  15716878.108    -5488927.686 6  -4102608.717 9  15716880.123
 94  3 24 23 34 59.9740000  0  6  2 26  4  7 27  9
  13450379.053   -43214494.339 8 -33492574.775 9  13450382.487
  15336739.248   -19832662.099 6 -15297238.615 9  15336742.447
  15216608.998    -8545131.989 6  -6415855.668 9  15216614.377
  12767220.537   -36877862.475 7 -28473224.308 9  12767223.502
  15312117.975   -32582520.630 6 -25242071.593 9  15312123.342
  15690078.467    -5629765.051 6  -4212352.075 9  15690080.893
 94  3 24 23 35 29.9740000  0  6  2 26  4  7 27  9
  13445896.272   -43238051.108 8 -33510930.706 9  13445899.670
  15336195.451   -19835520.526 6 -15299465.977 9  15336198.850
  15188771.959    -8691417.774 6  -6529844.485 9  15188777.444
  12763667.865   -36896532.029 7 -28487772.011 9  12763670.631
  15323523.779   -32522586.184 6 -25195369.518 9  15323529.065
  15663314.444    -5770411.311 6  -4321946.512 9  15663316.869
 94  3 24 23 35 59.9740000  0  6  2 26  4  7 27  9
  13441452.631   -43261401.844 8 -33529126.089 9  13441456.006
  15335729.108   -19837971.826 6 -15301376.115 9  15335732.670
  15160970.178    -8837518.052 6  -6643688.757 9  15160975.076
  12760186.873   -36914824.598 7 -28502025.958 9  12760189.779
  15334976.834   -32462396.390 5 -25148468.465 9  15334981.709
  15636590.990    -5910848.980 6  -4431378.427 9  15636593.592
 94  3 24 23 36 29.9740000  0  6  2 26  4  7 27  9
  13437050.201   -43284537.627 8 -33547153.987 9  13437053.565
  15335341.733   -19840007.029 6 -15302962.009 9  15335345.541
  15133201.483    -8983440.396 6  -6757394.380 9  15133206.018
  12756775.115   -36932753.784 7 -28515996.745 9  12756777.951
  15346474.795   -32401971.691 5 -25101384.385 9  15346479.717
  15609906.256    -6051072.636 6  -4540643.550 9  15609909.221
 94  3 24 23 36 59.9740000  0  6  2 26  4  7 27  9
  13432689.701   -43307453.275 8 -33565010.349 9  13432693.100
  15335030.694   -19841642.064 6 -15304236.082 9  15335034.936
  15105464.178    -9129203.270 6  -6870975.718 9  15105469.135
  12753433.264   -36950316.085 7 -28529681.650 9  12753436.135
  15358016.404   -32341325.841 5 -25054127.960 9  15358021.912
  15583262.490    -6191090.798 6  -4649748.565 9  15583265.819
 94  3 24 23 37 29.9730000  0  6  2 26  4  7 27  9
  13428371.993   -43330142.751 8 -33582690.462 9  13428375.286
  15334792.861   -19842892.201 6 -15305210.233 9  15334796.751
  15077759.236    -9274793.151 6  -6984422.264 9  15077764.075
  12750159.970   -36967516.515 7 -28543084.573 9  12750162.677
  15369595.759   -32280472.320 5 -25006709.713 9  15369601.196
  15556656.321    -6330906.429 6  -4758695.773 9  15556659.814
 94  3 24 23 37 59.9730000  0  6  2 26  4  7 27  9
  13424097.618   -43352603.706 8 -33600192.530 9  13424101.122
  15334626.384   -19843764.943 6 -15305890.310 9  15334630.392
  15050086.384    -9420213.731 6  -7097736.884 9  15050090.743
  12746953.439   -36984367.876 7 -28556215.500 9  12746956.368
  15381215.509   -32219409.583 5 -24959128.429 9  15381221.884
  15530086.243    -6470529.562 6  -4867492.976 9  15530089.337
 94  3 24 23 38 29.9730000  0  6  2 26  4  7 27  9
  13419864.673   -43374848.904 8 -33617526.464 9  13419868.001
  15334527.861   -19844286.078 6 -15306296.408 9  15334531.282
  15022446.329    -9565464.206 6  -7210918.959 9  15022451.216
  12743812.821   -37000872.603 7 -28569076.329 9  12743815.575
  15392874.486   -32158141.910 5 -24911387.480 9  15392881.556
  15503551.821    -6609972.522 6  -4976149.791 9  15503555.372
 94  3 24 23 38 59.9730000  0  6  2 26  4  7 27  9
  13415669.837   -43396892.156 8 -33634703.040 9  13415673.236
  15334493.603   -19844464.971 6 -15306435.836 9  15334497.599
  14994839.079    -9710538.647 6  -7323963.853 9  14994843.509
  12740738.329   -37017027.837 7 -28581664.820 9  12740741.142
  15404573.986   -32096661.385 5 -24863480.676 9  15404580.443
  15477049.439    -6749240.580 6  -5084670.317 9  15477052.837
 94  3 24 23 39 29.9730000  0  6  2 26  4  7 27  9
  13411512.782   -43418739.047 8 -33651726.610 9  13411516.239
  15334527.181   -19844289.460 6 -15306299.088 9  15334530.849
  14967269.314    -9855420.237 6  -7436858.495 9  14967273.497
  12737729.657   -37032839.731 7 -28593985.773 9  12737732.458
  15416315.064   -32034964.249 5 -24815405.074 9  15416322.099
  15450581.212    -6888331.045 6  -5193052.453 9  15450584.599
 94  3 24 23 39 59.9730000  0  6  2 26  4  7 27  9
  13407391.400   -43440396.209 8 -33668602.336 9  13407394.716
  15334629.282   -19843753.753 6 -15305881.678 9  15334632.868
  14939731.712   -10000130.892 6  -7549619.937 9  14939735.943
  12734787.626   -37048299.172 7 -28606032.089 9  12734790.450
  15428097.251   -31973048.413 5 -24767159.057 9  15428103.521
  15424148.329    -7027238.073 6  -5301291.666 9  15424151.564
 94  3 24 23 40 29.9730000  0  6  2 26  4  7 27  9
  13403308.814   -43461849.954 8 -33685319.557 9  13403312.236
  15334800.329   -19842854.944 6 -15305181.329 9  15334804.032
  14912225.228   -10144677.009 6  -7662253.172 9  14912229.411
  12731913.642   -37063401.505 7 -28617800.141 9  12731916.525
  15439920.517   -31910915.584 5 -24718743.965 9  15439927.388
  15397754.064    -7165940.312 6  -5409371.284 9  15397757.450
 94  3 24 23 40 59.9730000  0  6  2 26  4  7 27  9
  13399267.079   -43483089.072 8 -33701869.531 9  13399270.431
  15335041.462   -19841586.807 6 -15304193.199 9  15335045.786
  14884750.540   -10289057.850 6  -7774757.628 9  14884755.392
  12729104.728   -37078162.173 7 -28629301.961 9  12729107.704
  15451784.157   -31848573.991 5 -24670166.198 9  15451791.298
  15371402.017    -7304419.269 6  -5517276.921 9  15371405.087
 94  3 24 23 41 29.9730000  0  6  2 26  4  7 27  9
  13395266.587   -43504114.018 8 -33718252.618 9  13395269.986
  15335350.204   -19839966.010 6 -15302930.276 9  15335354.212
  14857306.181   -10433276.942 6  -7887136.045 9  14857310.482
  12726357.611   -37092600.003 7 -28640552.219 9  12726360.599
  15463682.986   -31786045.557 5 -24621442.811 9  15463689.314
  15345092.962    -7442677.211 6  -5625010.343 9  15345096.009
 94  3 24 23 41 59.9730000  0  6  2 26  4  7 27  9
  13391307.189   -43524920.141 8 -33734465.199 9  13391310.611
  15335721.384   -19838013.728 6 -15301409.039 9  15335725.544
  14829893.767   -10577331.881 6  -7999386.564 9  14829898.525
  12723669.087   -37106726.613 7 -28651559.967 9  12723672.157
  15475616.150   -31723336.976 5 -24572579.054 9  15475622.607
  15318826.462    -7580707.698 6  -5732566.542 9  15318829.439
 94  3 24 23 42 29.9730000  0  6  2 26  4  7 27  9
  13387388.095   -43545514.607 8 -33750512.849 9  13387391.458
  15336153.540   -19835742.697 6 -15299639.432 9  15336157.525
  14802517.196   -10721196.825 6  -8111489.042 9  14802521.380
  12721036.743   -37120560.230 7 -28662339.409 9  12721039.767
  15487582.595   -31660451.309 5 -24523577.327 9  15487589.618
  15292601.861    -7718517.339 6  -5839950.644 9  15292604.849
 94  3 24 23 42 59.9730000  0  6  2 26  4  7 27  9
  13383507.611   -43565906.057 8 -33766402.306 9  13383511.126
  15336645.415   -19833156.973 6 -15297624.602 9  15336649.364
  14775180.009   -10864854.877 6  -8223430.312 9  14775184.122
  12718460.571   -37134098.143 7 -28672888.427 9  12718463.478
  15499582.970   -31597389.437 5 -24474438.305 9  15499590.603
  15266415.157    -7856126.399 6  -5947178.441 9  15266418.029
 94  3 24 23 43 29.9730000  0  6  2 26  4  7 27  9
  13379666.743   -43586090.878 8 -33782130.754 9  13379670.130
  15337198.056   -19830254.465 6 -15295362.948 9  15337202.310
  14747884.712   -11008289.737 6  -8335197.668 9  14747889.435
  12715943.790   -37147324.797 7 -28683194.907 9  12715946.579
  15511620.087   -31534137.138 5 -24425150.919 9  15511626.204
  15240265.493    -7993544.865 6  -6054257.738 9  15240268.622
 94  3 24 23 43 59.9730000  0  6  2 26  4  7 27  9
  13375866.611   -43606061.136 8 -33797692.013 9  13375870.021
  15337811.806   -19827029.781 6 -15292850.225 9  15337815.966
  14720634.243   -11151493.249 6  -8446784.744 9  14720638.685
  12713488.220   -37160228.326 7 -28693249.602 9  12713490.950
  15523695.095   -31470683.327 5 -24375706.488 9  15523701.095
  15214151.970    -8130776.082 6  -6161191.117 9  15214155.204
 94  3 24 23 44 29.9730000  0  6  2 26  4  7 27  9
  13372108.290   -43625810.626 8 -33813081.236 9  13372111.677
  15338488.564   -19823475.315 6 -15290080.543 9  15338493.017
  14693428.993   -11294457.187 6  -8558185.151 9  14693433.482
  12711097.939   -37172789.176 7 -28703037.278 9  12711100.739
  15535810.626   -31407017.388 5 -24326096.753 9  15535816.544
  15188075.743    -8267809.362 6  -6267970.259 9  15188078.767
 94  3 24 23 44 59.9730000  0  6  2 26  4  7 27  9
  13368392.720   -43645335.154 8 -33828295.165 9  13368396.060
  15339225.634   -19819597.986 6 -15287059.265 9  15339229.466
  14666266.329   -11437197.561 6  -8669411.347 9  14666270.829
  12708772.298   -37185011.192 7 -28712560.929 9  12708775.040
  15547962.470   -31343158.477 5 -24276336.664 9  15547968.388
  15162035.962    -8404645.731 6  -6374595.971 9  15162038.986
 94  3 24 23 45 29.9730000  0  6  2 26  4  7 27  9
  13364717.415   -43664650.046 8 -33843345.740 9  13364720.767
  15340027.009   -19815389.196 6 -15283779.724 9  15340031.486
  14639144.736   -11579721.758 6  -8780469.091 9  14639149.165
  12706510.493   -37196897.192 7 -28721822.748 9  12706513.224
  15560151.970   -31279105.327 5 -24226425.223 9  15560156.915
  15136036.962    -8541271.118 6  -6481057.279 9  15136039.833
 94  3 24 23 45 59.9730000  0  6  2 26  4  7 27  9
  13361079.337   -43683769.238 8 -33858243.819 9  13361082.677
  15340889.634   -19810856.003 5 -15280247.383 9  15340893.982
  14612062.470   -11722039.754 6  -8891366.163 9  14612067.064
  12704310.728   -37208456.135 7 -28730829.711 9  12704313.388
  15572375.837   -31214868.438 5 -24176370.613 9  15572380.935
  15110081.853    -8677665.065 6  -6587338.249 9  15110084.911
 94  3 24 23 46 29.9730000  0  6  2 26  4  7 27  9
  13357475.751   -43702705.672 7 -33872999.493 9  13357479.009
  15341814.415   -19805996.886 6 -15276461.093 9  15341818.259
  14585015.134   -11864170.633 6  -9002117.436 9  14585019.845
  12702171.736   -37219698.680 7 -28739590.135 9  12702174.489
  15584633.118   -31150455.966 5 -24126179.173 9  15584638.204
  15084172.587    -8813818.722 6  -6693431.960 9  15084176.361
 94  3 24 23 46 59.9730000  0  6  2 26  4  7 27  9
  13353905.259   -43721469.433 7 -33887620.614 9  13353908.681
  15342801.204   -19800808.735 5 -15272418.387 9  15342805.071
  14558002.657   -12006125.120 6  -9112731.244 9  14558007.333
  12700088.220   -37230646.794 7 -28748121.133 9  12700090.915
  15596918.923   -31085890.370 5 -24075868.408 9  15596925.462
  15058306.189    -8949747.525 6  -6799350.465 9  15058309.411
 94  3 24 23 47 29.9730000  0  7  2 26 12  4  7 27  9
  13350369.642   -43740049.652 7 -33902098.711 9  13350372.993
  15343849.236   -19795302.765 6 -15268128.056 9  15343852.892
  15951505.298      -79582.86314    -87550.45519  15951510.302
  14531025.556   -12147891.407 6  -9223198.418 9  14531030.267
  12698061.759   -37241296.544 7 -28756419.641 9  12698064.525
  15609236.142   -31021167.671 5 -24025435.251 9  15609242.282
  15032482.103    -9085452.580 6  -6905094.636 9  15032484.950
 94  3 24 23 47 59.9730000  0  7  2 26 12  4  7 27  9
  13346876.923   -43758402.101 7 -33916399.326 9  13346880.439
  15344955.696   -19789489.661 6 -15263598.397 9  15344959.505
  15924781.298     -220014.612 4   -196977.752 9  15924786.833
  14504085.892   -12289458.501 6  -9333510.356 9  14504090.415
  12696091.978   -37251646.504 7 -28764484.545 9  12696094.720
  15621582.189   -30956290.747 5 -23974881.914 9  15621588.294
  15006702.618    -9220924.275 6  -7010656.954 9  15006705.712
 94  3 24 23 48 29.9730000  0  7  2 26 12  4  7 27  9
  13343431.204   -43776510.689 7 -33930509.928 9  13343434.673
  15346120.493   -19783364.849 6 -15258825.837 9  15346124.654
  15898062.157     -360427.295 3   -306390.169 9  15898066.931
  14477187.931   -12430807.953 6  -9443652.713 9  14477192.618
  12694179.493   -37261697.862 7 -28772316.765 9  12694182.224
  15633956.540   -30891262.479 5 -23924210.620 9  15633962.200
  14980964.650    -9356181.035 6  -7116051.797 9  14980967.626
 94  3 24 23 48 59.9730000  0  7  2 26 12  4  7 27  9
  13340032.204   -43794371.100 7 -33944427.148 9  13340035.650
  15347343.946   -19776940.473 6 -15253819.870 9  15347347.907
  15871346.775     -500816.940 3   -415784.654 9  15871351.568
  14450339.196   -12571898.008 6  -9553592.927 9  14450343.907
  12692324.704   -37271444.417 7 -28779911.476 9  12692327.529
  15646360.329   -30826077.937 5 -23873417.597 9  15646365.579
  14955268.314    -9491214.986 6  -7221273.023 9  14955270.915
 94  3 24 23 49 29.9730000  0  7  2 26 12  4  7 27  9
  13336680.423   -43811985.628 7 -33958152.764 9  13336683.728
  15348622.321   -19770222.660 6 -15248585.223 9  15348626.001
  15844637.407     -641181.333 5   -525159.444 9  15844640.747
  14423542.009   -12712720.067 6  -9663324.322 9  14423546.251
  12690529.236   -37280879.145 7 -28787263.208 9  12690532.165
  15658797.454   -30760721.810 5 -23822490.838 9  15658803.267
  14929619.142    -9626005.395 6  -7326304.477 9  14929621.685
 94  3 24 23 49 59.9730000  0  7  2 26 12  4  7 27  9
  13333369.337   -43829384.918 7 -33971710.661 9  13333372.689
  15349958.907   -19763195.492 6 -15243109.538 9  15349962.962
  15817929.306     -781522.318 4   -634516.031 9  15817934.673
  14396794.540   -12853277.360 6  -9772849.412 9  14396798.923
  12688791.939   -37290008.395 7 -28794376.907 9  12688794.974
  15671265.954   -30695198.961 5 -23771434.183 9  15671271.802
  14904015.431    -9760552.215 6  -7431146.129 9  14904017.974
 94  3 24 23 50 29.9730000  0  7  2 26 12  4  7 27  9
  13330092.611   -43846604.465 7 -33985128.502 9  13330096.091
  15351355.431   -19755863.252 6 -15237396.142 9  15351358.876
  15791230.454     -921838.267 5   -743853.092 9  15791233.298
  14370098.540   -12993565.689 6  -9882164.902 9  14370102.923
  12687113.071   -37298831.624 7 -28801252.152 9  12687116.036
  15683766.712   -30629507.178 5 -23720245.898 9  15683772.443
  14878457.321    -9894858.602 6  -7535800.435 9  14878459.782
 94  3 24 23 50 59.9730000  0  7  2 26 12  4  7 27  9
  13326849.048   -43863648.494 7 -33998409.576 9  13326852.657
  15352804.798   -19748240.914 6 -15231456.680 9  15352809.181
  15764532.400    -1062128.063 5   -853169.785 9  15764537.200
  14343450.626   -13133602.369 6  -9991284.304 9  14343454.786
  12685489.806   -37307361.208 7 -28807898.579 9  12685492.759
  15696297.345   -30563658.228 5 -23668935.111 9  15696302.853
  14852948.821   -10028908.671 6  -7640255.003 9  14852951.329
 94  3 24 23 51 29.9730000  0  7  2 26 12  4  7 27  9
  13323640.571   -43880509.083 7 -34011547.714 9  13323644.075
  15354311.376   -19740327.041 6 -15225290.073 9  15354315.501
  15737841.142    -1202394.603 5   -962468.334 9  15737846.931
  14316843.650   -13273421.622 6 -10100234.288 9  14316847.739
  12683921.532   -37315602.316 7 -28814320.220 9  12683924.532
  15708854.587   -30497670.478 5 -23617516.203 9  15708860.892
  14827485.876   -10162715.277 6  -7744519.858 9  14827488.536
 94  3 24 23 51 59.9730000  0  7  2 26 12  4  7 27  9
  13320468.345   -43897179.949 7 -34024538.020 9  13320471.767
  15355870.368   -19732133.831 6 -15218905.775 9  15355874.025
  15711153.814    -1342634.000 5  -1071745.761 9  15711158.103
  14290278.446   -13413021.947 6 -10209013.666 9  14290282.548
  12682408.282   -37323555.190 7 -28820517.262 9  12682411.318
  15721434.532   -30431559.882 5 -23566001.562 9  15721441.814
  14802069.079   -10296283.655 6  -7848599.087 9  14802071.880
 94  3 24 23 52 29.9730000  0  7  2 26 12  4  7 27  9
  13317335.814   -43913642.713 7 -34037366.169 9  13317339.224
  15357479.353   -19723678.882 6 -15212317.543 9  15357483.150
  15684473.501    -1482845.206 5  -1181001.215 9  15684476.814
  14263756.587   -13552395.041 6 -10317615.982 9  14263760.841
  12680947.673   -37331230.076 7 -28826497.691 9  12680950.591
  15734036.470   -30365336.179 5 -23514398.807 9  15734043.032
  14776699.970   -10429598.627 6  -7952480.856 9  14776702.384
 94  3 24 23 52 59.9730000  0  7  2 26 12  4  7 27  9
  13314244.298   -43929888.324 7 -34050025.101 9  13314247.779
  15359140.173   -19714952.353 6 -15205517.686 9  15359143.911
  15657797.392    -1623025.961 5  -1290232.923 9  15657803.665
  14237278.907   -13691537.906 6 -10426038.898 9  14237282.833
  12679538.915   -37338633.694 7 -28832266.738 9  12679541.775
  15746656.603   -30299017.405 5 -23462721.956 9  15746663.013
  14751378.845   -10562656.843 6  -8056162.560 9  14751381.529
 94  3 24 23 53 29.9730000  0  7  2 26 12  4  7 27  9
  13311193.579   -43945920.938 7 -34062518.064 9  13311196.966
  15360854.001   -19705941.919 6 -15198496.595 9  15360858.103
  15631126.743    -1763172.880 4  -1399438.273 9  15631132.607
  14210848.087   -13830429.411 6 -10534265.945 9  14210851.966
  12678184.798   -37345749.567 7 -28837811.572 9  12678187.669
  15759296.939   -30232594.985 5 -23410964.309 9  15759303.407
  14726107.087   -10695464.202 6  -8159648.776 9  14726110.111
 94  3 24 23 53 59.9730000  0  7  2 26 12  4  7 27  9
  13308181.931   -43961747.286 7 -34074850.307 9  13308185.224
  15362622.665   -19696651.606 6 -15191257.429 9  15362625.946
  15604466.259    -1903281.795 5  -1508614.026 9  15604470.962
  14184471.142   -13969041.198 6 -10642275.025 9  14184474.950
  12676883.486   -37352588.729 7 -28843140.781 9  12676886.216
  15771957.220   -30166062.786 5 -23359121.137 9  15771963.560
  14700883.884   -10828011.169 6  -8262932.099 9  14700886.779
 94  3 24 23 54 29.9720000  0  7  2 26 12  4  7 27  9
  13305211.567   -43977356.526 7 -34087013.366 9  13305214.742
  15364445.481   -19687071.097 5 -15183792.129 9  15364449.535
  15577814.121    -2043345.320 5  -1617754.383 9  15577818.672
  14158149.278   -14107362.931 6 -10750058.095 9  14158153.168
  12675632.238   -37359162.784 7 -28848263.423 9  12675635.145
  15784639.613   -30099415.288 5 -23307188.113 9  15784647.094
  14675712.309   -10960292.041 6  -8366008.076 9  14675715.110
 94  3 24 23 54 59.9720000  0  7  2 26 12  4  7 27  9
  13302279.192   -43992766.236 7 -34099020.954 9  13302282.613
  15366321.129   -19677219.631 6 -15176115.694 9  15366324.610
  15551164.520    -2183387.555 5  -1726878.143 9  15551169.219
  14131875.496   -14245434.301 6 -10857646.072 9  14131879.246
  12674429.207   -37365485.119 7 -28853189.913 9  12674432.043
  15797343.379   -30032659.937 5 -23255171.065 9  15797349.965
  14650582.348   -11092348.921 6  -8468909.505 9  14650585.324
